<?xml version="1.0" encoding="UTF-8" standalone="no" ?>
<gpx xmlns="http://www.topografix.com/GPX/1/1" xmlns:xsi="http://www.w3.org/2001/XMLSchema-instance" xsi:schemaLocation="http://www.topografix.com/GPX/1/1 http://www.topografix.com/GPX/1/1/gpx.xsd" version="1.1" creator="VisuGPX - https://www.visugpx.com">
  <metadata>
    <name>Gourdon-Cipières-Gourdon</name>
    <desc><![CDATA[Boucle entre Gourdon et Cipières via Calern et Cavillore]]></desc>
  </metadata>
  <trk>
    <name><![CDATA[Untitled]]></name>
    <trkseg>
      <trkpt lat="43.72219" lon="6.97378">
        <ele>758.20001220703</ele>
        <time>2010-12-12T08:03:53.000Z</time>
      </trkpt>
      <trkpt lat="43.72199" lon="6.97389">
        <ele>755.79998779297</ele>
        <time>2010-12-12T08:03:59.000Z</time>
      </trkpt>
      <trkpt lat="43.72198" lon="6.97391">
        <ele>755.59997558594</ele>
        <time>2010-12-12T08:04:00.000Z</time>
      </trkpt>
      <trkpt lat="43.72203" lon="6.97402">
        <ele>757.40002441406</ele>
        <time>2010-12-12T08:04:04.000Z</time>
      </trkpt>
      <trkpt lat="43.7221" lon="6.97399">
        <ele>758.40002441406</ele>
        <time>2010-12-12T08:04:06.000Z</time>
      </trkpt>
      <trkpt lat="43.72244" lon="6.97381">
        <ele>762.79998779297</ele>
        <time>2010-12-12T08:04:16.000Z</time>
      </trkpt>
      <trkpt lat="43.72266" lon="6.97366">
        <ele>767.79998779297</ele>
        <time>2010-12-12T08:04:23.000Z</time>
      </trkpt>
      <trkpt lat="43.72273" lon="6.97351">
        <ele>769.20001220703</ele>
        <time>2010-12-12T08:04:27.000Z</time>
      </trkpt>
      <trkpt lat="43.72281" lon="6.9732">
        <ele>771.20001220703</ele>
        <time>2010-12-12T08:04:34.000Z</time>
      </trkpt>
      <trkpt lat="43.72284" lon="6.97285">
        <ele>773</ele>
        <time>2010-12-12T08:04:42.000Z</time>
      </trkpt>
      <trkpt lat="43.72279" lon="6.97243">
        <ele>772.20001220703</ele>
        <time>2010-12-12T08:04:52.000Z</time>
      </trkpt>
      <trkpt lat="43.72279" lon="6.97207">
        <ele>773.20001220703</ele>
        <time>2010-12-12T08:05:01.000Z</time>
      </trkpt>
      <trkpt lat="43.72287" lon="6.9718">
        <ele>777.20001220703</ele>
        <time>2010-12-12T08:05:09.000Z</time>
      </trkpt>
      <trkpt lat="43.72293" lon="6.97152">
        <ele>781</ele>
        <time>2010-12-12T08:05:18.000Z</time>
      </trkpt>
      <trkpt lat="43.72297" lon="6.97119">
        <ele>784</ele>
        <time>2010-12-12T08:05:28.000Z</time>
      </trkpt>
      <trkpt lat="43.72297" lon="6.97088">
        <ele>784.79998779297</ele>
        <time>2010-12-12T08:05:37.000Z</time>
      </trkpt>
      <trkpt lat="43.72294" lon="6.97048">
        <ele>783.20001220703</ele>
        <time>2010-12-12T08:05:49.000Z</time>
      </trkpt>
      <trkpt lat="43.72291" lon="6.97017">
        <ele>781.79998779297</ele>
        <time>2010-12-12T08:05:58.000Z</time>
      </trkpt>
      <trkpt lat="43.72287" lon="6.96983">
        <ele>780</ele>
        <time>2010-12-12T08:06:08.000Z</time>
      </trkpt>
      <trkpt lat="43.72285" lon="6.96944">
        <ele>779.59997558594</ele>
        <time>2010-12-12T08:06:19.000Z</time>
      </trkpt>
      <trkpt lat="43.72285" lon="6.96908">
        <ele>780.20001220703</ele>
        <time>2010-12-12T08:06:29.000Z</time>
      </trkpt>
      <trkpt lat="43.72283" lon="6.96869">
        <ele>780.40002441406</ele>
        <time>2010-12-12T08:06:40.000Z</time>
      </trkpt>
      <trkpt lat="43.72277" lon="6.96827">
        <ele>778.79998779297</ele>
        <time>2010-12-12T08:06:52.000Z</time>
      </trkpt>
      <trkpt lat="43.72275" lon="6.96793">
        <ele>776</ele>
        <time>2010-12-12T08:07:02.000Z</time>
      </trkpt>
      <trkpt lat="43.72279" lon="6.96769">
        <ele>775.59997558594</ele>
        <time>2010-12-12T08:07:09.000Z</time>
      </trkpt>
      <trkpt lat="43.72292" lon="6.96752">
        <ele>777.59997558594</ele>
        <time>2010-12-12T08:07:16.000Z</time>
      </trkpt>
      <trkpt lat="43.72309" lon="6.96745">
        <ele>781</ele>
        <time>2010-12-12T08:07:23.000Z</time>
      </trkpt>
      <trkpt lat="43.72328" lon="6.96745">
        <ele>785.20001220703</ele>
        <time>2010-12-12T08:07:30.000Z</time>
      </trkpt>
      <trkpt lat="43.72345" lon="6.96758">
        <ele>788.59997558594</ele>
        <time>2010-12-12T08:07:37.000Z</time>
      </trkpt>
      <trkpt lat="43.72357" lon="6.96779">
        <ele>791.40002441406</ele>
        <time>2010-12-12T08:07:44.000Z</time>
      </trkpt>
      <trkpt lat="43.72369" lon="6.96822">
        <ele>795</ele>
        <time>2010-12-12T08:07:56.000Z</time>
      </trkpt>
      <trkpt lat="43.72378" lon="6.96853">
        <ele>796.40002441406</ele>
        <time>2010-12-12T08:08:05.000Z</time>
      </trkpt>
      <trkpt lat="43.7239" lon="6.96894">
        <ele>798</ele>
        <time>2010-12-12T08:08:17.000Z</time>
      </trkpt>
      <trkpt lat="43.72404" lon="6.96931">
        <ele>801.40002441406</ele>
        <time>2010-12-12T08:08:28.000Z</time>
      </trkpt>
      <trkpt lat="43.72422" lon="6.96972">
        <ele>808.79998779297</ele>
        <time>2010-12-12T08:08:41.000Z</time>
      </trkpt>
      <trkpt lat="43.72442" lon="6.96993">
        <ele>811.20001220703</ele>
        <time>2010-12-12T08:08:50.000Z</time>
      </trkpt>
      <trkpt lat="43.72458" lon="6.97003">
        <ele>811.20001220703</ele>
        <time>2010-12-12T08:08:57.000Z</time>
      </trkpt>
      <trkpt lat="43.72471" lon="6.9701">
        <ele>811</ele>
        <time>2010-12-12T08:09:02.000Z</time>
      </trkpt>
      <trkpt lat="43.72487" lon="6.97035">
        <ele>812.40002441406</ele>
        <time>2010-12-12T08:09:11.000Z</time>
      </trkpt>
      <trkpt lat="43.7249" lon="6.97064">
        <ele>815</ele>
        <time>2010-12-12T08:09:19.000Z</time>
      </trkpt>
      <trkpt lat="43.72485" lon="6.97088">
        <ele>818</ele>
        <time>2010-12-12T08:09:26.000Z</time>
      </trkpt>
      <trkpt lat="43.72472" lon="6.97113">
        <ele>820.79998779297</ele>
        <time>2010-12-12T08:09:34.000Z</time>
      </trkpt>
      <trkpt lat="43.72462" lon="6.97146">
        <ele>823.20001220703</ele>
        <time>2010-12-12T08:09:44.000Z</time>
      </trkpt>
      <trkpt lat="43.72467" lon="6.97168">
        <ele>824.40002441406</ele>
        <time>2010-12-12T08:09:51.000Z</time>
      </trkpt>
      <trkpt lat="43.72477" lon="6.97178">
        <ele>825.40002441406</ele>
        <time>2010-12-12T08:09:57.000Z</time>
      </trkpt>
      <trkpt lat="43.72493" lon="6.97175">
        <ele>825.20001220703</ele>
        <time>2010-12-12T08:10:03.000Z</time>
      </trkpt>
      <trkpt lat="43.72495" lon="6.97174">
        <ele>825</ele>
        <time>2010-12-12T08:10:04.000Z</time>
      </trkpt>
      <trkpt lat="43.72511" lon="6.97154">
        <ele>824.79998779297</ele>
        <time>2010-12-12T08:10:12.000Z</time>
      </trkpt>
      <trkpt lat="43.72527" lon="6.97131">
        <ele>825.40002441406</ele>
        <time>2010-12-12T08:10:21.000Z</time>
      </trkpt>
      <trkpt lat="43.72542" lon="6.97106">
        <ele>825.79998779297</ele>
        <time>2010-12-12T08:10:31.000Z</time>
      </trkpt>
      <trkpt lat="43.72554" lon="6.97089">
        <ele>826.20001220703</ele>
        <time>2010-12-12T08:10:38.000Z</time>
      </trkpt>
      <trkpt lat="43.72567" lon="6.97067">
        <ele>826.79998779297</ele>
        <time>2010-12-12T08:10:47.000Z</time>
      </trkpt>
      <trkpt lat="43.72584" lon="6.97041">
        <ele>828.20001220703</ele>
        <time>2010-12-12T08:10:58.000Z</time>
      </trkpt>
      <trkpt lat="43.726" lon="6.97017">
        <ele>829.79998779297</ele>
        <time>2010-12-12T08:11:08.000Z</time>
      </trkpt>
      <trkpt lat="43.72617" lon="6.96986">
        <ele>832.40002441406</ele>
        <time>2010-12-12T08:11:20.000Z</time>
      </trkpt>
      <trkpt lat="43.72631" lon="6.96955">
        <ele>835.40002441406</ele>
        <time>2010-12-12T08:11:32.000Z</time>
      </trkpt>
      <trkpt lat="43.72644" lon="6.96927">
        <ele>838</ele>
        <time>2010-12-12T08:11:43.000Z</time>
      </trkpt>
      <trkpt lat="43.72659" lon="6.96893">
        <ele>840</ele>
        <time>2010-12-12T08:11:56.000Z</time>
      </trkpt>
      <trkpt lat="43.72669" lon="6.9687">
        <ele>840.59997558594</ele>
        <time>2010-12-12T08:12:05.000Z</time>
      </trkpt>
      <trkpt lat="43.72678" lon="6.96849">
        <ele>841.40002441406</ele>
        <time>2010-12-12T08:12:13.000Z</time>
      </trkpt>
      <trkpt lat="43.72689" lon="6.96824">
        <ele>842.79998779297</ele>
        <time>2010-12-12T08:12:22.000Z</time>
      </trkpt>
      <trkpt lat="43.72699" lon="6.96799">
        <ele>845.20001220703</ele>
        <time>2010-12-12T08:12:31.000Z</time>
      </trkpt>
      <trkpt lat="43.72708" lon="6.96771">
        <ele>847.40002441406</ele>
        <time>2010-12-12T08:12:41.000Z</time>
      </trkpt>
      <trkpt lat="43.72713" lon="6.96747">
        <ele>848.79998779297</ele>
        <time>2010-12-12T08:12:49.000Z</time>
      </trkpt>
      <trkpt lat="43.72716" lon="6.96727">
        <ele>850.20001220703</ele>
        <time>2010-12-12T08:12:55.000Z</time>
      </trkpt>
      <trkpt lat="43.72721" lon="6.96693">
        <ele>852.79998779297</ele>
        <time>2010-12-12T08:13:06.000Z</time>
      </trkpt>
      <trkpt lat="43.72725" lon="6.96666">
        <ele>855.20001220703</ele>
        <time>2010-12-12T08:13:15.000Z</time>
      </trkpt>
      <trkpt lat="43.72728" lon="6.96634">
        <ele>856.79998779297</ele>
        <time>2010-12-12T08:13:25.000Z</time>
      </trkpt>
      <trkpt lat="43.72731" lon="6.96595">
        <ele>858.59997558594</ele>
        <time>2010-12-12T08:13:37.000Z</time>
      </trkpt>
      <trkpt lat="43.72733" lon="6.96566">
        <ele>860.59997558594</ele>
        <time>2010-12-12T08:13:46.000Z</time>
      </trkpt>
      <trkpt lat="43.72732" lon="6.96532">
        <ele>862.40002441406</ele>
        <time>2010-12-12T08:13:56.000Z</time>
      </trkpt>
      <trkpt lat="43.72731" lon="6.96502">
        <ele>863.79998779297</ele>
        <time>2010-12-12T08:14:05.000Z</time>
      </trkpt>
      <trkpt lat="43.72731" lon="6.96472">
        <ele>866.20001220703</ele>
        <time>2010-12-12T08:14:14.000Z</time>
      </trkpt>
      <trkpt lat="43.72729" lon="6.96431">
        <ele>868.59997558594</ele>
        <time>2010-12-12T08:14:26.000Z</time>
      </trkpt>
      <trkpt lat="43.72728" lon="6.96394">
        <ele>870.40002441406</ele>
        <time>2010-12-12T08:14:37.000Z</time>
      </trkpt>
      <trkpt lat="43.72728" lon="6.96368">
        <ele>871.79998779297</ele>
        <time>2010-12-12T08:14:45.000Z</time>
      </trkpt>
      <trkpt lat="43.72727" lon="6.96332">
        <ele>873</ele>
        <time>2010-12-12T08:14:56.000Z</time>
      </trkpt>
      <trkpt lat="43.72726" lon="6.96303">
        <ele>871.79998779297</ele>
        <time>2010-12-12T08:15:05.000Z</time>
      </trkpt>
      <trkpt lat="43.72725" lon="6.96285">
        <ele>871</ele>
        <time>2010-12-12T08:15:10.000Z</time>
      </trkpt>
      <trkpt lat="43.72728" lon="6.96247">
        <ele>870.59997558594</ele>
        <time>2010-12-12T08:15:21.000Z</time>
      </trkpt>
      <trkpt lat="43.72733" lon="6.96225">
        <ele>869.59997558594</ele>
        <time>2010-12-12T08:15:28.000Z</time>
      </trkpt>
      <trkpt lat="43.72746" lon="6.9619">
        <ele>870.20001220703</ele>
        <time>2010-12-12T08:15:39.000Z</time>
      </trkpt>
      <trkpt lat="43.72767" lon="6.96152">
        <ele>872.20001220703</ele>
        <time>2010-12-12T08:15:52.000Z</time>
      </trkpt>
      <trkpt lat="43.72784" lon="6.96128">
        <ele>873.40002441406</ele>
        <time>2010-12-12T08:16:02.000Z</time>
      </trkpt>
      <trkpt lat="43.72809" lon="6.96104">
        <ele>876.20001220703</ele>
        <time>2010-12-12T08:16:14.000Z</time>
      </trkpt>
      <trkpt lat="43.72833" lon="6.96086">
        <ele>880</ele>
        <time>2010-12-12T08:16:25.000Z</time>
      </trkpt>
      <trkpt lat="43.72859" lon="6.96072">
        <ele>883</ele>
        <time>2010-12-12T08:16:36.000Z</time>
      </trkpt>
      <trkpt lat="43.72883" lon="6.96058">
        <ele>885.59997558594</ele>
        <time>2010-12-12T08:16:46.000Z</time>
      </trkpt>
      <trkpt lat="43.72907" lon="6.96045">
        <ele>888</ele>
        <time>2010-12-12T08:16:55.000Z</time>
      </trkpt>
      <trkpt lat="43.72929" lon="6.96033">
        <ele>889.40002441406</ele>
        <time>2010-12-12T08:17:04.000Z</time>
      </trkpt>
      <trkpt lat="43.72946" lon="6.96023">
        <ele>889.79998779297</ele>
        <time>2010-12-12T08:17:11.000Z</time>
      </trkpt>
      <trkpt lat="43.72966" lon="6.96011">
        <ele>889.59997558594</ele>
        <time>2010-12-12T08:17:20.000Z</time>
      </trkpt>
      <trkpt lat="43.72985" lon="6.96">
        <ele>889.59997558594</ele>
        <time>2010-12-12T08:17:28.000Z</time>
      </trkpt>
      <trkpt lat="43.73009" lon="6.95987">
        <ele>891.59997558594</ele>
        <time>2010-12-12T08:17:38.000Z</time>
      </trkpt>
      <trkpt lat="43.73042" lon="6.9598">
        <ele>899.79998779297</ele>
        <time>2010-12-12T08:17:51.000Z</time>
      </trkpt>
      <trkpt lat="43.73061" lon="6.95975">
        <ele>903.59997558594</ele>
        <time>2010-12-12T08:17:59.000Z</time>
      </trkpt>
      <trkpt lat="43.73084" lon="6.95964">
        <ele>906.40002441406</ele>
        <time>2010-12-12T08:18:09.000Z</time>
      </trkpt>
      <trkpt lat="43.73105" lon="6.95949">
        <ele>907</ele>
        <time>2010-12-12T08:18:19.000Z</time>
      </trkpt>
      <trkpt lat="43.73127" lon="6.95934">
        <ele>907.79998779297</ele>
        <time>2010-12-12T08:18:29.000Z</time>
      </trkpt>
      <trkpt lat="43.73146" lon="6.95921">
        <ele>908.40002441406</ele>
        <time>2010-12-12T08:18:38.000Z</time>
      </trkpt>
      <trkpt lat="43.73167" lon="6.95908">
        <ele>910.40002441406</ele>
        <time>2010-12-12T08:18:48.000Z</time>
      </trkpt>
      <trkpt lat="43.73187" lon="6.95892">
        <ele>913.40002441406</ele>
        <time>2010-12-12T08:18:58.000Z</time>
      </trkpt>
      <trkpt lat="43.73208" lon="6.95871">
        <ele>914.59997558594</ele>
        <time>2010-12-12T08:19:09.000Z</time>
      </trkpt>
      <trkpt lat="43.7323" lon="6.95845">
        <ele>914.20001220703</ele>
        <time>2010-12-12T08:19:21.000Z</time>
      </trkpt>
      <trkpt lat="43.73251" lon="6.95823">
        <ele>914.20001220703</ele>
        <time>2010-12-12T08:19:32.000Z</time>
      </trkpt>
      <trkpt lat="43.7327" lon="6.95809">
        <ele>914.20001220703</ele>
        <time>2010-12-12T08:19:41.000Z</time>
      </trkpt>
      <trkpt lat="43.73288" lon="6.95805">
        <ele>916.79998779297</ele>
        <time>2010-12-12T08:19:49.000Z</time>
      </trkpt>
      <trkpt lat="43.73315" lon="6.95807">
        <ele>922.40002441406</ele>
        <time>2010-12-12T08:20:00.000Z</time>
      </trkpt>
      <trkpt lat="43.73337" lon="6.95809">
        <ele>926.79998779297</ele>
        <time>2010-12-12T08:20:09.000Z</time>
      </trkpt>
      <trkpt lat="43.73358" lon="6.95811">
        <ele>930.20001220703</ele>
        <time>2010-12-12T08:20:18.000Z</time>
      </trkpt>
      <trkpt lat="43.73382" lon="6.95813">
        <ele>933.59997558594</ele>
        <time>2010-12-12T08:20:28.000Z</time>
      </trkpt>
      <trkpt lat="43.73396" lon="6.95799">
        <ele>934.20001220703</ele>
        <time>2010-12-12T08:20:35.000Z</time>
      </trkpt>
      <trkpt lat="43.73401" lon="6.95777">
        <ele>933.59997558594</ele>
        <time>2010-12-12T08:20:42.000Z</time>
      </trkpt>
      <trkpt lat="43.73397" lon="6.95757">
        <ele>931</ele>
        <time>2010-12-12T08:20:48.000Z</time>
      </trkpt>
      <trkpt lat="43.73384" lon="6.95725">
        <ele>926.79998779297</ele>
        <time>2010-12-12T08:20:58.000Z</time>
      </trkpt>
      <trkpt lat="43.73381" lon="6.95701">
        <ele>925.79998779297</ele>
        <time>2010-12-12T08:21:05.000Z</time>
      </trkpt>
      <trkpt lat="43.73389" lon="6.95672">
        <ele>928.40002441406</ele>
        <time>2010-12-12T08:21:14.000Z</time>
      </trkpt>
      <trkpt lat="43.73403" lon="6.95637">
        <ele>930.59997558594</ele>
        <time>2010-12-12T08:21:26.000Z</time>
      </trkpt>
      <trkpt lat="43.73419" lon="6.95617">
        <ele>932.79998779297</ele>
        <time>2010-12-12T08:21:35.000Z</time>
      </trkpt>
      <trkpt lat="43.73436" lon="6.95597">
        <ele>937.40002441406</ele>
        <time>2010-12-12T08:21:44.000Z</time>
      </trkpt>
      <trkpt lat="43.73455" lon="6.95575">
        <ele>943.20001220703</ele>
        <time>2010-12-12T08:21:54.000Z</time>
      </trkpt>
      <trkpt lat="43.7346" lon="6.95552">
        <ele>945.20001220703</ele>
        <time>2010-12-12T08:22:01.000Z</time>
      </trkpt>
      <trkpt lat="43.73459" lon="6.95514">
        <ele>944.40002441406</ele>
        <time>2010-12-12T08:22:12.000Z</time>
      </trkpt>
      <trkpt lat="43.7346" lon="6.95477">
        <ele>946</ele>
        <time>2010-12-12T08:22:23.000Z</time>
      </trkpt>
      <trkpt lat="43.73461" lon="6.95443">
        <ele>948</ele>
        <time>2010-12-12T08:22:33.000Z</time>
      </trkpt>
      <trkpt lat="43.73461" lon="6.95406">
        <ele>949.59997558594</ele>
        <time>2010-12-12T08:22:44.000Z</time>
      </trkpt>
      <trkpt lat="43.73463" lon="6.95372">
        <ele>950.20001220703</ele>
        <time>2010-12-12T08:22:54.000Z</time>
      </trkpt>
      <trkpt lat="43.73471" lon="6.95337">
        <ele>952.59997558594</ele>
        <time>2010-12-12T08:23:05.000Z</time>
      </trkpt>
      <trkpt lat="43.73483" lon="6.95308">
        <ele>954.20001220703</ele>
        <time>2010-12-12T08:23:15.000Z</time>
      </trkpt>
      <trkpt lat="43.735" lon="6.95282">
        <ele>954.79998779297</ele>
        <time>2010-12-12T08:23:25.000Z</time>
      </trkpt>
      <trkpt lat="43.73516" lon="6.95259">
        <ele>957.40002441406</ele>
        <time>2010-12-12T08:23:34.000Z</time>
      </trkpt>
      <trkpt lat="43.73533" lon="6.95234">
        <ele>961.59997558594</ele>
        <time>2010-12-12T08:23:44.000Z</time>
      </trkpt>
      <trkpt lat="43.7355" lon="6.95211">
        <ele>965.20001220703</ele>
        <time>2010-12-12T08:23:54.000Z</time>
      </trkpt>
      <trkpt lat="43.73567" lon="6.95192">
        <ele>966.79998779297</ele>
        <time>2010-12-12T08:24:03.000Z</time>
      </trkpt>
      <trkpt lat="43.73586" lon="6.95173">
        <ele>967.79998779297</ele>
        <time>2010-12-12T08:24:13.000Z</time>
      </trkpt>
      <trkpt lat="43.73601" lon="6.95162">
        <ele>970.79998779297</ele>
        <time>2010-12-12T08:24:20.000Z</time>
      </trkpt>
      <trkpt lat="43.73614" lon="6.95144">
        <ele>975.79998779297</ele>
        <time>2010-12-12T08:24:28.000Z</time>
      </trkpt>
      <trkpt lat="43.73614" lon="6.95127">
        <ele>977.40002441406</ele>
        <time>2010-12-12T08:24:33.000Z</time>
      </trkpt>
      <trkpt lat="43.73605" lon="6.95113">
        <ele>978</ele>
        <time>2010-12-12T08:24:39.000Z</time>
      </trkpt>
      <trkpt lat="43.73585" lon="6.95108">
        <ele>976.59997558594</ele>
        <time>2010-12-12T08:24:47.000Z</time>
      </trkpt>
      <trkpt lat="43.7356" lon="6.95108">
        <ele>976</ele>
        <time>2010-12-12T08:24:57.000Z</time>
      </trkpt>
      <trkpt lat="43.73531" lon="6.95108">
        <ele>975.20001220703</ele>
        <time>2010-12-12T08:25:09.000Z</time>
      </trkpt>
      <trkpt lat="43.73505" lon="6.95107">
        <ele>974.79998779297</ele>
        <time>2010-12-12T08:25:20.000Z</time>
      </trkpt>
      <trkpt lat="43.73477" lon="6.95107">
        <ele>976</ele>
        <time>2010-12-12T08:25:32.000Z</time>
      </trkpt>
      <trkpt lat="43.73453" lon="6.95106">
        <ele>977.40002441406</ele>
        <time>2010-12-12T08:25:42.000Z</time>
      </trkpt>
      <trkpt lat="43.73428" lon="6.95096">
        <ele>982.40002441406</ele>
        <time>2010-12-12T08:25:53.000Z</time>
      </trkpt>
      <trkpt lat="43.73405" lon="6.95082">
        <ele>990.79998779297</ele>
        <time>2010-12-12T08:26:04.000Z</time>
      </trkpt>
      <trkpt lat="43.73403" lon="6.95081">
        <ele>991.40002441406</ele>
        <time>2010-12-12T08:26:05.000Z</time>
      </trkpt>
      <trkpt lat="43.73402" lon="6.95081">
        <ele>991.59997558594</ele>
        <time>2010-12-12T08:26:11.000Z</time>
      </trkpt>
      <trkpt lat="43.73401" lon="6.95081">
        <ele>991.79998779297</ele>
        <time>2010-12-12T08:26:16.000Z</time>
      </trkpt>
      <trkpt lat="43.734" lon="6.95082">
        <ele>991.79998779297</ele>
        <time>2010-12-12T08:26:21.000Z</time>
      </trkpt>
      <trkpt lat="43.73401" lon="6.95081">
        <ele>991.79998779297</ele>
        <time>2010-12-12T08:26:27.000Z</time>
      </trkpt>
      <trkpt lat="43.73401" lon="6.95081">
        <ele>992</ele>
        <time>2010-12-12T08:26:37.000Z</time>
      </trkpt>
      <trkpt lat="43.73401" lon="6.9508">
        <ele>992.20001220703</ele>
        <time>2010-12-12T08:26:45.000Z</time>
      </trkpt>
      <trkpt lat="43.73401" lon="6.95079">
        <ele>992.59997558594</ele>
        <time>2010-12-12T08:26:54.000Z</time>
      </trkpt>
      <trkpt lat="43.734" lon="6.95078">
        <ele>993</ele>
        <time>2010-12-12T08:27:05.000Z</time>
      </trkpt>
      <trkpt lat="43.734" lon="6.95078">
        <ele>993.20001220703</ele>
        <time>2010-12-12T08:27:10.000Z</time>
      </trkpt>
      <trkpt lat="43.73401" lon="6.9508">
        <ele>992.40002441406</ele>
        <time>2010-12-12T08:27:15.000Z</time>
      </trkpt>
      <trkpt lat="43.73401" lon="6.95079">
        <ele>992.59997558594</ele>
        <time>2010-12-12T08:27:21.000Z</time>
      </trkpt>
      <trkpt lat="43.73401" lon="6.9508">
        <ele>992.40002441406</ele>
        <time>2010-12-12T08:27:28.000Z</time>
      </trkpt>
      <trkpt lat="43.73401" lon="6.95082">
        <ele>991.40002441406</ele>
        <time>2010-12-12T08:27:33.000Z</time>
      </trkpt>
      <trkpt lat="43.73404" lon="6.95081">
        <ele>991.40002441406</ele>
        <time>2010-12-12T08:27:45.000Z</time>
      </trkpt>
      <trkpt lat="43.73401" lon="6.95083">
        <ele>991.40002441406</ele>
        <time>2010-12-12T08:27:57.000Z</time>
      </trkpt>
      <trkpt lat="43.73391" lon="6.95091">
        <ele>990.59997558594</ele>
        <time>2010-12-12T08:28:03.000Z</time>
      </trkpt>
      <trkpt lat="43.73376" lon="6.95112">
        <ele>987.40002441406</ele>
        <time>2010-12-12T08:28:12.000Z</time>
      </trkpt>
      <trkpt lat="43.73367" lon="6.95127">
        <ele>985</ele>
        <time>2010-12-12T08:28:18.000Z</time>
      </trkpt>
      <trkpt lat="43.73353" lon="6.95148">
        <ele>982.59997558594</ele>
        <time>2010-12-12T08:28:26.000Z</time>
      </trkpt>
      <trkpt lat="43.73338" lon="6.95167">
        <ele>982.40002441406</ele>
        <time>2010-12-12T08:28:34.000Z</time>
      </trkpt>
      <trkpt lat="43.7332" lon="6.9518">
        <ele>982.40002441406</ele>
        <time>2010-12-12T08:28:42.000Z</time>
      </trkpt>
      <trkpt lat="43.73298" lon="6.95188">
        <ele>983.79998779297</ele>
        <time>2010-12-12T08:28:51.000Z</time>
      </trkpt>
      <trkpt lat="43.73286" lon="6.95188">
        <ele>986</ele>
        <time>2010-12-12T08:28:56.000Z</time>
      </trkpt>
      <trkpt lat="43.73259" lon="6.95182">
        <ele>991.79998779297</ele>
        <time>2010-12-12T08:29:07.000Z</time>
      </trkpt>
      <trkpt lat="43.73236" lon="6.9518">
        <ele>995.79998779297</ele>
        <time>2010-12-12T08:29:16.000Z</time>
      </trkpt>
      <trkpt lat="43.73217" lon="6.95175">
        <ele>999.40002441406</ele>
        <time>2010-12-12T08:29:24.000Z</time>
      </trkpt>
      <trkpt lat="43.73193" lon="6.95173">
        <ele>1003.200012207</ele>
        <time>2010-12-12T08:29:34.000Z</time>
      </trkpt>
      <trkpt lat="43.73177" lon="6.95183">
        <ele>1004.4000244141</ele>
        <time>2010-12-12T08:29:41.000Z</time>
      </trkpt>
      <trkpt lat="43.73169" lon="6.95201">
        <ele>1004.799987793</ele>
        <time>2010-12-12T08:29:48.000Z</time>
      </trkpt>
      <trkpt lat="43.73166" lon="6.95229">
        <ele>1004</ele>
        <time>2010-12-12T08:29:56.000Z</time>
      </trkpt>
      <trkpt lat="43.73166" lon="6.95256">
        <ele>1002.799987793</ele>
        <time>2010-12-12T08:30:04.000Z</time>
      </trkpt>
      <trkpt lat="43.7316" lon="6.95288">
        <ele>1002.4000244141</ele>
        <time>2010-12-12T08:30:14.000Z</time>
      </trkpt>
      <trkpt lat="43.73149" lon="6.95309">
        <ele>1003.4000244141</ele>
        <time>2010-12-12T08:30:22.000Z</time>
      </trkpt>
      <trkpt lat="43.73131" lon="6.95337">
        <ele>1004.200012207</ele>
        <time>2010-12-12T08:30:33.000Z</time>
      </trkpt>
      <trkpt lat="43.73118" lon="6.95345">
        <ele>1004.799987793</ele>
        <time>2010-12-12T08:30:39.000Z</time>
      </trkpt>
      <trkpt lat="43.7311" lon="6.95339">
        <ele>1007.4000244141</ele>
        <time>2010-12-12T08:30:43.000Z</time>
      </trkpt>
      <trkpt lat="43.73109" lon="6.95323">
        <ele>1009.5999755859</ele>
        <time>2010-12-12T08:30:48.000Z</time>
      </trkpt>
      <trkpt lat="43.73118" lon="6.953">
        <ele>1010</ele>
        <time>2010-12-12T08:30:56.000Z</time>
      </trkpt>
      <trkpt lat="43.73125" lon="6.95276">
        <ele>1010.5999755859</ele>
        <time>2010-12-12T08:31:04.000Z</time>
      </trkpt>
      <trkpt lat="43.7313" lon="6.95239">
        <ele>1012.4000244141</ele>
        <time>2010-12-12T08:31:15.000Z</time>
      </trkpt>
      <trkpt lat="43.73127" lon="6.95209">
        <ele>1014.5999755859</ele>
        <time>2010-12-12T08:31:24.000Z</time>
      </trkpt>
      <trkpt lat="43.7312" lon="6.95168">
        <ele>1018.5999755859</ele>
        <time>2010-12-12T08:31:37.000Z</time>
      </trkpt>
      <trkpt lat="43.73114" lon="6.95133">
        <ele>1023.799987793</ele>
        <time>2010-12-12T08:31:48.000Z</time>
      </trkpt>
      <trkpt lat="43.73115" lon="6.9511">
        <ele>1025.8000488281</ele>
        <time>2010-12-12T08:31:54.000Z</time>
      </trkpt>
      <trkpt lat="43.73123" lon="6.95093">
        <ele>1026.8000488281</ele>
        <time>2010-12-12T08:32:00.000Z</time>
      </trkpt>
      <trkpt lat="43.73138" lon="6.95084">
        <ele>1026.8000488281</ele>
        <time>2010-12-12T08:32:07.000Z</time>
      </trkpt>
      <trkpt lat="43.73161" lon="6.95084">
        <ele>1025.1999511719</ele>
        <time>2010-12-12T08:32:16.000Z</time>
      </trkpt>
      <trkpt lat="43.73187" lon="6.95084">
        <ele>1024</ele>
        <time>2010-12-12T08:32:27.000Z</time>
      </trkpt>
      <trkpt lat="43.73215" lon="6.95076">
        <ele>1025</ele>
        <time>2010-12-12T08:32:39.000Z</time>
      </trkpt>
      <trkpt lat="43.73243" lon="6.95061">
        <ele>1027.8000488281</ele>
        <time>2010-12-12T08:32:51.000Z</time>
      </trkpt>
      <trkpt lat="43.73265" lon="6.95042">
        <ele>1029.5999755859</ele>
        <time>2010-12-12T08:33:02.000Z</time>
      </trkpt>
      <trkpt lat="43.73277" lon="6.95031">
        <ele>1030.4000244141</ele>
        <time>2010-12-12T08:33:08.000Z</time>
      </trkpt>
      <trkpt lat="43.73299" lon="6.95007">
        <ele>1033.1999511719</ele>
        <time>2010-12-12T08:33:20.000Z</time>
      </trkpt>
      <trkpt lat="43.73317" lon="6.94985">
        <ele>1035.8000488281</ele>
        <time>2010-12-12T08:33:30.000Z</time>
      </trkpt>
      <trkpt lat="43.73335" lon="6.94964">
        <ele>1038.5999755859</ele>
        <time>2010-12-12T08:33:40.000Z</time>
      </trkpt>
      <trkpt lat="43.73357" lon="6.94945">
        <ele>1042.4000244141</ele>
        <time>2010-12-12T08:33:51.000Z</time>
      </trkpt>
      <trkpt lat="43.73375" lon="6.94935">
        <ele>1044.8000488281</ele>
        <time>2010-12-12T08:33:59.000Z</time>
      </trkpt>
      <trkpt lat="43.73397" lon="6.94931">
        <ele>1045.5999755859</ele>
        <time>2010-12-12T08:34:08.000Z</time>
      </trkpt>
      <trkpt lat="43.73423" lon="6.94931">
        <ele>1045.1999511719</ele>
        <time>2010-12-12T08:34:18.000Z</time>
      </trkpt>
      <trkpt lat="43.7345" lon="6.94931">
        <ele>1044.4000244141</ele>
        <time>2010-12-12T08:34:29.000Z</time>
      </trkpt>
      <trkpt lat="43.73478" lon="6.94927">
        <ele>1044.5999755859</ele>
        <time>2010-12-12T08:34:41.000Z</time>
      </trkpt>
      <trkpt lat="43.7351" lon="6.94921">
        <ele>1045.5999755859</ele>
        <time>2010-12-12T08:34:55.000Z</time>
      </trkpt>
      <trkpt lat="43.73532" lon="6.94911">
        <ele>1047.4000244141</ele>
        <time>2010-12-12T08:35:05.000Z</time>
      </trkpt>
      <trkpt lat="43.73557" lon="6.949">
        <ele>1049.1999511719</ele>
        <time>2010-12-12T08:35:16.000Z</time>
      </trkpt>
      <trkpt lat="43.7358" lon="6.9489">
        <ele>1050.5999755859</ele>
        <time>2010-12-12T08:35:26.000Z</time>
      </trkpt>
      <trkpt lat="43.73593" lon="6.94883">
        <ele>1050.5999755859</ele>
        <time>2010-12-12T08:35:32.000Z</time>
      </trkpt>
      <trkpt lat="43.73609" lon="6.94869">
        <ele>1052.4000244141</ele>
        <time>2010-12-12T08:35:40.000Z</time>
      </trkpt>
      <trkpt lat="43.73625" lon="6.9485">
        <ele>1055.1999511719</ele>
        <time>2010-12-12T08:35:49.000Z</time>
      </trkpt>
      <trkpt lat="43.7364" lon="6.94824">
        <ele>1059.4000244141</ele>
        <time>2010-12-12T08:35:59.000Z</time>
      </trkpt>
      <trkpt lat="43.73655" lon="6.94796">
        <ele>1063.5999755859</ele>
        <time>2010-12-12T08:36:10.000Z</time>
      </trkpt>
      <trkpt lat="43.73669" lon="6.94772">
        <ele>1067</ele>
        <time>2010-12-12T08:36:20.000Z</time>
      </trkpt>
      <trkpt lat="43.73683" lon="6.94751">
        <ele>1070.4000244141</ele>
        <time>2010-12-12T08:36:29.000Z</time>
      </trkpt>
      <trkpt lat="43.73695" lon="6.9473">
        <ele>1072.8000488281</ele>
        <time>2010-12-12T08:36:38.000Z</time>
      </trkpt>
      <trkpt lat="43.73713" lon="6.947">
        <ele>1075.1999511719</ele>
        <time>2010-12-12T08:36:50.000Z</time>
      </trkpt>
      <trkpt lat="43.73725" lon="6.94682">
        <ele>1076.1999511719</ele>
        <time>2010-12-12T08:36:58.000Z</time>
      </trkpt>
      <trkpt lat="43.73737" lon="6.94659">
        <ele>1076.1999511719</ele>
        <time>2010-12-12T08:37:07.000Z</time>
      </trkpt>
      <trkpt lat="43.73744" lon="6.9464">
        <ele>1075.1999511719</ele>
        <time>2010-12-12T08:37:14.000Z</time>
      </trkpt>
      <trkpt lat="43.73745" lon="6.94623">
        <ele>1075.8000488281</ele>
        <time>2010-12-12T08:37:19.000Z</time>
      </trkpt>
      <trkpt lat="43.7374" lon="6.94597">
        <ele>1078</ele>
        <time>2010-12-12T08:37:27.000Z</time>
      </trkpt>
      <trkpt lat="43.73731" lon="6.94578">
        <ele>1082</ele>
        <time>2010-12-12T08:37:34.000Z</time>
      </trkpt>
      <trkpt lat="43.7372" lon="6.94557">
        <ele>1087.1999511719</ele>
        <time>2010-12-12T08:37:42.000Z</time>
      </trkpt>
      <trkpt lat="43.7372" lon="6.94539">
        <ele>1089.1999511719</ele>
        <time>2010-12-12T08:37:48.000Z</time>
      </trkpt>
      <trkpt lat="43.73729" lon="6.94524">
        <ele>1089.1999511719</ele>
        <time>2010-12-12T08:37:54.000Z</time>
      </trkpt>
      <trkpt lat="43.73744" lon="6.94512">
        <ele>1088.5999755859</ele>
        <time>2010-12-12T08:38:02.000Z</time>
      </trkpt>
      <trkpt lat="43.73761" lon="6.94503">
        <ele>1089.5999755859</ele>
        <time>2010-12-12T08:38:10.000Z</time>
      </trkpt>
      <trkpt lat="43.73785" lon="6.945">
        <ele>1090.4000244141</ele>
        <time>2010-12-12T08:38:20.000Z</time>
      </trkpt>
      <trkpt lat="43.73805" lon="6.94504">
        <ele>1090</ele>
        <time>2010-12-12T08:38:28.000Z</time>
      </trkpt>
      <trkpt lat="43.73828" lon="6.9451">
        <ele>1089.4000244141</ele>
        <time>2010-12-12T08:38:38.000Z</time>
      </trkpt>
      <trkpt lat="43.73848" lon="6.94521">
        <ele>1090</ele>
        <time>2010-12-12T08:38:47.000Z</time>
      </trkpt>
      <trkpt lat="43.73868" lon="6.94537">
        <ele>1090.5999755859</ele>
        <time>2010-12-12T08:38:57.000Z</time>
      </trkpt>
      <trkpt lat="43.73888" lon="6.94543">
        <ele>1093</ele>
        <time>2010-12-12T08:39:06.000Z</time>
      </trkpt>
      <trkpt lat="43.739" lon="6.94543">
        <ele>1094.8000488281</ele>
        <time>2010-12-12T08:39:11.000Z</time>
      </trkpt>
      <trkpt lat="43.73914" lon="6.94545">
        <ele>1096.5999755859</ele>
        <time>2010-12-12T08:39:18.000Z</time>
      </trkpt>
      <trkpt lat="43.73928" lon="6.94545">
        <ele>1098.1999511719</ele>
        <time>2010-12-12T08:39:24.000Z</time>
      </trkpt>
      <trkpt lat="43.73947" lon="6.94544">
        <ele>1100</ele>
        <time>2010-12-12T08:39:31.000Z</time>
      </trkpt>
      <trkpt lat="43.73966" lon="6.94554">
        <ele>1101.1999511719</ele>
        <time>2010-12-12T08:39:39.000Z</time>
      </trkpt>
      <trkpt lat="43.73978" lon="6.94575">
        <ele>1102</ele>
        <time>2010-12-12T08:39:47.000Z</time>
      </trkpt>
      <trkpt lat="43.73976" lon="6.94595">
        <ele>1102</ele>
        <time>2010-12-12T08:39:53.000Z</time>
      </trkpt>
      <trkpt lat="43.73966" lon="6.94618">
        <ele>1101.1999511719</ele>
        <time>2010-12-12T08:40:01.000Z</time>
      </trkpt>
      <trkpt lat="43.73954" lon="6.94645">
        <ele>1100.4000244141</ele>
        <time>2010-12-12T08:40:10.000Z</time>
      </trkpt>
      <trkpt lat="43.73957" lon="6.94661">
        <ele>1101.5999755859</ele>
        <time>2010-12-12T08:40:15.000Z</time>
      </trkpt>
      <trkpt lat="43.73967" lon="6.94663">
        <ele>1103.1999511719</ele>
        <time>2010-12-12T08:40:19.000Z</time>
      </trkpt>
      <trkpt lat="43.73976" lon="6.94651">
        <ele>1104.1999511719</ele>
        <time>2010-12-12T08:40:24.000Z</time>
      </trkpt>
      <trkpt lat="43.73985" lon="6.94629">
        <ele>1104.5999755859</ele>
        <time>2010-12-12T08:40:31.000Z</time>
      </trkpt>
      <trkpt lat="43.74" lon="6.94609">
        <ele>1106.1999511719</ele>
        <time>2010-12-12T08:40:40.000Z</time>
      </trkpt>
      <trkpt lat="43.74015" lon="6.946">
        <ele>1107.4000244141</ele>
        <time>2010-12-12T08:40:47.000Z</time>
      </trkpt>
      <trkpt lat="43.74042" lon="6.946">
        <ele>1110.1999511719</ele>
        <time>2010-12-12T08:40:58.000Z</time>
      </trkpt>
      <trkpt lat="43.74062" lon="6.94595">
        <ele>1112</ele>
        <time>2010-12-12T08:41:06.000Z</time>
      </trkpt>
      <trkpt lat="43.7408" lon="6.94591">
        <ele>1113.8000488281</ele>
        <time>2010-12-12T08:41:13.000Z</time>
      </trkpt>
      <trkpt lat="43.74104" lon="6.94591">
        <ele>1115.4000244141</ele>
        <time>2010-12-12T08:41:23.000Z</time>
      </trkpt>
      <trkpt lat="43.74129" lon="6.9459">
        <ele>1116.8000488281</ele>
        <time>2010-12-12T08:41:33.000Z</time>
      </trkpt>
      <trkpt lat="43.74149" lon="6.94586">
        <ele>1117.8000488281</ele>
        <time>2010-12-12T08:41:41.000Z</time>
      </trkpt>
      <trkpt lat="43.74175" lon="6.94579">
        <ele>1118.8000488281</ele>
        <time>2010-12-12T08:41:51.000Z</time>
      </trkpt>
      <trkpt lat="43.74197" lon="6.94575">
        <ele>1118.4000244141</ele>
        <time>2010-12-12T08:41:59.000Z</time>
      </trkpt>
      <trkpt lat="43.74199" lon="6.94575">
        <ele>1118.4000244141</ele>
        <time>2010-12-12T08:42:00.000Z</time>
      </trkpt>
      <trkpt lat="43.74199" lon="6.94575">
        <ele>1118.4000244141</ele>
        <time>2010-12-12T08:42:00.000Z</time>
      </trkpt>
      <trkpt lat="43.74225" lon="6.94568">
        <ele>1117.8000488281</ele>
        <time>2010-12-12T08:42:07.000Z</time>
      </trkpt>
      <trkpt lat="43.7426" lon="6.94558">
        <ele>1116</ele>
        <time>2010-12-12T08:42:15.000Z</time>
      </trkpt>
      <trkpt lat="43.74281" lon="6.94554">
        <ele>1113.5999755859</ele>
        <time>2010-12-12T08:42:19.000Z</time>
      </trkpt>
      <trkpt lat="43.74299" lon="6.94555">
        <ele>1111.8000488281</ele>
        <time>2010-12-12T08:42:22.000Z</time>
      </trkpt>
      <trkpt lat="43.74332" lon="6.94571">
        <ele>1109.1999511719</ele>
        <time>2010-12-12T08:42:27.000Z</time>
      </trkpt>
      <trkpt lat="43.74349" lon="6.94594">
        <ele>1109.4000244141</ele>
        <time>2010-12-12T08:42:30.000Z</time>
      </trkpt>
      <trkpt lat="43.74363" lon="6.94621">
        <ele>1109.5999755859</ele>
        <time>2010-12-12T08:42:33.000Z</time>
      </trkpt>
      <trkpt lat="43.74388" lon="6.94639">
        <ele>1108.4000244141</ele>
        <time>2010-12-12T08:42:37.000Z</time>
      </trkpt>
      <trkpt lat="43.74408" lon="6.94632">
        <ele>1106.4000244141</ele>
        <time>2010-12-12T08:42:40.000Z</time>
      </trkpt>
      <trkpt lat="43.74422" lon="6.94614">
        <ele>1105</ele>
        <time>2010-12-12T08:42:43.000Z</time>
      </trkpt>
      <trkpt lat="43.74427" lon="6.94589">
        <ele>1104</ele>
        <time>2010-12-12T08:42:46.000Z</time>
      </trkpt>
      <trkpt lat="43.74425" lon="6.94572">
        <ele>1103.4000244141</ele>
        <time>2010-12-12T08:42:48.000Z</time>
      </trkpt>
      <trkpt lat="43.74405" lon="6.94494">
        <ele>1101.1999511719</ele>
        <time>2010-12-12T08:42:57.000Z</time>
      </trkpt>
      <trkpt lat="43.74381" lon="6.94444">
        <ele>1100</ele>
        <time>2010-12-12T08:43:03.000Z</time>
      </trkpt>
      <trkpt lat="43.74368" lon="6.94397">
        <ele>1098.8000488281</ele>
        <time>2010-12-12T08:43:08.000Z</time>
      </trkpt>
      <trkpt lat="43.74358" lon="6.94285">
        <ele>1097.5999755859</ele>
        <time>2010-12-12T08:43:20.000Z</time>
      </trkpt>
      <trkpt lat="43.74353" lon="6.94233">
        <ele>1097.5999755859</ele>
        <time>2010-12-12T08:43:26.000Z</time>
      </trkpt>
      <trkpt lat="43.74345" lon="6.94148">
        <ele>1095.1999511719</ele>
        <time>2010-12-12T08:43:36.000Z</time>
      </trkpt>
      <trkpt lat="43.74336" lon="6.94046">
        <ele>1093.4000244141</ele>
        <time>2010-12-12T08:43:47.000Z</time>
      </trkpt>
      <trkpt lat="43.7433" lon="6.93978">
        <ele>1094</ele>
        <time>2010-12-12T08:43:55.000Z</time>
      </trkpt>
      <trkpt lat="43.74322" lon="6.9391">
        <ele>1093.1999511719</ele>
        <time>2010-12-12T08:44:04.000Z</time>
      </trkpt>
      <trkpt lat="43.74314" lon="6.93837">
        <ele>1091.8000488281</ele>
        <time>2010-12-12T08:44:14.000Z</time>
      </trkpt>
      <trkpt lat="43.74313" lon="6.93778">
        <ele>1092.4000244141</ele>
        <time>2010-12-12T08:44:21.000Z</time>
      </trkpt>
      <trkpt lat="43.74312" lon="6.93712">
        <ele>1093</ele>
        <time>2010-12-12T08:44:29.000Z</time>
      </trkpt>
      <trkpt lat="43.74305" lon="6.93655">
        <ele>1093.5999755859</ele>
        <time>2010-12-12T08:44:37.000Z</time>
      </trkpt>
      <trkpt lat="43.74305" lon="6.936">
        <ele>1092.5999755859</ele>
        <time>2010-12-12T08:44:45.000Z</time>
      </trkpt>
      <trkpt lat="43.74304" lon="6.93537">
        <ele>1090.4000244141</ele>
        <time>2010-12-12T08:44:54.000Z</time>
      </trkpt>
      <trkpt lat="43.74294" lon="6.93454">
        <ele>1088</ele>
        <time>2010-12-12T08:45:05.000Z</time>
      </trkpt>
      <trkpt lat="43.74283" lon="6.93379">
        <ele>1086</ele>
        <time>2010-12-12T08:45:15.000Z</time>
      </trkpt>
      <trkpt lat="43.74278" lon="6.93317">
        <ele>1084.1999511719</ele>
        <time>2010-12-12T08:45:22.000Z</time>
      </trkpt>
      <trkpt lat="43.74273" lon="6.93263">
        <ele>1083</ele>
        <time>2010-12-12T08:45:27.000Z</time>
      </trkpt>
      <trkpt lat="43.74257" lon="6.93187">
        <ele>1084.1999511719</ele>
        <time>2010-12-12T08:45:34.000Z</time>
      </trkpt>
      <trkpt lat="43.74236" lon="6.93122">
        <ele>1084.5999755859</ele>
        <time>2010-12-12T08:45:41.000Z</time>
      </trkpt>
      <trkpt lat="43.74223" lon="6.93068">
        <ele>1084.1999511719</ele>
        <time>2010-12-12T08:45:47.000Z</time>
      </trkpt>
      <trkpt lat="43.74219" lon="6.9299">
        <ele>1084</ele>
        <time>2010-12-12T08:45:56.000Z</time>
      </trkpt>
      <trkpt lat="43.7422" lon="6.92877">
        <ele>1082</ele>
        <time>2010-12-12T08:46:09.000Z</time>
      </trkpt>
      <trkpt lat="43.7422" lon="6.92806">
        <ele>1081.4000244141</ele>
        <time>2010-12-12T08:46:17.000Z</time>
      </trkpt>
      <trkpt lat="43.74213" lon="6.92746">
        <ele>1081.1999511719</ele>
        <time>2010-12-12T08:46:24.000Z</time>
      </trkpt>
      <trkpt lat="43.74198" lon="6.92699">
        <ele>1081.1999511719</ele>
        <time>2010-12-12T08:46:30.000Z</time>
      </trkpt>
      <trkpt lat="43.74172" lon="6.92643">
        <ele>1080.4000244141</ele>
        <time>2010-12-12T08:46:38.000Z</time>
      </trkpt>
      <trkpt lat="43.7416" lon="6.92589">
        <ele>1079.5999755859</ele>
        <time>2010-12-12T08:46:45.000Z</time>
      </trkpt>
      <trkpt lat="43.74156" lon="6.92538">
        <ele>1079.1999511719</ele>
        <time>2010-12-12T08:46:52.000Z</time>
      </trkpt>
      <trkpt lat="43.74157" lon="6.92483">
        <ele>1078.8000488281</ele>
        <time>2010-12-12T08:46:59.000Z</time>
      </trkpt>
      <trkpt lat="43.74172" lon="6.92449">
        <ele>1078.4000244141</ele>
        <time>2010-12-12T08:47:04.000Z</time>
      </trkpt>
      <trkpt lat="43.74181" lon="6.92439">
        <ele>1078.5999755859</ele>
        <time>2010-12-12T08:47:06.000Z</time>
      </trkpt>
      <trkpt lat="43.742" lon="6.92421">
        <ele>1078.4000244141</ele>
        <time>2010-12-12T08:47:10.000Z</time>
      </trkpt>
      <trkpt lat="43.74214" lon="6.92388">
        <ele>1078.5999755859</ele>
        <time>2010-12-12T08:47:15.000Z</time>
      </trkpt>
      <trkpt lat="43.74216" lon="6.92371">
        <ele>1078.5999755859</ele>
        <time>2010-12-12T08:47:17.000Z</time>
      </trkpt>
      <trkpt lat="43.74213" lon="6.92295">
        <ele>1079.4000244141</ele>
        <time>2010-12-12T08:47:26.000Z</time>
      </trkpt>
      <trkpt lat="43.74208" lon="6.9222">
        <ele>1079.5999755859</ele>
        <time>2010-12-12T08:47:35.000Z</time>
      </trkpt>
      <trkpt lat="43.74204" lon="6.92146">
        <ele>1079.4000244141</ele>
        <time>2010-12-12T08:47:44.000Z</time>
      </trkpt>
      <trkpt lat="43.742" lon="6.92048">
        <ele>1079.1999511719</ele>
        <time>2010-12-12T08:47:56.000Z</time>
      </trkpt>
      <trkpt lat="43.74197" lon="6.91951">
        <ele>1077.5999755859</ele>
        <time>2010-12-12T08:48:08.000Z</time>
      </trkpt>
      <trkpt lat="43.74195" lon="6.91889">
        <ele>1077.8000488281</ele>
        <time>2010-12-12T08:48:16.000Z</time>
      </trkpt>
      <trkpt lat="43.7419" lon="6.91811">
        <ele>1078.4000244141</ele>
        <time>2010-12-12T08:48:26.000Z</time>
      </trkpt>
      <trkpt lat="43.74181" lon="6.91735">
        <ele>1077.1999511719</ele>
        <time>2010-12-12T08:48:36.000Z</time>
      </trkpt>
      <trkpt lat="43.74175" lon="6.91682">
        <ele>1075.5999755859</ele>
        <time>2010-12-12T08:48:43.000Z</time>
      </trkpt>
      <trkpt lat="43.74174" lon="6.91667">
        <ele>1075</ele>
        <time>2010-12-12T08:48:45.000Z</time>
      </trkpt>
      <trkpt lat="43.74174" lon="6.91594">
        <ele>1072.5999755859</ele>
        <time>2010-12-12T08:48:54.000Z</time>
      </trkpt>
      <trkpt lat="43.7418" lon="6.9154">
        <ele>1072.1999511719</ele>
        <time>2010-12-12T08:49:01.000Z</time>
      </trkpt>
      <trkpt lat="43.74195" lon="6.91497">
        <ele>1072.1999511719</ele>
        <time>2010-12-12T08:49:07.000Z</time>
      </trkpt>
      <trkpt lat="43.74223" lon="6.91439">
        <ele>1072.5999755859</ele>
        <time>2010-12-12T08:49:16.000Z</time>
      </trkpt>
      <trkpt lat="43.7424" lon="6.91405">
        <ele>1072.1999511719</ele>
        <time>2010-12-12T08:49:22.000Z</time>
      </trkpt>
      <trkpt lat="43.74268" lon="6.91361">
        <ele>1072.1999511719</ele>
        <time>2010-12-12T08:49:31.000Z</time>
      </trkpt>
      <trkpt lat="43.74302" lon="6.91319">
        <ele>1072.8000488281</ele>
        <time>2010-12-12T08:49:41.000Z</time>
      </trkpt>
      <trkpt lat="43.74337" lon="6.91279">
        <ele>1075</ele>
        <time>2010-12-12T08:49:51.000Z</time>
      </trkpt>
      <trkpt lat="43.74376" lon="6.91232">
        <ele>1077.8000488281</ele>
        <time>2010-12-12T08:50:02.000Z</time>
      </trkpt>
      <trkpt lat="43.74407" lon="6.91197">
        <ele>1078.8000488281</ele>
        <time>2010-12-12T08:50:12.000Z</time>
      </trkpt>
      <trkpt lat="43.74428" lon="6.91177">
        <ele>1079.5999755859</ele>
        <time>2010-12-12T08:50:19.000Z</time>
      </trkpt>
      <trkpt lat="43.7446" lon="6.91154">
        <ele>1081.5999755859</ele>
        <time>2010-12-12T08:50:29.000Z</time>
      </trkpt>
      <trkpt lat="43.74494" lon="6.9113">
        <ele>1084</ele>
        <time>2010-12-12T08:50:40.000Z</time>
      </trkpt>
      <trkpt lat="43.74513" lon="6.91118">
        <ele>1085.4000244141</ele>
        <time>2010-12-12T08:50:47.000Z</time>
      </trkpt>
      <trkpt lat="43.74532" lon="6.91107">
        <ele>1087</ele>
        <time>2010-12-12T08:50:55.000Z</time>
      </trkpt>
      <trkpt lat="43.74548" lon="6.91094">
        <ele>1088.4000244141</ele>
        <time>2010-12-12T08:51:03.000Z</time>
      </trkpt>
      <trkpt lat="43.74569" lon="6.91084">
        <ele>1089.8000488281</ele>
        <time>2010-12-12T08:51:12.000Z</time>
      </trkpt>
      <trkpt lat="43.7459" lon="6.91073">
        <ele>1092</ele>
        <time>2010-12-12T08:51:21.000Z</time>
      </trkpt>
      <trkpt lat="43.74612" lon="6.9106">
        <ele>1095.5999755859</ele>
        <time>2010-12-12T08:51:31.000Z</time>
      </trkpt>
      <trkpt lat="43.74629" lon="6.9105">
        <ele>1098.4000244141</ele>
        <time>2010-12-12T08:51:39.000Z</time>
      </trkpt>
      <trkpt lat="43.74648" lon="6.91045">
        <ele>1101.4000244141</ele>
        <time>2010-12-12T08:51:46.000Z</time>
      </trkpt>
      <trkpt lat="43.74662" lon="6.91046">
        <ele>1103.5999755859</ele>
        <time>2010-12-12T08:51:52.000Z</time>
      </trkpt>
      <trkpt lat="43.74678" lon="6.91048">
        <ele>1105.4000244141</ele>
        <time>2010-12-12T08:51:58.000Z</time>
      </trkpt>
      <trkpt lat="43.747" lon="6.91048">
        <ele>1107.1999511719</ele>
        <time>2010-12-12T08:52:06.000Z</time>
      </trkpt>
      <trkpt lat="43.74714" lon="6.91048">
        <ele>1108.4000244141</ele>
        <time>2010-12-12T08:52:12.000Z</time>
      </trkpt>
      <trkpt lat="43.74728" lon="6.91042">
        <ele>1109.5999755859</ele>
        <time>2010-12-12T08:52:18.000Z</time>
      </trkpt>
      <trkpt lat="43.74744" lon="6.91033">
        <ele>1110.5999755859</ele>
        <time>2010-12-12T08:52:26.000Z</time>
      </trkpt>
      <trkpt lat="43.74756" lon="6.91029">
        <ele>1111.1999511719</ele>
        <time>2010-12-12T08:52:31.000Z</time>
      </trkpt>
      <trkpt lat="43.74767" lon="6.91028">
        <ele>1111.4000244141</ele>
        <time>2010-12-12T08:52:37.000Z</time>
      </trkpt>
      <trkpt lat="43.74778" lon="6.91033">
        <ele>1112</ele>
        <time>2010-12-12T08:52:43.000Z</time>
      </trkpt>
      <trkpt lat="43.74795" lon="6.91049">
        <ele>1113.4000244141</ele>
        <time>2010-12-12T08:52:52.000Z</time>
      </trkpt>
      <trkpt lat="43.74804" lon="6.91061">
        <ele>1114.4000244141</ele>
        <time>2010-12-12T08:52:59.000Z</time>
      </trkpt>
      <trkpt lat="43.7481" lon="6.91074">
        <ele>1115.1999511719</ele>
        <time>2010-12-12T08:53:05.000Z</time>
      </trkpt>
      <trkpt lat="43.74819" lon="6.91094">
        <ele>1117</ele>
        <time>2010-12-12T08:53:15.000Z</time>
      </trkpt>
      <trkpt lat="43.74829" lon="6.91121">
        <ele>1119.8000488281</ele>
        <time>2010-12-12T08:53:28.000Z</time>
      </trkpt>
      <trkpt lat="43.74835" lon="6.91134">
        <ele>1121.4000244141</ele>
        <time>2010-12-12T08:53:35.000Z</time>
      </trkpt>
      <trkpt lat="43.74842" lon="6.91155">
        <ele>1124.4000244141</ele>
        <time>2010-12-12T08:53:45.000Z</time>
      </trkpt>
      <trkpt lat="43.7485" lon="6.91173">
        <ele>1127.5999755859</ele>
        <time>2010-12-12T08:53:54.000Z</time>
      </trkpt>
      <trkpt lat="43.74852" lon="6.91191">
        <ele>1130.4000244141</ele>
        <time>2010-12-12T08:54:02.000Z</time>
      </trkpt>
      <trkpt lat="43.74848" lon="6.91198">
        <ele>1130.8000488281</ele>
        <time>2010-12-12T08:54:06.000Z</time>
      </trkpt>
      <trkpt lat="43.74839" lon="6.9121">
        <ele>1131.4000244141</ele>
        <time>2010-12-12T08:54:13.000Z</time>
      </trkpt>
      <trkpt lat="43.74829" lon="6.91216">
        <ele>1131.1999511719</ele>
        <time>2010-12-12T08:54:20.000Z</time>
      </trkpt>
      <trkpt lat="43.7482" lon="6.91227">
        <ele>1131.8000488281</ele>
        <time>2010-12-12T08:54:28.000Z</time>
      </trkpt>
      <trkpt lat="43.74812" lon="6.91245">
        <ele>1133.4000244141</ele>
        <time>2010-12-12T08:54:37.000Z</time>
      </trkpt>
      <trkpt lat="43.74805" lon="6.91254">
        <ele>1133.5999755859</ele>
        <time>2010-12-12T08:54:43.000Z</time>
      </trkpt>
      <trkpt lat="43.74799" lon="6.91272">
        <ele>1135</ele>
        <time>2010-12-12T08:54:52.000Z</time>
      </trkpt>
      <trkpt lat="43.74791" lon="6.91286">
        <ele>1135.8000488281</ele>
        <time>2010-12-12T08:55:00.000Z</time>
      </trkpt>
      <trkpt lat="43.74784" lon="6.91304">
        <ele>1137.4000244141</ele>
        <time>2010-12-12T08:55:08.000Z</time>
      </trkpt>
      <trkpt lat="43.74774" lon="6.91322">
        <ele>1139</ele>
        <time>2010-12-12T08:55:16.000Z</time>
      </trkpt>
      <trkpt lat="43.74767" lon="6.91339">
        <ele>1140.5999755859</ele>
        <time>2010-12-12T08:55:24.000Z</time>
      </trkpt>
      <trkpt lat="43.74768" lon="6.91356">
        <ele>1141.8000488281</ele>
        <time>2010-12-12T08:55:30.000Z</time>
      </trkpt>
      <trkpt lat="43.74773" lon="6.91372">
        <ele>1143.1999511719</ele>
        <time>2010-12-12T08:55:36.000Z</time>
      </trkpt>
      <trkpt lat="43.74777" lon="6.91393">
        <ele>1144.8000488281</ele>
        <time>2010-12-12T08:55:44.000Z</time>
      </trkpt>
      <trkpt lat="43.74771" lon="6.91422">
        <ele>1146.4000244141</ele>
        <time>2010-12-12T08:55:53.000Z</time>
      </trkpt>
      <trkpt lat="43.74766" lon="6.91445">
        <ele>1147</ele>
        <time>2010-12-12T08:55:59.000Z</time>
      </trkpt>
      <trkpt lat="43.7476" lon="6.91479">
        <ele>1147.8000488281</ele>
        <time>2010-12-12T08:56:07.000Z</time>
      </trkpt>
      <trkpt lat="43.74758" lon="6.91516">
        <ele>1148.8000488281</ele>
        <time>2010-12-12T08:56:15.000Z</time>
      </trkpt>
      <trkpt lat="43.74765" lon="6.91561">
        <ele>1150.5999755859</ele>
        <time>2010-12-12T08:56:24.000Z</time>
      </trkpt>
      <trkpt lat="43.74778" lon="6.91584">
        <ele>1152.1999511719</ele>
        <time>2010-12-12T08:56:30.000Z</time>
      </trkpt>
      <trkpt lat="43.748" lon="6.91598">
        <ele>1155.4000244141</ele>
        <time>2010-12-12T08:56:38.000Z</time>
      </trkpt>
      <trkpt lat="43.74824" lon="6.91605">
        <ele>1158.1999511719</ele>
        <time>2010-12-12T08:56:48.000Z</time>
      </trkpt>
      <trkpt lat="43.74838" lon="6.91609">
        <ele>1160</ele>
        <time>2010-12-12T08:56:55.000Z</time>
      </trkpt>
      <trkpt lat="43.74849" lon="6.91617">
        <ele>1161.8000488281</ele>
        <time>2010-12-12T08:57:01.000Z</time>
      </trkpt>
      <trkpt lat="43.74862" lon="6.91628">
        <ele>1164</ele>
        <time>2010-12-12T08:57:08.000Z</time>
      </trkpt>
      <trkpt lat="43.74877" lon="6.91645">
        <ele>1167.4000244141</ele>
        <time>2010-12-12T08:57:18.000Z</time>
      </trkpt>
      <trkpt lat="43.7489" lon="6.91658">
        <ele>1170.1999511719</ele>
        <time>2010-12-12T08:57:26.000Z</time>
      </trkpt>
      <trkpt lat="43.74901" lon="6.91671">
        <ele>1172.4000244141</ele>
        <time>2010-12-12T08:57:33.000Z</time>
      </trkpt>
      <trkpt lat="43.74918" lon="6.91681">
        <ele>1175</ele>
        <time>2010-12-12T08:57:41.000Z</time>
      </trkpt>
      <trkpt lat="43.74929" lon="6.91677">
        <ele>1176.8000488281</ele>
        <time>2010-12-12T08:57:46.000Z</time>
      </trkpt>
      <trkpt lat="43.74944" lon="6.91671">
        <ele>1178.8000488281</ele>
        <time>2010-12-12T08:57:52.000Z</time>
      </trkpt>
      <trkpt lat="43.74955" lon="6.91673">
        <ele>1181</ele>
        <time>2010-12-12T08:57:57.000Z</time>
      </trkpt>
      <trkpt lat="43.74959" lon="6.91683">
        <ele>1182.8000488281</ele>
        <time>2010-12-12T08:58:01.000Z</time>
      </trkpt>
      <trkpt lat="43.74955" lon="6.91701">
        <ele>1183.8000488281</ele>
        <time>2010-12-12T08:58:06.000Z</time>
      </trkpt>
      <trkpt lat="43.7494" lon="6.91722">
        <ele>1182.5999755859</ele>
        <time>2010-12-12T08:58:15.000Z</time>
      </trkpt>
      <trkpt lat="43.74929" lon="6.91743">
        <ele>1181.5999755859</ele>
        <time>2010-12-12T08:58:23.000Z</time>
      </trkpt>
      <trkpt lat="43.74927" lon="6.91763">
        <ele>1182.1999511719</ele>
        <time>2010-12-12T08:58:29.000Z</time>
      </trkpt>
      <trkpt lat="43.74928" lon="6.918">
        <ele>1184</ele>
        <time>2010-12-12T08:58:40.000Z</time>
      </trkpt>
      <trkpt lat="43.74933" lon="6.91828">
        <ele>1186.8000488281</ele>
        <time>2010-12-12T08:58:49.000Z</time>
      </trkpt>
      <trkpt lat="43.74941" lon="6.91861">
        <ele>1190.4000244141</ele>
        <time>2010-12-12T08:59:01.000Z</time>
      </trkpt>
      <trkpt lat="43.74949" lon="6.91886">
        <ele>1194</ele>
        <time>2010-12-12T08:59:10.000Z</time>
      </trkpt>
      <trkpt lat="43.7496" lon="6.91918">
        <ele>1199.1999511719</ele>
        <time>2010-12-12T08:59:22.000Z</time>
      </trkpt>
      <trkpt lat="43.74965" lon="6.91939">
        <ele>1201.5999755859</ele>
        <time>2010-12-12T08:59:30.000Z</time>
      </trkpt>
      <trkpt lat="43.74968" lon="6.91972">
        <ele>1202.8000488281</ele>
        <time>2010-12-12T08:59:41.000Z</time>
      </trkpt>
      <trkpt lat="43.74967" lon="6.91987">
        <ele>1202.8000488281</ele>
        <time>2010-12-12T08:59:46.000Z</time>
      </trkpt>
      <trkpt lat="43.74967" lon="6.92008">
        <ele>1202.5999755859</ele>
        <time>2010-12-12T08:59:53.000Z</time>
      </trkpt>
      <trkpt lat="43.74964" lon="6.92038">
        <ele>1201.4000244141</ele>
        <time>2010-12-12T09:00:02.000Z</time>
      </trkpt>
      <trkpt lat="43.74967" lon="6.92063">
        <ele>1202.5999755859</ele>
        <time>2010-12-12T09:00:10.000Z</time>
      </trkpt>
      <trkpt lat="43.74977" lon="6.92071">
        <ele>1207.5999755859</ele>
        <time>2010-12-12T09:00:15.000Z</time>
      </trkpt>
      <trkpt lat="43.74985" lon="6.92066">
        <ele>1211.1999511719</ele>
        <time>2010-12-12T09:00:19.000Z</time>
      </trkpt>
      <trkpt lat="43.74989" lon="6.92049">
        <ele>1213</ele>
        <time>2010-12-12T09:00:25.000Z</time>
      </trkpt>
      <trkpt lat="43.74993" lon="6.92022">
        <ele>1214.5999755859</ele>
        <time>2010-12-12T09:00:34.000Z</time>
      </trkpt>
      <trkpt lat="43.74994" lon="6.91997">
        <ele>1215.1999511719</ele>
        <time>2010-12-12T09:00:42.000Z</time>
      </trkpt>
      <trkpt lat="43.74996" lon="6.91967">
        <ele>1215.1999511719</ele>
        <time>2010-12-12T09:00:51.000Z</time>
      </trkpt>
      <trkpt lat="43.75" lon="6.91934">
        <ele>1216.1999511719</ele>
        <time>2010-12-12T09:01:01.000Z</time>
      </trkpt>
      <trkpt lat="43.75001" lon="6.91907">
        <ele>1216</ele>
        <time>2010-12-12T09:01:09.000Z</time>
      </trkpt>
      <trkpt lat="43.74999" lon="6.91882">
        <ele>1214.4000244141</ele>
        <time>2010-12-12T09:01:17.000Z</time>
      </trkpt>
      <trkpt lat="43.74998" lon="6.91856">
        <ele>1213</ele>
        <time>2010-12-12T09:01:25.000Z</time>
      </trkpt>
      <trkpt lat="43.75006" lon="6.91841">
        <ele>1215.4000244141</ele>
        <time>2010-12-12T09:01:31.000Z</time>
      </trkpt>
      <trkpt lat="43.75015" lon="6.91845">
        <ele>1219</ele>
        <time>2010-12-12T09:01:35.000Z</time>
      </trkpt>
      <trkpt lat="43.75019" lon="6.91851">
        <ele>1220.4000244141</ele>
        <time>2010-12-12T09:01:37.000Z</time>
      </trkpt>
      <trkpt lat="43.75018" lon="6.91884">
        <ele>1221.4000244141</ele>
        <time>2010-12-12T09:01:46.000Z</time>
      </trkpt>
      <trkpt lat="43.75018" lon="6.91913">
        <ele>1222.1999511719</ele>
        <time>2010-12-12T09:01:55.000Z</time>
      </trkpt>
      <trkpt lat="43.75019" lon="6.91944">
        <ele>1223.5999755859</ele>
        <time>2010-12-12T09:02:04.000Z</time>
      </trkpt>
      <trkpt lat="43.75021" lon="6.91967">
        <ele>1225.1999511719</ele>
        <time>2010-12-12T09:02:11.000Z</time>
      </trkpt>
      <trkpt lat="43.75024" lon="6.91988">
        <ele>1226.8000488281</ele>
        <time>2010-12-12T09:02:18.000Z</time>
      </trkpt>
      <trkpt lat="43.75027" lon="6.92008">
        <ele>1228.8000488281</ele>
        <time>2010-12-12T09:02:26.000Z</time>
      </trkpt>
      <trkpt lat="43.75029" lon="6.9203">
        <ele>1229.5999755859</ele>
        <time>2010-12-12T09:02:34.000Z</time>
      </trkpt>
      <trkpt lat="43.75033" lon="6.92059">
        <ele>1232.1999511719</ele>
        <time>2010-12-12T09:02:44.000Z</time>
      </trkpt>
      <trkpt lat="43.75037" lon="6.92082">
        <ele>1234.4000244141</ele>
        <time>2010-12-12T09:02:52.000Z</time>
      </trkpt>
      <trkpt lat="43.75046" lon="6.92118">
        <ele>1236.5999755859</ele>
        <time>2010-12-12T09:03:05.000Z</time>
      </trkpt>
      <trkpt lat="43.75052" lon="6.92147">
        <ele>1237.8000488281</ele>
        <time>2010-12-12T09:03:15.000Z</time>
      </trkpt>
      <trkpt lat="43.75057" lon="6.92179">
        <ele>1239</ele>
        <time>2010-12-12T09:03:25.000Z</time>
      </trkpt>
      <trkpt lat="43.75059" lon="6.922">
        <ele>1239.5999755859</ele>
        <time>2010-12-12T09:03:32.000Z</time>
      </trkpt>
      <trkpt lat="43.75061" lon="6.92227">
        <ele>1240.5999755859</ele>
        <time>2010-12-12T09:03:41.000Z</time>
      </trkpt>
      <trkpt lat="43.75062" lon="6.92255">
        <ele>1241.1999511719</ele>
        <time>2010-12-12T09:03:51.000Z</time>
      </trkpt>
      <trkpt lat="43.75063" lon="6.92287">
        <ele>1243</ele>
        <time>2010-12-12T09:04:02.000Z</time>
      </trkpt>
      <trkpt lat="43.75066" lon="6.92317">
        <ele>1245.4000244141</ele>
        <time>2010-12-12T09:04:12.000Z</time>
      </trkpt>
      <trkpt lat="43.7507" lon="6.92345">
        <ele>1247.8000488281</ele>
        <time>2010-12-12T09:04:22.000Z</time>
      </trkpt>
      <trkpt lat="43.75072" lon="6.9237">
        <ele>1249.1999511719</ele>
        <time>2010-12-12T09:04:31.000Z</time>
      </trkpt>
      <trkpt lat="43.75074" lon="6.92393">
        <ele>1250.5999755859</ele>
        <time>2010-12-12T09:04:39.000Z</time>
      </trkpt>
      <trkpt lat="43.75079" lon="6.92415">
        <ele>1253.5999755859</ele>
        <time>2010-12-12T09:04:47.000Z</time>
      </trkpt>
      <trkpt lat="43.75084" lon="6.92432">
        <ele>1255.5999755859</ele>
        <time>2010-12-12T09:04:53.000Z</time>
      </trkpt>
      <trkpt lat="43.75097" lon="6.92449">
        <ele>1257.1999511719</ele>
        <time>2010-12-12T09:05:02.000Z</time>
      </trkpt>
      <trkpt lat="43.75111" lon="6.92457">
        <ele>1259</ele>
        <time>2010-12-12T09:05:10.000Z</time>
      </trkpt>
      <trkpt lat="43.75114" lon="6.92459">
        <ele>1259.4000244141</ele>
        <time>2010-12-12T09:05:12.000Z</time>
      </trkpt>
      <trkpt lat="43.75122" lon="6.92458">
        <ele>1260.5999755859</ele>
        <time>2010-12-12T09:05:16.000Z</time>
      </trkpt>
      <trkpt lat="43.75137" lon="6.92454">
        <ele>1263</ele>
        <time>2010-12-12T09:05:24.000Z</time>
      </trkpt>
      <trkpt lat="43.75145" lon="6.9245">
        <ele>1264</ele>
        <time>2010-12-12T09:05:30.000Z</time>
      </trkpt>
      <trkpt lat="43.75148" lon="6.92451">
        <ele>1264.5999755859</ele>
        <time>2010-12-12T09:05:36.000Z</time>
      </trkpt>
      <trkpt lat="43.75149" lon="6.92452">
        <ele>1264.8000488281</ele>
        <time>2010-12-12T09:05:37.000Z</time>
      </trkpt>
      <trkpt lat="43.75155" lon="6.92459">
        <ele>1265.8000488281</ele>
        <time>2010-12-12T09:05:44.000Z</time>
      </trkpt>
      <trkpt lat="43.7516" lon="6.92465">
        <ele>1266.5999755859</ele>
        <time>2010-12-12T09:05:54.000Z</time>
      </trkpt>
      <trkpt lat="43.75159" lon="6.92469">
        <ele>1266.4000244141</ele>
        <time>2010-12-12T09:05:59.000Z</time>
      </trkpt>
      <trkpt lat="43.7516" lon="6.92469">
        <ele>1266.5999755859</ele>
        <time>2010-12-12T09:06:04.000Z</time>
      </trkpt>
      <trkpt lat="43.75162" lon="6.92472">
        <ele>1266.8000488281</ele>
        <time>2010-12-12T09:06:10.000Z</time>
      </trkpt>
      <trkpt lat="43.75161" lon="6.9247">
        <ele>1266.8000488281</ele>
        <time>2010-12-12T09:06:33.000Z</time>
      </trkpt>
      <trkpt lat="43.75159" lon="6.92468">
        <ele>1266.1999511719</ele>
        <time>2010-12-12T09:06:39.000Z</time>
      </trkpt>
      <trkpt lat="43.75158" lon="6.92468">
        <ele>1266.1999511719</ele>
        <time>2010-12-12T09:06:44.000Z</time>
      </trkpt>
      <trkpt lat="43.75158" lon="6.92468">
        <ele>1266.1999511719</ele>
        <time>2010-12-12T09:06:50.000Z</time>
      </trkpt>
      <trkpt lat="43.75159" lon="6.92468">
        <ele>1266.4000244141</ele>
        <time>2010-12-12T09:07:00.000Z</time>
      </trkpt>
      <trkpt lat="43.75159" lon="6.92467">
        <ele>1266.1999511719</ele>
        <time>2010-12-12T09:07:06.000Z</time>
      </trkpt>
      <trkpt lat="43.75158" lon="6.92468">
        <ele>1266.1999511719</ele>
        <time>2010-12-12T09:07:15.000Z</time>
      </trkpt>
      <trkpt lat="43.75158" lon="6.92467">
        <ele>1266.1999511719</ele>
        <time>2010-12-12T09:07:25.000Z</time>
      </trkpt>
      <trkpt lat="43.75157" lon="6.92466">
        <ele>1266</ele>
        <time>2010-12-12T09:07:34.000Z</time>
      </trkpt>
      <trkpt lat="43.75157" lon="6.92464">
        <ele>1266</ele>
        <time>2010-12-12T09:07:46.000Z</time>
      </trkpt>
      <trkpt lat="43.75156" lon="6.92464">
        <ele>1266</ele>
        <time>2010-12-12T09:07:58.000Z</time>
      </trkpt>
      <trkpt lat="43.75157" lon="6.92464">
        <ele>1266</ele>
        <time>2010-12-12T09:08:17.000Z</time>
      </trkpt>
      <trkpt lat="43.75158" lon="6.92466">
        <ele>1266.1999511719</ele>
        <time>2010-12-12T09:08:24.000Z</time>
      </trkpt>
      <trkpt lat="43.75158" lon="6.92463">
        <ele>1266.1999511719</ele>
        <time>2010-12-12T09:08:33.000Z</time>
      </trkpt>
      <trkpt lat="43.75158" lon="6.92463">
        <ele>1266</ele>
        <time>2010-12-12T09:08:44.000Z</time>
      </trkpt>
      <trkpt lat="43.75157" lon="6.92463">
        <ele>1266</ele>
        <time>2010-12-12T09:08:51.000Z</time>
      </trkpt>
      <trkpt lat="43.75156" lon="6.92464">
        <ele>1265.8000488281</ele>
        <time>2010-12-12T09:10:18.000Z</time>
      </trkpt>
      <trkpt lat="43.75156" lon="6.92464">
        <ele>1265.8000488281</ele>
        <time>2010-12-12T09:10:19.000Z</time>
      </trkpt>
      <trkpt lat="43.75156" lon="6.92461">
        <ele>1265.8000488281</ele>
        <time>2010-12-12T09:10:20.000Z</time>
      </trkpt>
      <trkpt lat="43.75166" lon="6.92457">
        <ele>1267.1999511719</ele>
        <time>2010-12-12T09:10:25.000Z</time>
      </trkpt>
      <trkpt lat="43.7518" lon="6.92453">
        <ele>1266.8000488281</ele>
        <time>2010-12-12T09:10:29.000Z</time>
      </trkpt>
      <trkpt lat="43.75194" lon="6.92455">
        <ele>1266.4000244141</ele>
        <time>2010-12-12T09:10:33.000Z</time>
      </trkpt>
      <trkpt lat="43.75213" lon="6.92462">
        <ele>1265.8000488281</ele>
        <time>2010-12-12T09:10:40.000Z</time>
      </trkpt>
      <trkpt lat="43.75231" lon="6.92467">
        <ele>1265</ele>
        <time>2010-12-12T09:10:47.000Z</time>
      </trkpt>
      <trkpt lat="43.7525" lon="6.92462">
        <ele>1264.4000244141</ele>
        <time>2010-12-12T09:10:53.000Z</time>
      </trkpt>
      <trkpt lat="43.7527" lon="6.92445">
        <ele>1265</ele>
        <time>2010-12-12T09:10:58.000Z</time>
      </trkpt>
      <trkpt lat="43.75278" lon="6.92437">
        <ele>1265.1999511719</ele>
        <time>2010-12-12T09:11:00.000Z</time>
      </trkpt>
      <trkpt lat="43.75299" lon="6.92418">
        <ele>1265.4000244141</ele>
        <time>2010-12-12T09:11:07.000Z</time>
      </trkpt>
      <trkpt lat="43.75312" lon="6.92402">
        <ele>1265.5999755859</ele>
        <time>2010-12-12T09:11:15.000Z</time>
      </trkpt>
      <trkpt lat="43.7532" lon="6.92388">
        <ele>1265.8000488281</ele>
        <time>2010-12-12T09:11:20.000Z</time>
      </trkpt>
      <trkpt lat="43.75331" lon="6.92383">
        <ele>1265.8000488281</ele>
        <time>2010-12-12T09:11:24.000Z</time>
      </trkpt>
      <trkpt lat="43.75342" lon="6.9238">
        <ele>1265.8000488281</ele>
        <time>2010-12-12T09:11:28.000Z</time>
      </trkpt>
      <trkpt lat="43.75346" lon="6.92391">
        <ele>1265.8000488281</ele>
        <time>2010-12-12T09:11:32.000Z</time>
      </trkpt>
      <trkpt lat="43.75346" lon="6.92394">
        <ele>1265.8000488281</ele>
        <time>2010-12-12T09:11:33.000Z</time>
      </trkpt>
      <trkpt lat="43.75341" lon="6.92417">
        <ele>1266</ele>
        <time>2010-12-12T09:11:42.000Z</time>
      </trkpt>
      <trkpt lat="43.7534" lon="6.92424">
        <ele>1266</ele>
        <time>2010-12-12T09:11:46.000Z</time>
      </trkpt>
      <trkpt lat="43.75346" lon="6.92431">
        <ele>1266</ele>
        <time>2010-12-12T09:11:52.000Z</time>
      </trkpt>
      <trkpt lat="43.75351" lon="6.92433">
        <ele>1266</ele>
        <time>2010-12-12T09:11:54.000Z</time>
      </trkpt>
      <trkpt lat="43.75358" lon="6.92435">
        <ele>1266</ele>
        <time>2010-12-12T09:11:57.000Z</time>
      </trkpt>
      <trkpt lat="43.75361" lon="6.9245">
        <ele>1266</ele>
        <time>2010-12-12T09:12:02.000Z</time>
      </trkpt>
      <trkpt lat="43.75363" lon="6.92479">
        <ele>1265.8000488281</ele>
        <time>2010-12-12T09:12:11.000Z</time>
      </trkpt>
      <trkpt lat="43.75368" lon="6.92506">
        <ele>1265.8000488281</ele>
        <time>2010-12-12T09:12:20.000Z</time>
      </trkpt>
      <trkpt lat="43.75374" lon="6.92524">
        <ele>1265.8000488281</ele>
        <time>2010-12-12T09:12:25.000Z</time>
      </trkpt>
      <trkpt lat="43.75378" lon="6.92549">
        <ele>1266.1999511719</ele>
        <time>2010-12-12T09:12:30.000Z</time>
      </trkpt>
      <trkpt lat="43.75379" lon="6.92575">
        <ele>1266.5999755859</ele>
        <time>2010-12-12T09:12:36.000Z</time>
      </trkpt>
      <trkpt lat="43.75383" lon="6.92589">
        <ele>1266.5999755859</ele>
        <time>2010-12-12T09:12:41.000Z</time>
      </trkpt>
      <trkpt lat="43.75384" lon="6.9259">
        <ele>1266.5999755859</ele>
        <time>2010-12-12T09:12:42.000Z</time>
      </trkpt>
      <trkpt lat="43.75385" lon="6.9259">
        <ele>1266.5999755859</ele>
        <time>2010-12-12T09:12:49.000Z</time>
      </trkpt>
      <trkpt lat="43.75386" lon="6.92591">
        <ele>1266.5999755859</ele>
        <time>2010-12-12T09:13:09.000Z</time>
      </trkpt>
      <trkpt lat="43.75398" lon="6.926">
        <ele>1266.1999511719</ele>
        <time>2010-12-12T09:13:15.000Z</time>
      </trkpt>
      <trkpt lat="43.75415" lon="6.9261">
        <ele>1265.8000488281</ele>
        <time>2010-12-12T09:13:20.000Z</time>
      </trkpt>
      <trkpt lat="43.75424" lon="6.92627">
        <ele>1266</ele>
        <time>2010-12-12T09:13:24.000Z</time>
      </trkpt>
      <trkpt lat="43.75431" lon="6.92646">
        <ele>1266</ele>
        <time>2010-12-12T09:13:28.000Z</time>
      </trkpt>
      <trkpt lat="43.75432" lon="6.92674">
        <ele>1266.5999755859</ele>
        <time>2010-12-12T09:13:34.000Z</time>
      </trkpt>
      <trkpt lat="43.75438" lon="6.92694">
        <ele>1266.1999511719</ele>
        <time>2010-12-12T09:13:39.000Z</time>
      </trkpt>
      <trkpt lat="43.75452" lon="6.9273">
        <ele>1265.1999511719</ele>
        <time>2010-12-12T09:13:47.000Z</time>
      </trkpt>
      <trkpt lat="43.7546" lon="6.92758">
        <ele>1265</ele>
        <time>2010-12-12T09:13:52.000Z</time>
      </trkpt>
      <trkpt lat="43.75477" lon="6.92779">
        <ele>1264</ele>
        <time>2010-12-12T09:13:56.000Z</time>
      </trkpt>
      <trkpt lat="43.75498" lon="6.92805">
        <ele>1262.8000488281</ele>
        <time>2010-12-12T09:14:00.000Z</time>
      </trkpt>
      <trkpt lat="43.75513" lon="6.9281">
        <ele>1261.8000488281</ele>
        <time>2010-12-12T09:14:03.000Z</time>
      </trkpt>
      <trkpt lat="43.75517" lon="6.9281">
        <ele>1261.4000244141</ele>
        <time>2010-12-12T09:14:04.000Z</time>
      </trkpt>
      <trkpt lat="43.75542" lon="6.92805">
        <ele>1259.8000488281</ele>
        <time>2010-12-12T09:14:12.000Z</time>
      </trkpt>
      <trkpt lat="43.75561" lon="6.92793">
        <ele>1258.4000244141</ele>
        <time>2010-12-12T09:14:18.000Z</time>
      </trkpt>
      <trkpt lat="43.7558" lon="6.9278">
        <ele>1257.1999511719</ele>
        <time>2010-12-12T09:14:25.000Z</time>
      </trkpt>
      <trkpt lat="43.75584" lon="6.9278">
        <ele>1256.8000488281</ele>
        <time>2010-12-12T09:14:31.000Z</time>
      </trkpt>
      <trkpt lat="43.75582" lon="6.92781">
        <ele>1257</ele>
        <time>2010-12-12T09:14:39.000Z</time>
      </trkpt>
      <trkpt lat="43.7558" lon="6.92779">
        <ele>1257</ele>
        <time>2010-12-12T09:14:45.000Z</time>
      </trkpt>
      <trkpt lat="43.75579" lon="6.9278">
        <ele>1257.1999511719</ele>
        <time>2010-12-12T09:14:51.000Z</time>
      </trkpt>
      <trkpt lat="43.75577" lon="6.92781">
        <ele>1257.1999511719</ele>
        <time>2010-12-12T09:14:56.000Z</time>
      </trkpt>
      <trkpt lat="43.75574" lon="6.92782">
        <ele>1257.5999755859</ele>
        <time>2010-12-12T09:14:58.000Z</time>
      </trkpt>
      <trkpt lat="43.7557" lon="6.92783">
        <ele>1257.8000488281</ele>
        <time>2010-12-12T09:15:03.000Z</time>
      </trkpt>
      <trkpt lat="43.75571" lon="6.92783">
        <ele>1257.8000488281</ele>
        <time>2010-12-12T09:15:10.000Z</time>
      </trkpt>
      <trkpt lat="43.75572" lon="6.92782">
        <ele>1257.5999755859</ele>
        <time>2010-12-12T09:15:12.000Z</time>
      </trkpt>
      <trkpt lat="43.75584" lon="6.92778">
        <ele>1256.8000488281</ele>
        <time>2010-12-12T09:15:18.000Z</time>
      </trkpt>
      <trkpt lat="43.75599" lon="6.92775">
        <ele>1256.8000488281</ele>
        <time>2010-12-12T09:15:23.000Z</time>
      </trkpt>
      <trkpt lat="43.75621" lon="6.92773">
        <ele>1256.5999755859</ele>
        <time>2010-12-12T09:15:30.000Z</time>
      </trkpt>
      <trkpt lat="43.75634" lon="6.92777">
        <ele>1256.4000244141</ele>
        <time>2010-12-12T09:15:36.000Z</time>
      </trkpt>
      <trkpt lat="43.75643" lon="6.92793">
        <ele>1255.8000488281</ele>
        <time>2010-12-12T09:15:41.000Z</time>
      </trkpt>
      <trkpt lat="43.75652" lon="6.92817">
        <ele>1255</ele>
        <time>2010-12-12T09:15:46.000Z</time>
      </trkpt>
      <trkpt lat="43.75664" lon="6.92837">
        <ele>1254.1999511719</ele>
        <time>2010-12-12T09:15:52.000Z</time>
      </trkpt>
      <trkpt lat="43.75673" lon="6.9285">
        <ele>1254</ele>
        <time>2010-12-12T09:15:56.000Z</time>
      </trkpt>
      <trkpt lat="43.75679" lon="6.92863">
        <ele>1254</ele>
        <time>2010-12-12T09:15:59.000Z</time>
      </trkpt>
      <trkpt lat="43.75681" lon="6.92871">
        <ele>1254</ele>
        <time>2010-12-12T09:16:01.000Z</time>
      </trkpt>
      <trkpt lat="43.75691" lon="6.92877">
        <ele>1253.5999755859</ele>
        <time>2010-12-12T09:16:05.000Z</time>
      </trkpt>
      <trkpt lat="43.75694" lon="6.92875">
        <ele>1253.4000244141</ele>
        <time>2010-12-12T09:16:06.000Z</time>
      </trkpt>
      <trkpt lat="43.75712" lon="6.92874">
        <ele>1252.4000244141</ele>
        <time>2010-12-12T09:16:11.000Z</time>
      </trkpt>
      <trkpt lat="43.75722" lon="6.9289">
        <ele>1251.8000488281</ele>
        <time>2010-12-12T09:16:16.000Z</time>
      </trkpt>
      <trkpt lat="43.75725" lon="6.929">
        <ele>1251.8000488281</ele>
        <time>2010-12-12T09:16:18.000Z</time>
      </trkpt>
      <trkpt lat="43.75745" lon="6.92903">
        <ele>1250.4000244141</ele>
        <time>2010-12-12T09:16:24.000Z</time>
      </trkpt>
      <trkpt lat="43.75759" lon="6.929">
        <ele>1249.4000244141</ele>
        <time>2010-12-12T09:16:30.000Z</time>
      </trkpt>
      <trkpt lat="43.75774" lon="6.92899">
        <ele>1248</ele>
        <time>2010-12-12T09:16:37.000Z</time>
      </trkpt>
      <trkpt lat="43.75778" lon="6.92899">
        <ele>1247.5999755859</ele>
        <time>2010-12-12T09:16:41.000Z</time>
      </trkpt>
      <trkpt lat="43.75778" lon="6.92899">
        <ele>1247.5999755859</ele>
        <time>2010-12-12T09:16:51.000Z</time>
      </trkpt>
      <trkpt lat="43.75779" lon="6.929">
        <ele>1247.4000244141</ele>
        <time>2010-12-12T09:16:55.000Z</time>
      </trkpt>
      <trkpt lat="43.7578" lon="6.929">
        <ele>1247.4000244141</ele>
        <time>2010-12-12T09:16:58.000Z</time>
      </trkpt>
      <trkpt lat="43.75794" lon="6.9291">
        <ele>1246.1999511719</ele>
        <time>2010-12-12T09:17:03.000Z</time>
      </trkpt>
      <trkpt lat="43.75803" lon="6.92932">
        <ele>1245.4000244141</ele>
        <time>2010-12-12T09:17:07.000Z</time>
      </trkpt>
      <trkpt lat="43.75813" lon="6.92952">
        <ele>1244.5999755859</ele>
        <time>2010-12-12T09:17:11.000Z</time>
      </trkpt>
      <trkpt lat="43.75819" lon="6.92973">
        <ele>1244</ele>
        <time>2010-12-12T09:17:15.000Z</time>
      </trkpt>
      <trkpt lat="43.75818" lon="6.93005">
        <ele>1243.8000488281</ele>
        <time>2010-12-12T09:17:20.000Z</time>
      </trkpt>
      <trkpt lat="43.75812" lon="6.93046">
        <ele>1243</ele>
        <time>2010-12-12T09:17:26.000Z</time>
      </trkpt>
      <trkpt lat="43.75805" lon="6.93069">
        <ele>1242.8000488281</ele>
        <time>2010-12-12T09:17:31.000Z</time>
      </trkpt>
      <trkpt lat="43.75804" lon="6.93074">
        <ele>1242.5999755859</ele>
        <time>2010-12-12T09:17:33.000Z</time>
      </trkpt>
      <trkpt lat="43.75804" lon="6.93075">
        <ele>1242.5999755859</ele>
        <time>2010-12-12T09:17:42.000Z</time>
      </trkpt>
      <trkpt lat="43.75804" lon="6.93076">
        <ele>1242.5999755859</ele>
        <time>2010-12-12T09:17:48.000Z</time>
      </trkpt>
      <trkpt lat="43.75805" lon="6.93079">
        <ele>1242.4000244141</ele>
        <time>2010-12-12T09:18:12.000Z</time>
      </trkpt>
      <trkpt lat="43.75809" lon="6.93087">
        <ele>1241.8000488281</ele>
        <time>2010-12-12T09:18:17.000Z</time>
      </trkpt>
      <trkpt lat="43.7581" lon="6.93089">
        <ele>1241.5999755859</ele>
        <time>2010-12-12T09:18:26.000Z</time>
      </trkpt>
      <trkpt lat="43.75819" lon="6.93107">
        <ele>1240</ele>
        <time>2010-12-12T09:18:32.000Z</time>
      </trkpt>
      <trkpt lat="43.75834" lon="6.93132">
        <ele>1237.4000244141</ele>
        <time>2010-12-12T09:18:38.000Z</time>
      </trkpt>
      <trkpt lat="43.75849" lon="6.93154">
        <ele>1234.1999511719</ele>
        <time>2010-12-12T09:18:42.000Z</time>
      </trkpt>
      <trkpt lat="43.75856" lon="6.93167">
        <ele>1232.4000244141</ele>
        <time>2010-12-12T09:18:44.000Z</time>
      </trkpt>
      <trkpt lat="43.75878" lon="6.9319">
        <ele>1228.5999755859</ele>
        <time>2010-12-12T09:18:50.000Z</time>
      </trkpt>
      <trkpt lat="43.7589" lon="6.93196">
        <ele>1227</ele>
        <time>2010-12-12T09:18:53.000Z</time>
      </trkpt>
      <trkpt lat="43.75901" lon="6.93204">
        <ele>1225.4000244141</ele>
        <time>2010-12-12T09:18:55.000Z</time>
      </trkpt>
      <trkpt lat="43.75931" lon="6.93223">
        <ele>1220.8000488281</ele>
        <time>2010-12-12T09:19:00.000Z</time>
      </trkpt>
      <trkpt lat="43.75937" lon="6.93227">
        <ele>1219.8000488281</ele>
        <time>2010-12-12T09:19:01.000Z</time>
      </trkpt>
      <trkpt lat="43.75955" lon="6.93254">
        <ele>1216</ele>
        <time>2010-12-12T09:19:06.000Z</time>
      </trkpt>
      <trkpt lat="43.75964" lon="6.93263">
        <ele>1214.1999511719</ele>
        <time>2010-12-12T09:19:08.000Z</time>
      </trkpt>
      <trkpt lat="43.75974" lon="6.93273">
        <ele>1212</ele>
        <time>2010-12-12T09:19:10.000Z</time>
      </trkpt>
      <trkpt lat="43.7599" lon="6.93286">
        <ele>1207.8000488281</ele>
        <time>2010-12-12T09:19:13.000Z</time>
      </trkpt>
      <trkpt lat="43.76009" lon="6.93297">
        <ele>1203.4000244141</ele>
        <time>2010-12-12T09:19:16.000Z</time>
      </trkpt>
      <trkpt lat="43.76029" lon="6.93313">
        <ele>1198.8000488281</ele>
        <time>2010-12-12T09:19:19.000Z</time>
      </trkpt>
      <trkpt lat="43.76065" lon="6.9335">
        <ele>1189.5999755859</ele>
        <time>2010-12-12T09:19:25.000Z</time>
      </trkpt>
      <trkpt lat="43.76093" lon="6.93376">
        <ele>1182.5999755859</ele>
        <time>2010-12-12T09:19:30.000Z</time>
      </trkpt>
      <trkpt lat="43.761" lon="6.93382">
        <ele>1181.1999511719</ele>
        <time>2010-12-12T09:19:31.000Z</time>
      </trkpt>
      <trkpt lat="43.76113" lon="6.93393">
        <ele>1178.1999511719</ele>
        <time>2010-12-12T09:19:33.000Z</time>
      </trkpt>
      <trkpt lat="43.76133" lon="6.93405">
        <ele>1174.4000244141</ele>
        <time>2010-12-12T09:19:36.000Z</time>
      </trkpt>
      <trkpt lat="43.76159" lon="6.9342">
        <ele>1169.5999755859</ele>
        <time>2010-12-12T09:19:40.000Z</time>
      </trkpt>
      <trkpt lat="43.76174" lon="6.93433">
        <ele>1166.8000488281</ele>
        <time>2010-12-12T09:19:44.000Z</time>
      </trkpt>
      <trkpt lat="43.7617" lon="6.93433">
        <ele>1167.4000244141</ele>
        <time>2010-12-12T09:20:03.000Z</time>
      </trkpt>
      <trkpt lat="43.76169" lon="6.93434">
        <ele>1167.4000244141</ele>
        <time>2010-12-12T09:20:17.000Z</time>
      </trkpt>
      <trkpt lat="43.76159" lon="6.93442">
        <ele>1168</ele>
        <time>2010-12-12T09:20:22.000Z</time>
      </trkpt>
      <trkpt lat="43.76152" lon="6.93443">
        <ele>1168.8000488281</ele>
        <time>2010-12-12T09:20:24.000Z</time>
      </trkpt>
      <trkpt lat="43.76144" lon="6.9346">
        <ele>1168.5999755859</ele>
        <time>2010-12-12T09:20:28.000Z</time>
      </trkpt>
      <trkpt lat="43.76145" lon="6.93466">
        <ele>1168</ele>
        <time>2010-12-12T09:20:29.000Z</time>
      </trkpt>
      <trkpt lat="43.7615" lon="6.93488">
        <ele>1165.8000488281</ele>
        <time>2010-12-12T09:20:32.000Z</time>
      </trkpt>
      <trkpt lat="43.76148" lon="6.93517">
        <ele>1164.4000244141</ele>
        <time>2010-12-12T09:20:36.000Z</time>
      </trkpt>
      <trkpt lat="43.76151" lon="6.93532">
        <ele>1163</ele>
        <time>2010-12-12T09:20:39.000Z</time>
      </trkpt>
      <trkpt lat="43.76154" lon="6.93536">
        <ele>1162.4000244141</ele>
        <time>2010-12-12T09:20:40.000Z</time>
      </trkpt>
      <trkpt lat="43.7616" lon="6.93563">
        <ele>1159.5999755859</ele>
        <time>2010-12-12T09:20:45.000Z</time>
      </trkpt>
      <trkpt lat="43.76152" lon="6.93575">
        <ele>1160</ele>
        <time>2010-12-12T09:20:49.000Z</time>
      </trkpt>
      <trkpt lat="43.7615" lon="6.93594">
        <ele>1159.8000488281</ele>
        <time>2010-12-12T09:20:55.000Z</time>
      </trkpt>
      <trkpt lat="43.7615" lon="6.93595">
        <ele>1159.8000488281</ele>
        <time>2010-12-12T09:21:02.000Z</time>
      </trkpt>
      <trkpt lat="43.7615" lon="6.93594">
        <ele>1159.5999755859</ele>
        <time>2010-12-12T09:21:21.000Z</time>
      </trkpt>
      <trkpt lat="43.7615" lon="6.936">
        <ele>1159.5999755859</ele>
        <time>2010-12-12T09:21:26.000Z</time>
      </trkpt>
      <trkpt lat="43.76156" lon="6.93622">
        <ele>1158</ele>
        <time>2010-12-12T09:21:31.000Z</time>
      </trkpt>
      <trkpt lat="43.76166" lon="6.93645">
        <ele>1155.4000244141</ele>
        <time>2010-12-12T09:21:36.000Z</time>
      </trkpt>
      <trkpt lat="43.76177" lon="6.93667">
        <ele>1153.4000244141</ele>
        <time>2010-12-12T09:21:41.000Z</time>
      </trkpt>
      <trkpt lat="43.76178" lon="6.93684">
        <ele>1152.8000488281</ele>
        <time>2010-12-12T09:21:44.000Z</time>
      </trkpt>
      <trkpt lat="43.76179" lon="6.93696">
        <ele>1152.1999511719</ele>
        <time>2010-12-12T09:21:48.000Z</time>
      </trkpt>
      <trkpt lat="43.76177" lon="6.93707">
        <ele>1152.1999511719</ele>
        <time>2010-12-12T09:21:53.000Z</time>
      </trkpt>
      <trkpt lat="43.76174" lon="6.9372">
        <ele>1152</ele>
        <time>2010-12-12T09:21:56.000Z</time>
      </trkpt>
      <trkpt lat="43.7617" lon="6.93732">
        <ele>1152.1999511719</ele>
        <time>2010-12-12T09:21:58.000Z</time>
      </trkpt>
      <trkpt lat="43.76167" lon="6.93759">
        <ele>1151</ele>
        <time>2010-12-12T09:22:03.000Z</time>
      </trkpt>
      <trkpt lat="43.76169" lon="6.9378">
        <ele>1148.8000488281</ele>
        <time>2010-12-12T09:22:07.000Z</time>
      </trkpt>
      <trkpt lat="43.76172" lon="6.93802">
        <ele>1146.4000244141</ele>
        <time>2010-12-12T09:22:12.000Z</time>
      </trkpt>
      <trkpt lat="43.76181" lon="6.93809">
        <ele>1145</ele>
        <time>2010-12-12T09:22:16.000Z</time>
      </trkpt>
      <trkpt lat="43.76187" lon="6.93817">
        <ele>1143.8000488281</ele>
        <time>2010-12-12T09:22:19.000Z</time>
      </trkpt>
      <trkpt lat="43.76188" lon="6.9382">
        <ele>1143.5999755859</ele>
        <time>2010-12-12T09:22:20.000Z</time>
      </trkpt>
      <trkpt lat="43.76189" lon="6.9383">
        <ele>1142.5999755859</ele>
        <time>2010-12-12T09:22:24.000Z</time>
      </trkpt>
      <trkpt lat="43.76183" lon="6.9384">
        <ele>1141.8000488281</ele>
        <time>2010-12-12T09:22:29.000Z</time>
      </trkpt>
      <trkpt lat="43.76174" lon="6.93839">
        <ele>1142.5999755859</ele>
        <time>2010-12-12T09:22:31.000Z</time>
      </trkpt>
      <trkpt lat="43.76152" lon="6.93834">
        <ele>1146.4000244141</ele>
        <time>2010-12-12T09:22:36.000Z</time>
      </trkpt>
      <trkpt lat="43.7614" lon="6.93837">
        <ele>1147.8000488281</ele>
        <time>2010-12-12T09:22:39.000Z</time>
      </trkpt>
      <trkpt lat="43.76135" lon="6.93844">
        <ele>1147.5999755859</ele>
        <time>2010-12-12T09:22:43.000Z</time>
      </trkpt>
      <trkpt lat="43.76138" lon="6.93844">
        <ele>1147.1999511719</ele>
        <time>2010-12-12T09:22:48.000Z</time>
      </trkpt>
      <trkpt lat="43.76141" lon="6.93846">
        <ele>1146.1999511719</ele>
        <time>2010-12-12T09:22:51.000Z</time>
      </trkpt>
      <trkpt lat="43.76143" lon="6.93858">
        <ele>1144.4000244141</ele>
        <time>2010-12-12T09:22:55.000Z</time>
      </trkpt>
      <trkpt lat="43.76135" lon="6.93868">
        <ele>1144.1999511719</ele>
        <time>2010-12-12T09:23:00.000Z</time>
      </trkpt>
      <trkpt lat="43.76138" lon="6.93876">
        <ele>1142.4000244141</ele>
        <time>2010-12-12T09:23:03.000Z</time>
      </trkpt>
      <trkpt lat="43.76141" lon="6.93885">
        <ele>1140.5999755859</ele>
        <time>2010-12-12T09:23:07.000Z</time>
      </trkpt>
      <trkpt lat="43.76141" lon="6.93888">
        <ele>1140.1999511719</ele>
        <time>2010-12-12T09:23:08.000Z</time>
      </trkpt>
      <trkpt lat="43.76149" lon="6.93899">
        <ele>1137.1999511719</ele>
        <time>2010-12-12T09:23:13.000Z</time>
      </trkpt>
      <trkpt lat="43.76151" lon="6.93913">
        <ele>1134.8000488281</ele>
        <time>2010-12-12T09:23:18.000Z</time>
      </trkpt>
      <trkpt lat="43.76151" lon="6.93925">
        <ele>1134.1999511719</ele>
        <time>2010-12-12T09:23:23.000Z</time>
      </trkpt>
      <trkpt lat="43.76151" lon="6.93927">
        <ele>1134.1999511719</ele>
        <time>2010-12-12T09:23:24.000Z</time>
      </trkpt>
      <trkpt lat="43.7615" lon="6.93929">
        <ele>1134.1999511719</ele>
        <time>2010-12-12T09:23:39.000Z</time>
      </trkpt>
      <trkpt lat="43.7615" lon="6.9393">
        <ele>1134.1999511719</ele>
        <time>2010-12-12T09:23:45.000Z</time>
      </trkpt>
      <trkpt lat="43.76149" lon="6.93937">
        <ele>1134.4000244141</ele>
        <time>2010-12-12T09:23:51.000Z</time>
      </trkpt>
      <trkpt lat="43.76146" lon="6.93952">
        <ele>1134.5999755859</ele>
        <time>2010-12-12T09:23:55.000Z</time>
      </trkpt>
      <trkpt lat="43.76148" lon="6.9397">
        <ele>1134</ele>
        <time>2010-12-12T09:24:00.000Z</time>
      </trkpt>
      <trkpt lat="43.76152" lon="6.93978">
        <ele>1132.8000488281</ele>
        <time>2010-12-12T09:24:06.000Z</time>
      </trkpt>
      <trkpt lat="43.76157" lon="6.93988">
        <ele>1131.5999755859</ele>
        <time>2010-12-12T09:24:10.000Z</time>
      </trkpt>
      <trkpt lat="43.76166" lon="6.94">
        <ele>1129.1999511719</ele>
        <time>2010-12-12T09:24:16.000Z</time>
      </trkpt>
      <trkpt lat="43.76166" lon="6.94">
        <ele>1129.1999511719</ele>
        <time>2010-12-12T09:24:25.000Z</time>
      </trkpt>
      <trkpt lat="43.7617" lon="6.94007">
        <ele>1129</ele>
        <time>2010-12-12T09:24:30.000Z</time>
      </trkpt>
      <trkpt lat="43.76179" lon="6.94032">
        <ele>1130</ele>
        <time>2010-12-12T09:24:37.000Z</time>
      </trkpt>
      <trkpt lat="43.7618" lon="6.9404">
        <ele>1130.4000244141</ele>
        <time>2010-12-12T09:24:39.000Z</time>
      </trkpt>
      <trkpt lat="43.76192" lon="6.94061">
        <ele>1129.5999755859</ele>
        <time>2010-12-12T09:24:44.000Z</time>
      </trkpt>
      <trkpt lat="43.76203" lon="6.94075">
        <ele>1128.1999511719</ele>
        <time>2010-12-12T09:24:48.000Z</time>
      </trkpt>
      <trkpt lat="43.76215" lon="6.94089">
        <ele>1126.4000244141</ele>
        <time>2010-12-12T09:24:51.000Z</time>
      </trkpt>
      <trkpt lat="43.76222" lon="6.94101">
        <ele>1125.4000244141</ele>
        <time>2010-12-12T09:24:53.000Z</time>
      </trkpt>
      <trkpt lat="43.76231" lon="6.94112">
        <ele>1124.1999511719</ele>
        <time>2010-12-12T09:24:55.000Z</time>
      </trkpt>
      <trkpt lat="43.76255" lon="6.9414">
        <ele>1121.1999511719</ele>
        <time>2010-12-12T09:25:00.000Z</time>
      </trkpt>
      <trkpt lat="43.76258" lon="6.94145">
        <ele>1121</ele>
        <time>2010-12-12T09:25:01.000Z</time>
      </trkpt>
      <trkpt lat="43.76286" lon="6.94179">
        <ele>1119</ele>
        <time>2010-12-12T09:25:07.000Z</time>
      </trkpt>
      <trkpt lat="43.76301" lon="6.94201">
        <ele>1118</ele>
        <time>2010-12-12T09:25:10.000Z</time>
      </trkpt>
      <trkpt lat="43.76312" lon="6.94214">
        <ele>1117</ele>
        <time>2010-12-12T09:25:12.000Z</time>
      </trkpt>
      <trkpt lat="43.7634" lon="6.94233">
        <ele>1113.8000488281</ele>
        <time>2010-12-12T09:25:17.000Z</time>
      </trkpt>
      <trkpt lat="43.7636" lon="6.94242">
        <ele>1112</ele>
        <time>2010-12-12T09:25:21.000Z</time>
      </trkpt>
      <trkpt lat="43.76373" lon="6.94245">
        <ele>1110.5999755859</ele>
        <time>2010-12-12T09:25:24.000Z</time>
      </trkpt>
      <trkpt lat="43.76392" lon="6.94243">
        <ele>1108.5999755859</ele>
        <time>2010-12-12T09:25:30.000Z</time>
      </trkpt>
      <trkpt lat="43.76406" lon="6.94246">
        <ele>1107.1999511719</ele>
        <time>2010-12-12T09:25:34.000Z</time>
      </trkpt>
      <trkpt lat="43.76414" lon="6.94263">
        <ele>1105.5999755859</ele>
        <time>2010-12-12T09:25:38.000Z</time>
      </trkpt>
      <trkpt lat="43.76413" lon="6.94268">
        <ele>1105.5999755859</ele>
        <time>2010-12-12T09:25:39.000Z</time>
      </trkpt>
      <trkpt lat="43.76407" lon="6.94288">
        <ele>1105.1999511719</ele>
        <time>2010-12-12T09:25:45.000Z</time>
      </trkpt>
      <trkpt lat="43.76401" lon="6.94302">
        <ele>1105.5999755859</ele>
        <time>2010-12-12T09:25:49.000Z</time>
      </trkpt>
      <trkpt lat="43.76401" lon="6.94307">
        <ele>1105.4000244141</ele>
        <time>2010-12-12T09:25:50.000Z</time>
      </trkpt>
      <trkpt lat="43.76405" lon="6.94336">
        <ele>1103.5999755859</ele>
        <time>2010-12-12T09:25:55.000Z</time>
      </trkpt>
      <trkpt lat="43.76405" lon="6.94358">
        <ele>1103.4000244141</ele>
        <time>2010-12-12T09:25:59.000Z</time>
      </trkpt>
      <trkpt lat="43.76407" lon="6.94384">
        <ele>1102.4000244141</ele>
        <time>2010-12-12T09:26:03.000Z</time>
      </trkpt>
      <trkpt lat="43.76409" lon="6.94413">
        <ele>1101.4000244141</ele>
        <time>2010-12-12T09:26:08.000Z</time>
      </trkpt>
      <trkpt lat="43.76413" lon="6.94435">
        <ele>1101</ele>
        <time>2010-12-12T09:26:13.000Z</time>
      </trkpt>
      <trkpt lat="43.76418" lon="6.94443">
        <ele>1100.4000244141</ele>
        <time>2010-12-12T09:26:16.000Z</time>
      </trkpt>
      <trkpt lat="43.76428" lon="6.94458">
        <ele>1100.4000244141</ele>
        <time>2010-12-12T09:26:21.000Z</time>
      </trkpt>
      <trkpt lat="43.76441" lon="6.94477">
        <ele>1099.8000488281</ele>
        <time>2010-12-12T09:26:26.000Z</time>
      </trkpt>
      <trkpt lat="43.76453" lon="6.94496">
        <ele>1098.5999755859</ele>
        <time>2010-12-12T09:26:30.000Z</time>
      </trkpt>
      <trkpt lat="43.7647" lon="6.94519">
        <ele>1096.1999511719</ele>
        <time>2010-12-12T09:26:36.000Z</time>
      </trkpt>
      <trkpt lat="43.76477" lon="6.94532">
        <ele>1095</ele>
        <time>2010-12-12T09:26:39.000Z</time>
      </trkpt>
      <trkpt lat="43.7648" lon="6.94556">
        <ele>1093.8000488281</ele>
        <time>2010-12-12T09:26:43.000Z</time>
      </trkpt>
      <trkpt lat="43.76475" lon="6.94581">
        <ele>1093.8000488281</ele>
        <time>2010-12-12T09:26:48.000Z</time>
      </trkpt>
      <trkpt lat="43.76468" lon="6.94602">
        <ele>1093.1999511719</ele>
        <time>2010-12-12T09:26:54.000Z</time>
      </trkpt>
      <trkpt lat="43.76468" lon="6.94603">
        <ele>1093</ele>
        <time>2010-12-12T09:26:55.000Z</time>
      </trkpt>
      <trkpt lat="43.76476" lon="6.94595">
        <ele>1092.4000244141</ele>
        <time>2010-12-12T09:27:00.000Z</time>
      </trkpt>
      <trkpt lat="43.76487" lon="6.94595">
        <ele>1090.5999755859</ele>
        <time>2010-12-12T09:27:03.000Z</time>
      </trkpt>
      <trkpt lat="43.76492" lon="6.94607">
        <ele>1088.1999511719</ele>
        <time>2010-12-12T09:27:06.000Z</time>
      </trkpt>
      <trkpt lat="43.76498" lon="6.94613">
        <ele>1086.4000244141</ele>
        <time>2010-12-12T09:27:10.000Z</time>
      </trkpt>
      <trkpt lat="43.765" lon="6.9461">
        <ele>1086.4000244141</ele>
        <time>2010-12-12T09:27:13.000Z</time>
      </trkpt>
      <trkpt lat="43.76502" lon="6.94609">
        <ele>1086.5999755859</ele>
        <time>2010-12-12T09:27:16.000Z</time>
      </trkpt>
      <trkpt lat="43.76502" lon="6.94609">
        <ele>1086.5999755859</ele>
        <time>2010-12-12T09:27:28.000Z</time>
      </trkpt>
      <trkpt lat="43.76501" lon="6.9461">
        <ele>1086.4000244141</ele>
        <time>2010-12-12T09:27:40.000Z</time>
      </trkpt>
      <trkpt lat="43.76499" lon="6.94611">
        <ele>1086.5999755859</ele>
        <time>2010-12-12T09:27:47.000Z</time>
      </trkpt>
      <trkpt lat="43.76498" lon="6.94612">
        <ele>1086.4000244141</ele>
        <time>2010-12-12T09:27:52.000Z</time>
      </trkpt>
      <trkpt lat="43.76498" lon="6.94612">
        <ele>1086.5999755859</ele>
        <time>2010-12-12T09:28:04.000Z</time>
      </trkpt>
      <trkpt lat="43.76498" lon="6.94612">
        <ele>1086.5999755859</ele>
        <time>2010-12-12T09:28:09.000Z</time>
      </trkpt>
      <trkpt lat="43.76497" lon="6.94612">
        <ele>1086.5999755859</ele>
        <time>2010-12-12T09:28:17.000Z</time>
      </trkpt>
      <trkpt lat="43.76497" lon="6.94613">
        <ele>1086.5999755859</ele>
        <time>2010-12-12T09:28:36.000Z</time>
      </trkpt>
      <trkpt lat="43.76497" lon="6.94612">
        <ele>1086.5999755859</ele>
        <time>2010-12-12T09:28:45.000Z</time>
      </trkpt>
      <trkpt lat="43.76497" lon="6.94612">
        <ele>1086.8000488281</ele>
        <time>2010-12-12T09:28:59.000Z</time>
      </trkpt>
      <trkpt lat="43.76498" lon="6.94613">
        <ele>1086.4000244141</ele>
        <time>2010-12-12T09:29:05.000Z</time>
      </trkpt>
      <trkpt lat="43.76498" lon="6.94615">
        <ele>1086</ele>
        <time>2010-12-12T09:29:06.000Z</time>
      </trkpt>
      <trkpt lat="43.76505" lon="6.94628">
        <ele>1083.8000488281</ele>
        <time>2010-12-12T09:29:13.000Z</time>
      </trkpt>
      <trkpt lat="43.76518" lon="6.94634">
        <ele>1082.4000244141</ele>
        <time>2010-12-12T09:29:18.000Z</time>
      </trkpt>
      <trkpt lat="43.76521" lon="6.94634">
        <ele>1082.4000244141</ele>
        <time>2010-12-12T09:29:19.000Z</time>
      </trkpt>
      <trkpt lat="43.76536" lon="6.94645">
        <ele>1080</ele>
        <time>2010-12-12T09:29:24.000Z</time>
      </trkpt>
      <trkpt lat="43.76548" lon="6.94647">
        <ele>1079</ele>
        <time>2010-12-12T09:29:27.000Z</time>
      </trkpt>
      <trkpt lat="43.76564" lon="6.9464">
        <ele>1079.5999755859</ele>
        <time>2010-12-12T09:29:31.000Z</time>
      </trkpt>
      <trkpt lat="43.76581" lon="6.94631">
        <ele>1080.5999755859</ele>
        <time>2010-12-12T09:29:35.000Z</time>
      </trkpt>
      <trkpt lat="43.76599" lon="6.9463">
        <ele>1077.5999755859</ele>
        <time>2010-12-12T09:29:39.000Z</time>
      </trkpt>
      <trkpt lat="43.76614" lon="6.94631">
        <ele>1074.4000244141</ele>
        <time>2010-12-12T09:29:42.000Z</time>
      </trkpt>
      <trkpt lat="43.76625" lon="6.94636">
        <ele>1071</ele>
        <time>2010-12-12T09:29:45.000Z</time>
      </trkpt>
      <trkpt lat="43.76632" lon="6.9464">
        <ele>1068.5999755859</ele>
        <time>2010-12-12T09:29:47.000Z</time>
      </trkpt>
      <trkpt lat="43.76643" lon="6.94645">
        <ele>1064.8000488281</ele>
        <time>2010-12-12T09:29:51.000Z</time>
      </trkpt>
      <trkpt lat="43.76642" lon="6.94649">
        <ele>1064.1999511719</ele>
        <time>2010-12-12T09:29:52.000Z</time>
      </trkpt>
      <trkpt lat="43.76639" lon="6.94657">
        <ele>1062.5999755859</ele>
        <time>2010-12-12T09:29:54.000Z</time>
      </trkpt>
      <trkpt lat="43.76643" lon="6.94659">
        <ele>1061.1999511719</ele>
        <time>2010-12-12T09:29:58.000Z</time>
      </trkpt>
      <trkpt lat="43.76648" lon="6.94655">
        <ele>1061.4000244141</ele>
        <time>2010-12-12T09:30:00.000Z</time>
      </trkpt>
      <trkpt lat="43.76653" lon="6.94651">
        <ele>1061</ele>
        <time>2010-12-12T09:30:02.000Z</time>
      </trkpt>
      <trkpt lat="43.76655" lon="6.94656">
        <ele>1059.1999511719</ele>
        <time>2010-12-12T09:30:05.000Z</time>
      </trkpt>
      <trkpt lat="43.7666" lon="6.94656">
        <ele>1058.4000244141</ele>
        <time>2010-12-12T09:30:09.000Z</time>
      </trkpt>
      <trkpt lat="43.76663" lon="6.94651">
        <ele>1059.1999511719</ele>
        <time>2010-12-12T09:30:11.000Z</time>
      </trkpt>
      <trkpt lat="43.76673" lon="6.94633">
        <ele>1060.1999511719</ele>
        <time>2010-12-12T09:30:16.000Z</time>
      </trkpt>
      <trkpt lat="43.76676" lon="6.94644">
        <ele>1056</ele>
        <time>2010-12-12T09:30:20.000Z</time>
      </trkpt>
      <trkpt lat="43.7668" lon="6.94642">
        <ele>1054.8000488281</ele>
        <time>2010-12-12T09:30:23.000Z</time>
      </trkpt>
      <trkpt lat="43.76688" lon="6.94636">
        <ele>1053.4000244141</ele>
        <time>2010-12-12T09:30:26.000Z</time>
      </trkpt>
      <trkpt lat="43.76692" lon="6.94632">
        <ele>1052.8000488281</ele>
        <time>2010-12-12T09:30:28.000Z</time>
      </trkpt>
      <trkpt lat="43.76705" lon="6.94618">
        <ele>1051</ele>
        <time>2010-12-12T09:30:34.000Z</time>
      </trkpt>
      <trkpt lat="43.76726" lon="6.94598">
        <ele>1047.4000244141</ele>
        <time>2010-12-12T09:30:40.000Z</time>
      </trkpt>
      <trkpt lat="43.76738" lon="6.94587">
        <ele>1045.1999511719</ele>
        <time>2010-12-12T09:30:44.000Z</time>
      </trkpt>
      <trkpt lat="43.76752" lon="6.94575">
        <ele>1042.4000244141</ele>
        <time>2010-12-12T09:30:48.000Z</time>
      </trkpt>
      <trkpt lat="43.76758" lon="6.94569">
        <ele>1041.1999511719</ele>
        <time>2010-12-12T09:30:50.000Z</time>
      </trkpt>
      <trkpt lat="43.7677" lon="6.94566">
        <ele>1036.8000488281</ele>
        <time>2010-12-12T09:30:55.000Z</time>
      </trkpt>
      <trkpt lat="43.76769" lon="6.94569">
        <ele>1036.1999511719</ele>
        <time>2010-12-12T09:30:56.000Z</time>
      </trkpt>
      <trkpt lat="43.76763" lon="6.9459">
        <ele>1033.5999755859</ele>
        <time>2010-12-12T09:31:01.000Z</time>
      </trkpt>
      <trkpt lat="43.76769" lon="6.94588">
        <ele>1031.1999511719</ele>
        <time>2010-12-12T09:31:06.000Z</time>
      </trkpt>
      <trkpt lat="43.76784" lon="6.94578">
        <ele>1027</ele>
        <time>2010-12-12T09:31:10.000Z</time>
      </trkpt>
      <trkpt lat="43.76787" lon="6.94574">
        <ele>1026.8000488281</ele>
        <time>2010-12-12T09:31:11.000Z</time>
      </trkpt>
      <trkpt lat="43.76802" lon="6.94563">
        <ele>1023</ele>
        <time>2010-12-12T09:31:16.000Z</time>
      </trkpt>
      <trkpt lat="43.76805" lon="6.94562">
        <ele>1022</ele>
        <time>2010-12-12T09:31:17.000Z</time>
      </trkpt>
      <trkpt lat="43.7682" lon="6.94546">
        <ele>1019.4000244141</ele>
        <time>2010-12-12T09:31:22.000Z</time>
      </trkpt>
      <trkpt lat="43.76835" lon="6.94531">
        <ele>1016.4000244141</ele>
        <time>2010-12-12T09:31:27.000Z</time>
      </trkpt>
      <trkpt lat="43.76849" lon="6.94518">
        <ele>1014.4000244141</ele>
        <time>2010-12-12T09:31:31.000Z</time>
      </trkpt>
      <trkpt lat="43.76862" lon="6.94512">
        <ele>1011.4000244141</ele>
        <time>2010-12-12T09:31:35.000Z</time>
      </trkpt>
      <trkpt lat="43.76874" lon="6.9451">
        <ele>1007.200012207</ele>
        <time>2010-12-12T09:31:39.000Z</time>
      </trkpt>
      <trkpt lat="43.76891" lon="6.94501">
        <ele>1003.4000244141</ele>
        <time>2010-12-12T09:31:44.000Z</time>
      </trkpt>
      <trkpt lat="43.7691" lon="6.94499">
        <ele>996.59997558594</ele>
        <time>2010-12-12T09:31:50.000Z</time>
      </trkpt>
      <trkpt lat="43.76925" lon="6.94496">
        <ele>991.59997558594</ele>
        <time>2010-12-12T09:31:55.000Z</time>
      </trkpt>
      <trkpt lat="43.76926" lon="6.94496">
        <ele>991.20001220703</ele>
        <time>2010-12-12T09:31:58.000Z</time>
      </trkpt>
      <trkpt lat="43.76926" lon="6.94494">
        <ele>991.59997558594</ele>
        <time>2010-12-12T09:32:11.000Z</time>
      </trkpt>
      <trkpt lat="43.76926" lon="6.94494">
        <ele>991.59997558594</ele>
        <time>2010-12-12T09:32:17.000Z</time>
      </trkpt>
      <trkpt lat="43.76927" lon="6.94495">
        <ele>991.20001220703</ele>
        <time>2010-12-12T09:32:26.000Z</time>
      </trkpt>
      <trkpt lat="43.76928" lon="6.94495">
        <ele>990.79998779297</ele>
        <time>2010-12-12T09:32:51.000Z</time>
      </trkpt>
      <trkpt lat="43.76928" lon="6.94493">
        <ele>991</ele>
        <time>2010-12-12T09:33:26.000Z</time>
      </trkpt>
      <trkpt lat="43.76939" lon="6.94487">
        <ele>988.20001220703</ele>
        <time>2010-12-12T09:33:31.000Z</time>
      </trkpt>
      <trkpt lat="43.76957" lon="6.94476">
        <ele>983.59997558594</ele>
        <time>2010-12-12T09:33:36.000Z</time>
      </trkpt>
      <trkpt lat="43.76971" lon="6.94461">
        <ele>981.79998779297</ele>
        <time>2010-12-12T09:33:40.000Z</time>
      </trkpt>
      <trkpt lat="43.76975" lon="6.94459">
        <ele>980.79998779297</ele>
        <time>2010-12-12T09:33:41.000Z</time>
      </trkpt>
      <trkpt lat="43.76982" lon="6.94454">
        <ele>979.40002441406</ele>
        <time>2010-12-12T09:33:43.000Z</time>
      </trkpt>
      <trkpt lat="43.76996" lon="6.94445">
        <ele>976</ele>
        <time>2010-12-12T09:33:48.000Z</time>
      </trkpt>
      <trkpt lat="43.7701" lon="6.9444">
        <ele>973.79998779297</ele>
        <time>2010-12-12T09:33:52.000Z</time>
      </trkpt>
      <trkpt lat="43.77028" lon="6.94434">
        <ele>971.59997558594</ele>
        <time>2010-12-12T09:33:56.000Z</time>
      </trkpt>
      <trkpt lat="43.77034" lon="6.94431">
        <ele>971.20001220703</ele>
        <time>2010-12-12T09:33:57.000Z</time>
      </trkpt>
      <trkpt lat="43.77052" lon="6.94426">
        <ele>969</ele>
        <time>2010-12-12T09:34:01.000Z</time>
      </trkpt>
      <trkpt lat="43.77063" lon="6.94424">
        <ele>967.20001220703</ele>
        <time>2010-12-12T09:34:04.000Z</time>
      </trkpt>
      <trkpt lat="43.77072" lon="6.9442">
        <ele>966.20001220703</ele>
        <time>2010-12-12T09:34:06.000Z</time>
      </trkpt>
      <trkpt lat="43.77094" lon="6.94415">
        <ele>964.40002441406</ele>
        <time>2010-12-12T09:34:10.000Z</time>
      </trkpt>
      <trkpt lat="43.77119" lon="6.94416">
        <ele>962</ele>
        <time>2010-12-12T09:34:15.000Z</time>
      </trkpt>
      <trkpt lat="43.77146" lon="6.9441">
        <ele>960.59997558594</ele>
        <time>2010-12-12T09:34:20.000Z</time>
      </trkpt>
      <trkpt lat="43.77174" lon="6.94401">
        <ele>959.59997558594</ele>
        <time>2010-12-12T09:34:25.000Z</time>
      </trkpt>
      <trkpt lat="43.77179" lon="6.94399">
        <ele>959.40002441406</ele>
        <time>2010-12-12T09:34:26.000Z</time>
      </trkpt>
      <trkpt lat="43.77193" lon="6.94401">
        <ele>958</ele>
        <time>2010-12-12T09:34:30.000Z</time>
      </trkpt>
      <trkpt lat="43.77194" lon="6.94402">
        <ele>957.79998779297</ele>
        <time>2010-12-12T09:34:31.000Z</time>
      </trkpt>
      <trkpt lat="43.77202" lon="6.94417">
        <ele>955</ele>
        <time>2010-12-12T09:34:36.000Z</time>
      </trkpt>
      <trkpt lat="43.77206" lon="6.94429">
        <ele>952.79998779297</ele>
        <time>2010-12-12T09:34:39.000Z</time>
      </trkpt>
      <trkpt lat="43.77218" lon="6.94435">
        <ele>951</ele>
        <time>2010-12-12T09:34:42.000Z</time>
      </trkpt>
      <trkpt lat="43.77228" lon="6.94446">
        <ele>948.79998779297</ele>
        <time>2010-12-12T09:34:45.000Z</time>
      </trkpt>
      <trkpt lat="43.77233" lon="6.9446">
        <ele>946.79998779297</ele>
        <time>2010-12-12T09:34:49.000Z</time>
      </trkpt>
      <trkpt lat="43.77237" lon="6.9446">
        <ele>946.40002441406</ele>
        <time>2010-12-12T09:34:50.000Z</time>
      </trkpt>
      <trkpt lat="43.77273" lon="6.94458">
        <ele>943.40002441406</ele>
        <time>2010-12-12T09:34:56.000Z</time>
      </trkpt>
      <trkpt lat="43.77287" lon="6.94454">
        <ele>942.40002441406</ele>
        <time>2010-12-12T09:35:00.000Z</time>
      </trkpt>
      <trkpt lat="43.77286" lon="6.94466">
        <ele>941</ele>
        <time>2010-12-12T09:35:03.000Z</time>
      </trkpt>
      <trkpt lat="43.7728" lon="6.94498">
        <ele>938</ele>
        <time>2010-12-12T09:35:09.000Z</time>
      </trkpt>
      <trkpt lat="43.7728" lon="6.94499">
        <ele>937.79998779297</ele>
        <time>2010-12-12T09:35:10.000Z</time>
      </trkpt>
      <trkpt lat="43.77298" lon="6.94514">
        <ele>932.59997558594</ele>
        <time>2010-12-12T09:35:16.000Z</time>
      </trkpt>
      <trkpt lat="43.77314" lon="6.9452">
        <ele>929.59997558594</ele>
        <time>2010-12-12T09:35:20.000Z</time>
      </trkpt>
      <trkpt lat="43.7732" lon="6.94521">
        <ele>928.79998779297</ele>
        <time>2010-12-12T09:35:21.000Z</time>
      </trkpt>
      <trkpt lat="43.7734" lon="6.9452">
        <ele>925.79998779297</ele>
        <time>2010-12-12T09:35:25.000Z</time>
      </trkpt>
      <trkpt lat="43.77349" lon="6.94516">
        <ele>924.79998779297</ele>
        <time>2010-12-12T09:35:27.000Z</time>
      </trkpt>
      <trkpt lat="43.77371" lon="6.94506">
        <ele>921.59997558594</ele>
        <time>2010-12-12T09:35:32.000Z</time>
      </trkpt>
      <trkpt lat="43.77389" lon="6.94493">
        <ele>919.40002441406</ele>
        <time>2010-12-12T09:35:37.000Z</time>
      </trkpt>
      <trkpt lat="43.7739" lon="6.9451">
        <ele>916.20001220703</ele>
        <time>2010-12-12T09:35:42.000Z</time>
      </trkpt>
      <trkpt lat="43.77389" lon="6.94519">
        <ele>914.79998779297</ele>
        <time>2010-12-12T09:35:44.000Z</time>
      </trkpt>
      <trkpt lat="43.77397" lon="6.94522">
        <ele>912</ele>
        <time>2010-12-12T09:35:48.000Z</time>
      </trkpt>
      <trkpt lat="43.77405" lon="6.94529">
        <ele>908.79998779297</ele>
        <time>2010-12-12T09:35:52.000Z</time>
      </trkpt>
      <trkpt lat="43.77398" lon="6.94546">
        <ele>906.79998779297</ele>
        <time>2010-12-12T09:35:56.000Z</time>
      </trkpt>
      <trkpt lat="43.77393" lon="6.94555">
        <ele>906.20001220703</ele>
        <time>2010-12-12T09:36:00.000Z</time>
      </trkpt>
      <trkpt lat="43.77405" lon="6.94555">
        <ele>903.40002441406</ele>
        <time>2010-12-12T09:36:06.000Z</time>
      </trkpt>
      <trkpt lat="43.77417" lon="6.94559">
        <ele>899.79998779297</ele>
        <time>2010-12-12T09:36:10.000Z</time>
      </trkpt>
      <trkpt lat="43.77434" lon="6.94556">
        <ele>897</ele>
        <time>2010-12-12T09:36:14.000Z</time>
      </trkpt>
      <trkpt lat="43.77442" lon="6.94554">
        <ele>895.79998779297</ele>
        <time>2010-12-12T09:36:17.000Z</time>
      </trkpt>
      <trkpt lat="43.77445" lon="6.94552">
        <ele>895.79998779297</ele>
        <time>2010-12-12T09:36:18.000Z</time>
      </trkpt>
      <trkpt lat="43.77461" lon="6.94546">
        <ele>894.20001220703</ele>
        <time>2010-12-12T09:36:23.000Z</time>
      </trkpt>
      <trkpt lat="43.77471" lon="6.94538">
        <ele>894.20001220703</ele>
        <time>2010-12-12T09:36:27.000Z</time>
      </trkpt>
      <trkpt lat="43.77473" lon="6.94537">
        <ele>894</ele>
        <time>2010-12-12T09:36:28.000Z</time>
      </trkpt>
      <trkpt lat="43.77478" lon="6.94543">
        <ele>891.59997558594</ele>
        <time>2010-12-12T09:36:32.000Z</time>
      </trkpt>
      <trkpt lat="43.77477" lon="6.94546">
        <ele>891.20001220703</ele>
        <time>2010-12-12T09:36:36.000Z</time>
      </trkpt>
      <trkpt lat="43.77477" lon="6.94546">
        <ele>891.20001220703</ele>
        <time>2010-12-12T09:36:43.000Z</time>
      </trkpt>
      <trkpt lat="43.77477" lon="6.94546">
        <ele>891.20001220703</ele>
        <time>2010-12-12T09:36:54.000Z</time>
      </trkpt>
      <trkpt lat="43.77475" lon="6.94548">
        <ele>890.79998779297</ele>
        <time>2010-12-12T09:37:06.000Z</time>
      </trkpt>
      <trkpt lat="43.77474" lon="6.94547">
        <ele>891.40002441406</ele>
        <time>2010-12-12T09:37:11.000Z</time>
      </trkpt>
      <trkpt lat="43.77473" lon="6.94547">
        <ele>891.40002441406</ele>
        <time>2010-12-12T09:37:19.000Z</time>
      </trkpt>
      <trkpt lat="43.77473" lon="6.94548">
        <ele>891.20001220703</ele>
        <time>2010-12-12T09:37:27.000Z</time>
      </trkpt>
      <trkpt lat="43.77473" lon="6.94547">
        <ele>891.40002441406</ele>
        <time>2010-12-12T09:37:33.000Z</time>
      </trkpt>
      <trkpt lat="43.77475" lon="6.94546">
        <ele>891.40002441406</ele>
        <time>2010-12-12T09:37:50.000Z</time>
      </trkpt>
      <trkpt lat="43.77475" lon="6.94546">
        <ele>891.40002441406</ele>
        <time>2010-12-12T09:38:00.000Z</time>
      </trkpt>
      <trkpt lat="43.77475" lon="6.94544">
        <ele>891.79998779297</ele>
        <time>2010-12-12T09:38:08.000Z</time>
      </trkpt>
      <trkpt lat="43.77475" lon="6.94544">
        <ele>892</ele>
        <time>2010-12-12T09:38:23.000Z</time>
      </trkpt>
      <trkpt lat="43.77475" lon="6.94545">
        <ele>891.79998779297</ele>
        <time>2010-12-12T09:38:32.000Z</time>
      </trkpt>
      <trkpt lat="43.77475" lon="6.94547">
        <ele>891.20001220703</ele>
        <time>2010-12-12T09:38:40.000Z</time>
      </trkpt>
      <trkpt lat="43.77475" lon="6.94547">
        <ele>891.40002441406</ele>
        <time>2010-12-12T09:38:49.000Z</time>
      </trkpt>
      <trkpt lat="43.77476" lon="6.94547">
        <ele>891</ele>
        <time>2010-12-12T09:38:58.000Z</time>
      </trkpt>
      <trkpt lat="43.77489" lon="6.94538">
        <ele>891.20001220703</ele>
        <time>2010-12-12T09:39:03.000Z</time>
      </trkpt>
      <trkpt lat="43.77495" lon="6.94533">
        <ele>891.20001220703</ele>
        <time>2010-12-12T09:39:05.000Z</time>
      </trkpt>
      <trkpt lat="43.77502" lon="6.94537">
        <ele>889.20001220703</ele>
        <time>2010-12-12T09:39:08.000Z</time>
      </trkpt>
      <trkpt lat="43.77507" lon="6.94537">
        <ele>888.59997558594</ele>
        <time>2010-12-12T09:39:10.000Z</time>
      </trkpt>
      <trkpt lat="43.7751" lon="6.94542">
        <ele>887</ele>
        <time>2010-12-12T09:39:14.000Z</time>
      </trkpt>
      <trkpt lat="43.77511" lon="6.94543">
        <ele>886.59997558594</ele>
        <time>2010-12-12T09:39:20.000Z</time>
      </trkpt>
      <trkpt lat="43.77511" lon="6.94545">
        <ele>886</ele>
        <time>2010-12-12T09:39:22.000Z</time>
      </trkpt>
      <trkpt lat="43.7752" lon="6.94555">
        <ele>882.40002441406</ele>
        <time>2010-12-12T09:39:27.000Z</time>
      </trkpt>
      <trkpt lat="43.77534" lon="6.94566">
        <ele>878.40002441406</ele>
        <time>2010-12-12T09:39:32.000Z</time>
      </trkpt>
      <trkpt lat="43.7755" lon="6.94577">
        <ele>874.20001220703</ele>
        <time>2010-12-12T09:39:37.000Z</time>
      </trkpt>
      <trkpt lat="43.77563" lon="6.94593">
        <ele>870</ele>
        <time>2010-12-12T09:39:42.000Z</time>
      </trkpt>
      <trkpt lat="43.7757" lon="6.94612">
        <ele>866.59997558594</ele>
        <time>2010-12-12T09:39:47.000Z</time>
      </trkpt>
      <trkpt lat="43.77588" lon="6.94634">
        <ele>863</ele>
        <time>2010-12-12T09:39:52.000Z</time>
      </trkpt>
      <trkpt lat="43.77604" lon="6.94646">
        <ele>863.20001220703</ele>
        <time>2010-12-12T09:39:56.000Z</time>
      </trkpt>
      <trkpt lat="43.77605" lon="6.94663">
        <ele>861</ele>
        <time>2010-12-12T09:39:59.000Z</time>
      </trkpt>
      <trkpt lat="43.77608" lon="6.94677">
        <ele>860</ele>
        <time>2010-12-12T09:40:02.000Z</time>
      </trkpt>
      <trkpt lat="43.77619" lon="6.94692">
        <ele>859.79998779297</ele>
        <time>2010-12-12T09:40:06.000Z</time>
      </trkpt>
      <trkpt lat="43.77623" lon="6.94703">
        <ele>859.20001220703</ele>
        <time>2010-12-12T09:40:11.000Z</time>
      </trkpt>
      <trkpt lat="43.77623" lon="6.94703">
        <ele>859.20001220703</ele>
        <time>2010-12-12T09:40:17.000Z</time>
      </trkpt>
      <trkpt lat="43.77623" lon="6.94703">
        <ele>859.20001220703</ele>
        <time>2010-12-12T09:40:24.000Z</time>
      </trkpt>
      <trkpt lat="43.77623" lon="6.94703">
        <ele>859.20001220703</ele>
        <time>2010-12-12T09:40:33.000Z</time>
      </trkpt>
      <trkpt lat="43.77624" lon="6.94702">
        <ele>859.40002441406</ele>
        <time>2010-12-12T09:40:40.000Z</time>
      </trkpt>
      <trkpt lat="43.77626" lon="6.94703">
        <ele>859.59997558594</ele>
        <time>2010-12-12T09:40:50.000Z</time>
      </trkpt>
      <trkpt lat="43.77621" lon="6.94702">
        <ele>859</ele>
        <time>2010-12-12T09:41:24.000Z</time>
      </trkpt>
      <trkpt lat="43.77622" lon="6.94701">
        <ele>859.40002441406</ele>
        <time>2010-12-12T09:41:43.000Z</time>
      </trkpt>
      <trkpt lat="43.77622" lon="6.94701">
        <ele>859.40002441406</ele>
        <time>2010-12-12T09:41:52.000Z</time>
      </trkpt>
      <trkpt lat="43.77623" lon="6.94702">
        <ele>859.40002441406</ele>
        <time>2010-12-12T09:42:02.000Z</time>
      </trkpt>
      <trkpt lat="43.77624" lon="6.94704">
        <ele>859.20001220703</ele>
        <time>2010-12-12T09:42:10.000Z</time>
      </trkpt>
      <trkpt lat="43.77623" lon="6.94704">
        <ele>859.20001220703</ele>
        <time>2010-12-12T09:42:20.000Z</time>
      </trkpt>
      <trkpt lat="43.77622" lon="6.94702">
        <ele>859.20001220703</ele>
        <time>2010-12-12T09:42:32.000Z</time>
      </trkpt>
      <trkpt lat="43.77621" lon="6.94699">
        <ele>859.40002441406</ele>
        <time>2010-12-12T09:42:35.000Z</time>
      </trkpt>
      <trkpt lat="43.77608" lon="6.94676">
        <ele>860</ele>
        <time>2010-12-12T09:42:43.000Z</time>
      </trkpt>
      <trkpt lat="43.77605" lon="6.94672">
        <ele>860</ele>
        <time>2010-12-12T09:42:44.000Z</time>
      </trkpt>
      <trkpt lat="43.77599" lon="6.94643">
        <ele>863</ele>
        <time>2010-12-12T09:42:50.000Z</time>
      </trkpt>
      <trkpt lat="43.77591" lon="6.94647">
        <ele>861.40002441406</ele>
        <time>2010-12-12T09:42:54.000Z</time>
      </trkpt>
      <trkpt lat="43.77574" lon="6.94673">
        <ele>857.79998779297</ele>
        <time>2010-12-12T09:42:59.000Z</time>
      </trkpt>
      <trkpt lat="43.77567" lon="6.947">
        <ele>856.20001220703</ele>
        <time>2010-12-12T09:43:02.000Z</time>
      </trkpt>
      <trkpt lat="43.77563" lon="6.9473">
        <ele>854</ele>
        <time>2010-12-12T09:43:05.000Z</time>
      </trkpt>
      <trkpt lat="43.77553" lon="6.94772">
        <ele>851.20001220703</ele>
        <time>2010-12-12T09:43:09.000Z</time>
      </trkpt>
      <trkpt lat="43.77543" lon="6.94804">
        <ele>849.20001220703</ele>
        <time>2010-12-12T09:43:13.000Z</time>
      </trkpt>
      <trkpt lat="43.77548" lon="6.94826">
        <ele>847</ele>
        <time>2010-12-12T09:43:16.000Z</time>
      </trkpt>
      <trkpt lat="43.77546" lon="6.94839">
        <ele>846.20001220703</ele>
        <time>2010-12-12T09:43:18.000Z</time>
      </trkpt>
      <trkpt lat="43.7754" lon="6.94856">
        <ele>845.59997558594</ele>
        <time>2010-12-12T09:43:21.000Z</time>
      </trkpt>
      <trkpt lat="43.77524" lon="6.94889">
        <ele>844.79998779297</ele>
        <time>2010-12-12T09:43:26.000Z</time>
      </trkpt>
      <trkpt lat="43.77515" lon="6.94912">
        <ele>844</ele>
        <time>2010-12-12T09:43:30.000Z</time>
      </trkpt>
      <trkpt lat="43.77511" lon="6.94929">
        <ele>844.20001220703</ele>
        <time>2010-12-12T09:43:35.000Z</time>
      </trkpt>
      <trkpt lat="43.7751" lon="6.94932">
        <ele>844.40002441406</ele>
        <time>2010-12-12T09:43:36.000Z</time>
      </trkpt>
      <trkpt lat="43.77504" lon="6.94939">
        <ele>844.79998779297</ele>
        <time>2010-12-12T09:43:45.000Z</time>
      </trkpt>
      <trkpt lat="43.77498" lon="6.94949">
        <ele>845.59997558594</ele>
        <time>2010-12-12T09:43:52.000Z</time>
      </trkpt>
      <trkpt lat="43.77491" lon="6.94956">
        <ele>846.59997558594</ele>
        <time>2010-12-12T09:44:00.000Z</time>
      </trkpt>
      <trkpt lat="43.77485" lon="6.94957">
        <ele>847.20001220703</ele>
        <time>2010-12-12T09:44:07.000Z</time>
      </trkpt>
      <trkpt lat="43.77482" lon="6.94958">
        <ele>847.59997558594</ele>
        <time>2010-12-12T09:44:09.000Z</time>
      </trkpt>
      <trkpt lat="43.77478" lon="6.94962">
        <ele>848.20001220703</ele>
        <time>2010-12-12T09:44:17.000Z</time>
      </trkpt>
      <trkpt lat="43.77475" lon="6.94967">
        <ele>848.40002441406</ele>
        <time>2010-12-12T09:44:26.000Z</time>
      </trkpt>
      <trkpt lat="43.77472" lon="6.94972">
        <ele>848.79998779297</ele>
        <time>2010-12-12T09:44:33.000Z</time>
      </trkpt>
      <trkpt lat="43.77474" lon="6.94978">
        <ele>848.59997558594</ele>
        <time>2010-12-12T09:44:39.000Z</time>
      </trkpt>
      <trkpt lat="43.77476" lon="6.9498">
        <ele>848.40002441406</ele>
        <time>2010-12-12T09:44:44.000Z</time>
      </trkpt>
      <trkpt lat="43.77477" lon="6.94979">
        <ele>848.20001220703</ele>
        <time>2010-12-12T09:44:45.000Z</time>
      </trkpt>
      <trkpt lat="43.77488" lon="6.94975">
        <ele>847</ele>
        <time>2010-12-12T09:44:49.000Z</time>
      </trkpt>
      <trkpt lat="43.77506" lon="6.94967">
        <ele>845</ele>
        <time>2010-12-12T09:44:54.000Z</time>
      </trkpt>
      <trkpt lat="43.77523" lon="6.94958">
        <ele>843.59997558594</ele>
        <time>2010-12-12T09:44:58.000Z</time>
      </trkpt>
      <trkpt lat="43.77532" lon="6.94952">
        <ele>842.79998779297</ele>
        <time>2010-12-12T09:45:00.000Z</time>
      </trkpt>
      <trkpt lat="43.77539" lon="6.94945">
        <ele>842.20001220703</ele>
        <time>2010-12-12T09:45:02.000Z</time>
      </trkpt>
      <trkpt lat="43.7755" lon="6.94937">
        <ele>841.40002441406</ele>
        <time>2010-12-12T09:45:05.000Z</time>
      </trkpt>
      <trkpt lat="43.77573" lon="6.9494">
        <ele>839.79998779297</ele>
        <time>2010-12-12T09:45:10.000Z</time>
      </trkpt>
      <trkpt lat="43.77583" lon="6.94947">
        <ele>839</ele>
        <time>2010-12-12T09:45:12.000Z</time>
      </trkpt>
      <trkpt lat="43.77607" lon="6.94974">
        <ele>838.20001220703</ele>
        <time>2010-12-12T09:45:18.000Z</time>
      </trkpt>
      <trkpt lat="43.77621" lon="6.95005">
        <ele>836.40002441406</ele>
        <time>2010-12-12T09:45:24.000Z</time>
      </trkpt>
      <trkpt lat="43.77625" lon="6.95017">
        <ele>835.20001220703</ele>
        <time>2010-12-12T09:45:26.000Z</time>
      </trkpt>
      <trkpt lat="43.77631" lon="6.95031">
        <ele>833.20001220703</ele>
        <time>2010-12-12T09:45:31.000Z</time>
      </trkpt>
      <trkpt lat="43.77627" lon="6.95033">
        <ele>833.59997558594</ele>
        <time>2010-12-12T09:45:41.000Z</time>
      </trkpt>
      <trkpt lat="43.77628" lon="6.95034">
        <ele>833.40002441406</ele>
        <time>2010-12-12T09:45:46.000Z</time>
      </trkpt>
      <trkpt lat="43.77627" lon="6.95032">
        <ele>833.59997558594</ele>
        <time>2010-12-12T09:45:59.000Z</time>
      </trkpt>
      <trkpt lat="43.77628" lon="6.95029">
        <ele>833.79998779297</ele>
        <time>2010-12-12T09:46:08.000Z</time>
      </trkpt>
      <trkpt lat="43.77627" lon="6.95029">
        <ele>834</ele>
        <time>2010-12-12T09:46:18.000Z</time>
      </trkpt>
      <trkpt lat="43.77624" lon="6.95019">
        <ele>835</ele>
        <time>2010-12-12T09:50:30.000Z</time>
      </trkpt>
      <trkpt lat="43.77621" lon="6.95017">
        <ele>835.40002441406</ele>
        <time>2010-12-12T09:50:36.000Z</time>
      </trkpt>
      <trkpt lat="43.77623" lon="6.95017">
        <ele>835.40002441406</ele>
        <time>2010-12-12T09:52:36.000Z</time>
      </trkpt>
      <trkpt lat="43.7762" lon="6.95011">
        <ele>836</ele>
        <time>2010-12-12T09:52:41.000Z</time>
      </trkpt>
      <trkpt lat="43.77613" lon="6.94998">
        <ele>837.20001220703</ele>
        <time>2010-12-12T09:52:47.000Z</time>
      </trkpt>
      <trkpt lat="43.77607" lon="6.94981">
        <ele>838</ele>
        <time>2010-12-12T09:52:55.000Z</time>
      </trkpt>
      <trkpt lat="43.77603" lon="6.94971">
        <ele>838.40002441406</ele>
        <time>2010-12-12T09:53:00.000Z</time>
      </trkpt>
      <trkpt lat="43.77597" lon="6.94959">
        <ele>838.79998779297</ele>
        <time>2010-12-12T09:53:06.000Z</time>
      </trkpt>
      <trkpt lat="43.7759" lon="6.94953">
        <ele>838.79998779297</ele>
        <time>2010-12-12T09:53:11.000Z</time>
      </trkpt>
      <trkpt lat="43.77582" lon="6.94945">
        <ele>839</ele>
        <time>2010-12-12T09:53:17.000Z</time>
      </trkpt>
      <trkpt lat="43.77581" lon="6.94944">
        <ele>839</ele>
        <time>2010-12-12T09:53:18.000Z</time>
      </trkpt>
      <trkpt lat="43.77571" lon="6.94939">
        <ele>839.79998779297</ele>
        <time>2010-12-12T09:53:25.000Z</time>
      </trkpt>
      <trkpt lat="43.77564" lon="6.94935">
        <ele>840.40002441406</ele>
        <time>2010-12-12T09:53:30.000Z</time>
      </trkpt>
      <trkpt lat="43.77559" lon="6.94934">
        <ele>840.79998779297</ele>
        <time>2010-12-12T09:53:38.000Z</time>
      </trkpt>
      <trkpt lat="43.77554" lon="6.94936">
        <ele>841.20001220703</ele>
        <time>2010-12-12T09:53:45.000Z</time>
      </trkpt>
      <trkpt lat="43.77546" lon="6.94938">
        <ele>841.59997558594</ele>
        <time>2010-12-12T09:53:53.000Z</time>
      </trkpt>
      <trkpt lat="43.77542" lon="6.94943">
        <ele>842</ele>
        <time>2010-12-12T09:54:00.000Z</time>
      </trkpt>
      <trkpt lat="43.77537" lon="6.94948">
        <ele>842.40002441406</ele>
        <time>2010-12-12T09:54:08.000Z</time>
      </trkpt>
      <trkpt lat="43.77533" lon="6.94954">
        <ele>842.79998779297</ele>
        <time>2010-12-12T09:54:14.000Z</time>
      </trkpt>
      <trkpt lat="43.77532" lon="6.94955">
        <ele>843</ele>
        <time>2010-12-12T09:54:15.000Z</time>
      </trkpt>
      <trkpt lat="43.77523" lon="6.94959">
        <ele>843.59997558594</ele>
        <time>2010-12-12T09:54:23.000Z</time>
      </trkpt>
      <trkpt lat="43.7752" lon="6.94961">
        <ele>843.79998779297</ele>
        <time>2010-12-12T09:54:29.000Z</time>
      </trkpt>
      <trkpt lat="43.77518" lon="6.94962">
        <ele>844</ele>
        <time>2010-12-12T09:54:31.000Z</time>
      </trkpt>
      <trkpt lat="43.77511" lon="6.94967">
        <ele>844.59997558594</ele>
        <time>2010-12-12T09:54:38.000Z</time>
      </trkpt>
      <trkpt lat="43.77499" lon="6.94974">
        <ele>845.59997558594</ele>
        <time>2010-12-12T09:54:46.000Z</time>
      </trkpt>
      <trkpt lat="43.77496" lon="6.94976">
        <ele>846</ele>
        <time>2010-12-12T09:54:49.000Z</time>
      </trkpt>
      <trkpt lat="43.77488" lon="6.94978">
        <ele>847</ele>
        <time>2010-12-12T09:54:55.000Z</time>
      </trkpt>
      <trkpt lat="43.7748" lon="6.94981">
        <ele>847.79998779297</ele>
        <time>2010-12-12T09:55:02.000Z</time>
      </trkpt>
      <trkpt lat="43.77465" lon="6.94985">
        <ele>849.40002441406</ele>
        <time>2010-12-12T09:55:11.000Z</time>
      </trkpt>
      <trkpt lat="43.77454" lon="6.94987">
        <ele>850.59997558594</ele>
        <time>2010-12-12T09:55:18.000Z</time>
      </trkpt>
      <trkpt lat="43.77444" lon="6.94992">
        <ele>851.40002441406</ele>
        <time>2010-12-12T09:55:24.000Z</time>
      </trkpt>
      <trkpt lat="43.77434" lon="6.94997">
        <ele>852.40002441406</ele>
        <time>2010-12-12T09:55:31.000Z</time>
      </trkpt>
      <trkpt lat="43.77425" lon="6.95001">
        <ele>853.20001220703</ele>
        <time>2010-12-12T09:55:38.000Z</time>
      </trkpt>
      <trkpt lat="43.77419" lon="6.95004">
        <ele>853.79998779297</ele>
        <time>2010-12-12T09:55:42.000Z</time>
      </trkpt>
      <trkpt lat="43.7741" lon="6.95014">
        <ele>854.59997558594</ele>
        <time>2010-12-12T09:55:48.000Z</time>
      </trkpt>
      <trkpt lat="43.774" lon="6.95026">
        <ele>855.40002441406</ele>
        <time>2010-12-12T09:55:54.000Z</time>
      </trkpt>
      <trkpt lat="43.77387" lon="6.95039">
        <ele>856.20001220703</ele>
        <time>2010-12-12T09:56:01.000Z</time>
      </trkpt>
      <trkpt lat="43.77374" lon="6.95048">
        <ele>856.79998779297</ele>
        <time>2010-12-12T09:56:08.000Z</time>
      </trkpt>
      <trkpt lat="43.7736" lon="6.95055">
        <ele>857.20001220703</ele>
        <time>2010-12-12T09:56:16.000Z</time>
      </trkpt>
      <trkpt lat="43.77346" lon="6.9506">
        <ele>857.79998779297</ele>
        <time>2010-12-12T09:56:24.000Z</time>
      </trkpt>
      <trkpt lat="43.77334" lon="6.95063">
        <ele>858</ele>
        <time>2010-12-12T09:56:30.000Z</time>
      </trkpt>
      <trkpt lat="43.77319" lon="6.95067">
        <ele>857.20001220703</ele>
        <time>2010-12-12T09:56:37.000Z</time>
      </trkpt>
      <trkpt lat="43.7731" lon="6.95062">
        <ele>857.40002441406</ele>
        <time>2010-12-12T09:56:42.000Z</time>
      </trkpt>
      <trkpt lat="43.77309" lon="6.95062">
        <ele>857.40002441406</ele>
        <time>2010-12-12T09:56:46.000Z</time>
      </trkpt>
      <trkpt lat="43.7731" lon="6.95065">
        <ele>857.20001220703</ele>
        <time>2010-12-12T09:57:01.000Z</time>
      </trkpt>
      <trkpt lat="43.77307" lon="6.95063">
        <ele>857.20001220703</ele>
        <time>2010-12-12T09:57:20.000Z</time>
      </trkpt>
      <trkpt lat="43.77309" lon="6.95061">
        <ele>857.40002441406</ele>
        <time>2010-12-12T09:57:37.000Z</time>
      </trkpt>
      <trkpt lat="43.77308" lon="6.9506">
        <ele>857.40002441406</ele>
        <time>2010-12-12T09:57:50.000Z</time>
      </trkpt>
      <trkpt lat="43.77303" lon="6.95058">
        <ele>857.40002441406</ele>
        <time>2010-12-12T09:57:54.000Z</time>
      </trkpt>
      <trkpt lat="43.77289" lon="6.95052">
        <ele>857.40002441406</ele>
        <time>2010-12-12T09:58:01.000Z</time>
      </trkpt>
      <trkpt lat="43.77275" lon="6.95049">
        <ele>857.40002441406</ele>
        <time>2010-12-12T09:58:07.000Z</time>
      </trkpt>
      <trkpt lat="43.7726" lon="6.95044">
        <ele>857.40002441406</ele>
        <time>2010-12-12T09:58:13.000Z</time>
      </trkpt>
      <trkpt lat="43.77243" lon="6.95036">
        <ele>858.20001220703</ele>
        <time>2010-12-12T09:58:19.000Z</time>
      </trkpt>
      <trkpt lat="43.77225" lon="6.95022">
        <ele>859.79998779297</ele>
        <time>2010-12-12T09:58:26.000Z</time>
      </trkpt>
      <trkpt lat="43.77207" lon="6.95007">
        <ele>861</ele>
        <time>2010-12-12T09:58:32.000Z</time>
      </trkpt>
      <trkpt lat="43.77186" lon="6.94999">
        <ele>861.20001220703</ele>
        <time>2010-12-12T09:58:38.000Z</time>
      </trkpt>
      <trkpt lat="43.77169" lon="6.94993">
        <ele>862.20001220703</ele>
        <time>2010-12-12T09:58:44.000Z</time>
      </trkpt>
      <trkpt lat="43.77147" lon="6.94997">
        <ele>864.20001220703</ele>
        <time>2010-12-12T09:58:52.000Z</time>
      </trkpt>
      <trkpt lat="43.77136" lon="6.94997">
        <ele>865.79998779297</ele>
        <time>2010-12-12T09:58:58.000Z</time>
      </trkpt>
      <trkpt lat="43.77132" lon="6.94995">
        <ele>866.59997558594</ele>
        <time>2010-12-12T09:59:03.000Z</time>
      </trkpt>
      <trkpt lat="43.77129" lon="6.94996">
        <ele>866.79998779297</ele>
        <time>2010-12-12T09:59:08.000Z</time>
      </trkpt>
      <trkpt lat="43.77122" lon="6.94996">
        <ele>867.79998779297</ele>
        <time>2010-12-12T09:59:16.000Z</time>
      </trkpt>
      <trkpt lat="43.77114" lon="6.94994">
        <ele>869</ele>
        <time>2010-12-12T09:59:24.000Z</time>
      </trkpt>
      <trkpt lat="43.77107" lon="6.94993">
        <ele>870.20001220703</ele>
        <time>2010-12-12T09:59:31.000Z</time>
      </trkpt>
      <trkpt lat="43.77101" lon="6.94996">
        <ele>870.79998779297</ele>
        <time>2010-12-12T09:59:40.000Z</time>
      </trkpt>
      <trkpt lat="43.77096" lon="6.95001">
        <ele>871</ele>
        <time>2010-12-12T09:59:48.000Z</time>
      </trkpt>
      <trkpt lat="43.77093" lon="6.95006">
        <ele>871.40002441406</ele>
        <time>2010-12-12T09:59:54.000Z</time>
      </trkpt>
      <trkpt lat="43.77088" lon="6.95013">
        <ele>872.20001220703</ele>
        <time>2010-12-12T10:00:02.000Z</time>
      </trkpt>
      <trkpt lat="43.77084" lon="6.95017">
        <ele>872.79998779297</ele>
        <time>2010-12-12T10:00:08.000Z</time>
      </trkpt>
      <trkpt lat="43.7708" lon="6.9502">
        <ele>873.20001220703</ele>
        <time>2010-12-12T10:00:15.000Z</time>
      </trkpt>
      <trkpt lat="43.77074" lon="6.95025">
        <ele>873.59997558594</ele>
        <time>2010-12-12T10:00:23.000Z</time>
      </trkpt>
      <trkpt lat="43.77068" lon="6.9503">
        <ele>874</ele>
        <time>2010-12-12T10:00:29.000Z</time>
      </trkpt>
      <trkpt lat="43.77068" lon="6.95031">
        <ele>874.20001220703</ele>
        <time>2010-12-12T10:00:30.000Z</time>
      </trkpt>
      <trkpt lat="43.77064" lon="6.95034">
        <ele>874.40002441406</ele>
        <time>2010-12-12T10:00:37.000Z</time>
      </trkpt>
      <trkpt lat="43.77061" lon="6.95038">
        <ele>874.59997558594</ele>
        <time>2010-12-12T10:00:42.000Z</time>
      </trkpt>
      <trkpt lat="43.77053" lon="6.95046">
        <ele>875</ele>
        <time>2010-12-12T10:00:47.000Z</time>
      </trkpt>
      <trkpt lat="43.77039" lon="6.95059">
        <ele>875.59997558594</ele>
        <time>2010-12-12T10:00:56.000Z</time>
      </trkpt>
      <trkpt lat="43.77029" lon="6.95068">
        <ele>876</ele>
        <time>2010-12-12T10:01:02.000Z</time>
      </trkpt>
      <trkpt lat="43.77021" lon="6.95074">
        <ele>876.20001220703</ele>
        <time>2010-12-12T10:01:06.000Z</time>
      </trkpt>
      <trkpt lat="43.77013" lon="6.95083">
        <ele>876.20001220703</ele>
        <time>2010-12-12T10:01:12.000Z</time>
      </trkpt>
      <trkpt lat="43.77005" lon="6.95087">
        <ele>876.59997558594</ele>
        <time>2010-12-12T10:01:17.000Z</time>
      </trkpt>
      <trkpt lat="43.76998" lon="6.95097">
        <ele>876.79998779297</ele>
        <time>2010-12-12T10:01:22.000Z</time>
      </trkpt>
      <trkpt lat="43.76989" lon="6.95104">
        <ele>876.59997558594</ele>
        <time>2010-12-12T10:01:28.000Z</time>
      </trkpt>
      <trkpt lat="43.76982" lon="6.95106">
        <ele>876.40002441406</ele>
        <time>2010-12-12T10:01:31.000Z</time>
      </trkpt>
      <trkpt lat="43.7697" lon="6.95098">
        <ele>876.20001220703</ele>
        <time>2010-12-12T10:01:37.000Z</time>
      </trkpt>
      <trkpt lat="43.76957" lon="6.95104">
        <ele>875.59997558594</ele>
        <time>2010-12-12T10:01:41.000Z</time>
      </trkpt>
      <trkpt lat="43.76935" lon="6.95109">
        <ele>874.59997558594</ele>
        <time>2010-12-12T10:01:46.000Z</time>
      </trkpt>
      <trkpt lat="43.7691" lon="6.95124">
        <ele>873.59997558594</ele>
        <time>2010-12-12T10:01:54.000Z</time>
      </trkpt>
      <trkpt lat="43.76892" lon="6.95139">
        <ele>873</ele>
        <time>2010-12-12T10:01:59.000Z</time>
      </trkpt>
      <trkpt lat="43.76871" lon="6.95157">
        <ele>871</ele>
        <time>2010-12-12T10:02:04.000Z</time>
      </trkpt>
      <trkpt lat="43.76854" lon="6.95167">
        <ele>869.20001220703</ele>
        <time>2010-12-12T10:02:09.000Z</time>
      </trkpt>
      <trkpt lat="43.76829" lon="6.95191">
        <ele>867.20001220703</ele>
        <time>2010-12-12T10:02:16.000Z</time>
      </trkpt>
      <trkpt lat="43.76819" lon="6.95201">
        <ele>867.40002441406</ele>
        <time>2010-12-12T10:02:20.000Z</time>
      </trkpt>
      <trkpt lat="43.76808" lon="6.95213">
        <ele>867.20001220703</ele>
        <time>2010-12-12T10:02:25.000Z</time>
      </trkpt>
      <trkpt lat="43.76798" lon="6.95226">
        <ele>866.59997558594</ele>
        <time>2010-12-12T10:02:30.000Z</time>
      </trkpt>
      <trkpt lat="43.76783" lon="6.95232">
        <ele>866.79998779297</ele>
        <time>2010-12-12T10:02:36.000Z</time>
      </trkpt>
      <trkpt lat="43.76771" lon="6.95236">
        <ele>867</ele>
        <time>2010-12-12T10:02:41.000Z</time>
      </trkpt>
      <trkpt lat="43.76756" lon="6.95253">
        <ele>865.40002441406</ele>
        <time>2010-12-12T10:02:47.000Z</time>
      </trkpt>
      <trkpt lat="43.7674" lon="6.95268">
        <ele>865.79998779297</ele>
        <time>2010-12-12T10:02:53.000Z</time>
      </trkpt>
      <trkpt lat="43.76733" lon="6.95273">
        <ele>866.40002441406</ele>
        <time>2010-12-12T10:02:58.000Z</time>
      </trkpt>
      <trkpt lat="43.76724" lon="6.95276">
        <ele>867.40002441406</ele>
        <time>2010-12-12T10:03:03.000Z</time>
      </trkpt>
      <trkpt lat="43.76717" lon="6.95276">
        <ele>868.20001220703</ele>
        <time>2010-12-12T10:03:09.000Z</time>
      </trkpt>
      <trkpt lat="43.76711" lon="6.95277">
        <ele>869</ele>
        <time>2010-12-12T10:03:16.000Z</time>
      </trkpt>
      <trkpt lat="43.76704" lon="6.95278">
        <ele>869.79998779297</ele>
        <time>2010-12-12T10:03:23.000Z</time>
      </trkpt>
      <trkpt lat="43.76697" lon="6.9528">
        <ele>870.40002441406</ele>
        <time>2010-12-12T10:03:31.000Z</time>
      </trkpt>
      <trkpt lat="43.76693" lon="6.95279">
        <ele>871.20001220703</ele>
        <time>2010-12-12T10:03:40.000Z</time>
      </trkpt>
      <trkpt lat="43.7669" lon="6.95279">
        <ele>871.59997558594</ele>
        <time>2010-12-12T10:03:48.000Z</time>
      </trkpt>
      <trkpt lat="43.76686" lon="6.95279">
        <ele>872</ele>
        <time>2010-12-12T10:03:53.000Z</time>
      </trkpt>
      <trkpt lat="43.7668" lon="6.95279">
        <ele>872.79998779297</ele>
        <time>2010-12-12T10:04:01.000Z</time>
      </trkpt>
      <trkpt lat="43.76674" lon="6.95278">
        <ele>873.59997558594</ele>
        <time>2010-12-12T10:04:08.000Z</time>
      </trkpt>
      <trkpt lat="43.76668" lon="6.95277">
        <ele>874.40002441406</ele>
        <time>2010-12-12T10:04:15.000Z</time>
      </trkpt>
      <trkpt lat="43.76665" lon="6.95277">
        <ele>875</ele>
        <time>2010-12-12T10:04:21.000Z</time>
      </trkpt>
      <trkpt lat="43.7666" lon="6.95277">
        <ele>876</ele>
        <time>2010-12-12T10:04:28.000Z</time>
      </trkpt>
      <trkpt lat="43.76653" lon="6.95276">
        <ele>877.20001220703</ele>
        <time>2010-12-12T10:04:36.000Z</time>
      </trkpt>
      <trkpt lat="43.76648" lon="6.95274">
        <ele>878.59997558594</ele>
        <time>2010-12-12T10:04:43.000Z</time>
      </trkpt>
      <trkpt lat="43.76642" lon="6.95269">
        <ele>880.20001220703</ele>
        <time>2010-12-12T10:04:49.000Z</time>
      </trkpt>
      <trkpt lat="43.76639" lon="6.95265">
        <ele>881.40002441406</ele>
        <time>2010-12-12T10:04:55.000Z</time>
      </trkpt>
      <trkpt lat="43.76637" lon="6.95264">
        <ele>882</ele>
        <time>2010-12-12T10:05:00.000Z</time>
      </trkpt>
      <trkpt lat="43.76634" lon="6.95271">
        <ele>881.59997558594</ele>
        <time>2010-12-12T10:05:06.000Z</time>
      </trkpt>
      <trkpt lat="43.76633" lon="6.95278">
        <ele>880.59997558594</ele>
        <time>2010-12-12T10:05:11.000Z</time>
      </trkpt>
      <trkpt lat="43.76629" lon="6.95287">
        <ele>880</ele>
        <time>2010-12-12T10:05:20.000Z</time>
      </trkpt>
      <trkpt lat="43.76626" lon="6.95285">
        <ele>881</ele>
        <time>2010-12-12T10:05:25.000Z</time>
      </trkpt>
      <trkpt lat="43.76626" lon="6.95277">
        <ele>882.20001220703</ele>
        <time>2010-12-12T10:05:34.000Z</time>
      </trkpt>
      <trkpt lat="43.76623" lon="6.95277">
        <ele>882.59997558594</ele>
        <time>2010-12-12T10:05:39.000Z</time>
      </trkpt>
      <trkpt lat="43.76617" lon="6.95278">
        <ele>883.59997558594</ele>
        <time>2010-12-12T10:05:45.000Z</time>
      </trkpt>
      <trkpt lat="43.76612" lon="6.9528">
        <ele>884.40002441406</ele>
        <time>2010-12-12T10:05:50.000Z</time>
      </trkpt>
      <trkpt lat="43.76603" lon="6.95281">
        <ele>885.79998779297</ele>
        <time>2010-12-12T10:05:59.000Z</time>
      </trkpt>
      <trkpt lat="43.76602" lon="6.95282">
        <ele>885.79998779297</ele>
        <time>2010-12-12T10:06:06.000Z</time>
      </trkpt>
      <trkpt lat="43.76596" lon="6.95283">
        <ele>886.79998779297</ele>
        <time>2010-12-12T10:06:12.000Z</time>
      </trkpt>
      <trkpt lat="43.76584" lon="6.95286">
        <ele>888.20001220703</ele>
        <time>2010-12-12T10:06:18.000Z</time>
      </trkpt>
      <trkpt lat="43.76569" lon="6.95289">
        <ele>893</ele>
        <time>2010-12-12T10:06:26.000Z</time>
      </trkpt>
      <trkpt lat="43.7656" lon="6.95291">
        <ele>896</ele>
        <time>2010-12-12T10:06:32.000Z</time>
      </trkpt>
      <trkpt lat="43.76551" lon="6.95294">
        <ele>898.59997558594</ele>
        <time>2010-12-12T10:06:38.000Z</time>
      </trkpt>
      <trkpt lat="43.76548" lon="6.95296">
        <ele>899.20001220703</ele>
        <time>2010-12-12T10:06:44.000Z</time>
      </trkpt>
      <trkpt lat="43.76544" lon="6.953">
        <ele>900</ele>
        <time>2010-12-12T10:06:48.000Z</time>
      </trkpt>
      <trkpt lat="43.76536" lon="6.95305">
        <ele>902</ele>
        <time>2010-12-12T10:06:55.000Z</time>
      </trkpt>
      <trkpt lat="43.76532" lon="6.95309">
        <ele>902.79998779297</ele>
        <time>2010-12-12T10:07:02.000Z</time>
      </trkpt>
      <trkpt lat="43.76529" lon="6.95313">
        <ele>903.20001220703</ele>
        <time>2010-12-12T10:07:09.000Z</time>
      </trkpt>
      <trkpt lat="43.76529" lon="6.9532">
        <ele>901.79998779297</ele>
        <time>2010-12-12T10:07:14.000Z</time>
      </trkpt>
      <trkpt lat="43.7653" lon="6.95322">
        <ele>901.20001220703</ele>
        <time>2010-12-12T10:07:15.000Z</time>
      </trkpt>
      <trkpt lat="43.76534" lon="6.95354">
        <ele>894.40002441406</ele>
        <time>2010-12-12T10:07:23.000Z</time>
      </trkpt>
      <trkpt lat="43.76531" lon="6.95374">
        <ele>891.79998779297</ele>
        <time>2010-12-12T10:07:28.000Z</time>
      </trkpt>
      <trkpt lat="43.76525" lon="6.95386">
        <ele>892</ele>
        <time>2010-12-12T10:07:34.000Z</time>
      </trkpt>
      <trkpt lat="43.76518" lon="6.95401">
        <ele>892</ele>
        <time>2010-12-12T10:07:41.000Z</time>
      </trkpt>
      <trkpt lat="43.76509" lon="6.95417">
        <ele>891.59997558594</ele>
        <time>2010-12-12T10:07:49.000Z</time>
      </trkpt>
      <trkpt lat="43.765" lon="6.9543">
        <ele>890.59997558594</ele>
        <time>2010-12-12T10:07:56.000Z</time>
      </trkpt>
      <trkpt lat="43.76496" lon="6.95431">
        <ele>890.59997558594</ele>
        <time>2010-12-12T10:19:49.000Z</time>
      </trkpt>
      <trkpt lat="43.76496" lon="6.95431">
        <ele>890.59997558594</ele>
        <time>2010-12-12T10:19:50.000Z</time>
      </trkpt>
      <trkpt lat="43.76491" lon="6.95436">
        <ele>889.79998779297</ele>
        <time>2010-12-12T10:19:54.000Z</time>
      </trkpt>
      <trkpt lat="43.76484" lon="6.95442">
        <ele>888.40002441406</ele>
        <time>2010-12-12T10:19:58.000Z</time>
      </trkpt>
      <trkpt lat="43.76471" lon="6.95448">
        <ele>887.59997558594</ele>
        <time>2010-12-12T10:20:04.000Z</time>
      </trkpt>
      <trkpt lat="43.7646" lon="6.95448">
        <ele>888.40002441406</ele>
        <time>2010-12-12T10:20:08.000Z</time>
      </trkpt>
      <trkpt lat="43.76447" lon="6.95451">
        <ele>888.59997558594</ele>
        <time>2010-12-12T10:20:13.000Z</time>
      </trkpt>
      <trkpt lat="43.76429" lon="6.95449">
        <ele>891</ele>
        <time>2010-12-12T10:20:19.000Z</time>
      </trkpt>
      <trkpt lat="43.76413" lon="6.95447">
        <ele>893.20001220703</ele>
        <time>2010-12-12T10:20:24.000Z</time>
      </trkpt>
      <trkpt lat="43.76398" lon="6.95439">
        <ele>897.20001220703</ele>
        <time>2010-12-12T10:20:30.000Z</time>
      </trkpt>
      <trkpt lat="43.76384" lon="6.95439">
        <ele>899</ele>
        <time>2010-12-12T10:20:35.000Z</time>
      </trkpt>
      <trkpt lat="43.76367" lon="6.95445">
        <ele>898.79998779297</ele>
        <time>2010-12-12T10:20:41.000Z</time>
      </trkpt>
      <trkpt lat="43.76353" lon="6.95447">
        <ele>899.79998779297</ele>
        <time>2010-12-12T10:20:46.000Z</time>
      </trkpt>
      <trkpt lat="43.7634" lon="6.95444">
        <ele>902</ele>
        <time>2010-12-12T10:20:52.000Z</time>
      </trkpt>
      <trkpt lat="43.76336" lon="6.95444">
        <ele>902.20001220703</ele>
        <time>2010-12-12T10:20:58.000Z</time>
      </trkpt>
      <trkpt lat="43.76334" lon="6.95444">
        <ele>902.59997558594</ele>
        <time>2010-12-12T10:21:03.000Z</time>
      </trkpt>
      <trkpt lat="43.7633" lon="6.95444">
        <ele>904</ele>
        <time>2010-12-12T10:21:09.000Z</time>
      </trkpt>
      <trkpt lat="43.76324" lon="6.9545">
        <ele>904.40002441406</ele>
        <time>2010-12-12T10:21:17.000Z</time>
      </trkpt>
      <trkpt lat="43.76323" lon="6.95455">
        <ele>903.40002441406</ele>
        <time>2010-12-12T10:21:22.000Z</time>
      </trkpt>
      <trkpt lat="43.76318" lon="6.95469">
        <ele>902</ele>
        <time>2010-12-12T10:21:29.000Z</time>
      </trkpt>
      <trkpt lat="43.76312" lon="6.95473">
        <ele>903.20001220703</ele>
        <time>2010-12-12T10:21:33.000Z</time>
      </trkpt>
      <trkpt lat="43.76311" lon="6.95473">
        <ele>903.59997558594</ele>
        <time>2010-12-12T10:21:41.000Z</time>
      </trkpt>
      <trkpt lat="43.76305" lon="6.95476">
        <ele>905.40002441406</ele>
        <time>2010-12-12T10:21:48.000Z</time>
      </trkpt>
      <trkpt lat="43.76302" lon="6.95478">
        <ele>906.20001220703</ele>
        <time>2010-12-12T10:21:54.000Z</time>
      </trkpt>
      <trkpt lat="43.76299" lon="6.95482">
        <ele>906.40002441406</ele>
        <time>2010-12-12T10:22:01.000Z</time>
      </trkpt>
      <trkpt lat="43.76298" lon="6.95484">
        <ele>906.40002441406</ele>
        <time>2010-12-12T10:22:07.000Z</time>
      </trkpt>
      <trkpt lat="43.76297" lon="6.95485">
        <ele>906.40002441406</ele>
        <time>2010-12-12T10:22:12.000Z</time>
      </trkpt>
      <trkpt lat="43.76293" lon="6.95489">
        <ele>907.20001220703</ele>
        <time>2010-12-12T10:22:16.000Z</time>
      </trkpt>
      <trkpt lat="43.76285" lon="6.95496">
        <ele>909</ele>
        <time>2010-12-12T10:22:22.000Z</time>
      </trkpt>
      <trkpt lat="43.76276" lon="6.95504">
        <ele>911.20001220703</ele>
        <time>2010-12-12T10:22:28.000Z</time>
      </trkpt>
      <trkpt lat="43.76267" lon="6.9551">
        <ele>913.59997558594</ele>
        <time>2010-12-12T10:22:34.000Z</time>
      </trkpt>
      <trkpt lat="43.76262" lon="6.95518">
        <ele>914.40002441406</ele>
        <time>2010-12-12T10:22:41.000Z</time>
      </trkpt>
      <trkpt lat="43.76259" lon="6.9552">
        <ele>915.20001220703</ele>
        <time>2010-12-12T10:22:46.000Z</time>
      </trkpt>
      <trkpt lat="43.76257" lon="6.95523">
        <ele>915.59997558594</ele>
        <time>2010-12-12T10:22:49.000Z</time>
      </trkpt>
      <trkpt lat="43.76251" lon="6.95538">
        <ele>915</ele>
        <time>2010-12-12T10:22:56.000Z</time>
      </trkpt>
      <trkpt lat="43.76241" lon="6.95556">
        <ele>916.79998779297</ele>
        <time>2010-12-12T10:23:04.000Z</time>
      </trkpt>
      <trkpt lat="43.76236" lon="6.95563">
        <ele>918</ele>
        <time>2010-12-12T10:23:07.000Z</time>
      </trkpt>
      <trkpt lat="43.76232" lon="6.95568">
        <ele>919.20001220703</ele>
        <time>2010-12-12T10:23:12.000Z</time>
      </trkpt>
      <trkpt lat="43.7623" lon="6.9557">
        <ele>919.79998779297</ele>
        <time>2010-12-12T10:23:18.000Z</time>
      </trkpt>
      <trkpt lat="43.76228" lon="6.95573">
        <ele>920.40002441406</ele>
        <time>2010-12-12T10:23:25.000Z</time>
      </trkpt>
      <trkpt lat="43.76225" lon="6.95577">
        <ele>921.40002441406</ele>
        <time>2010-12-12T10:23:30.000Z</time>
      </trkpt>
      <trkpt lat="43.76218" lon="6.95585">
        <ele>923.20001220703</ele>
        <time>2010-12-12T10:23:39.000Z</time>
      </trkpt>
      <trkpt lat="43.76216" lon="6.95589">
        <ele>923.59997558594</ele>
        <time>2010-12-12T10:23:46.000Z</time>
      </trkpt>
      <trkpt lat="43.76214" lon="6.9559">
        <ele>924.20001220703</ele>
        <time>2010-12-12T10:23:50.000Z</time>
      </trkpt>
      <trkpt lat="43.76206" lon="6.95603">
        <ele>926.40002441406</ele>
        <time>2010-12-12T10:23:57.000Z</time>
      </trkpt>
      <trkpt lat="43.76197" lon="6.95614">
        <ele>928.79998779297</ele>
        <time>2010-12-12T10:24:04.000Z</time>
      </trkpt>
      <trkpt lat="43.76197" lon="6.95616">
        <ele>928.59997558594</ele>
        <time>2010-12-12T10:24:08.000Z</time>
      </trkpt>
      <trkpt lat="43.76195" lon="6.95617">
        <ele>929.20001220703</ele>
        <time>2010-12-12T10:24:14.000Z</time>
      </trkpt>
      <trkpt lat="43.76194" lon="6.95621">
        <ele>929</ele>
        <time>2010-12-12T10:24:19.000Z</time>
      </trkpt>
      <trkpt lat="43.76193" lon="6.95623">
        <ele>928.79998779297</ele>
        <time>2010-12-12T10:24:21.000Z</time>
      </trkpt>
      <trkpt lat="43.76185" lon="6.95639">
        <ele>929.79998779297</ele>
        <time>2010-12-12T10:24:28.000Z</time>
      </trkpt>
      <trkpt lat="43.76177" lon="6.95652">
        <ele>931</ele>
        <time>2010-12-12T10:24:35.000Z</time>
      </trkpt>
      <trkpt lat="43.76173" lon="6.95661">
        <ele>931.20001220703</ele>
        <time>2010-12-12T10:24:40.000Z</time>
      </trkpt>
      <trkpt lat="43.76165" lon="6.95675">
        <ele>932.20001220703</ele>
        <time>2010-12-12T10:24:48.000Z</time>
      </trkpt>
      <trkpt lat="43.76161" lon="6.9568">
        <ele>933</ele>
        <time>2010-12-12T10:24:52.000Z</time>
      </trkpt>
      <trkpt lat="43.7616" lon="6.95682">
        <ele>933.40002441406</ele>
        <time>2010-12-12T10:24:58.000Z</time>
      </trkpt>
      <trkpt lat="43.76154" lon="6.95689">
        <ele>934.79998779297</ele>
        <time>2010-12-12T10:25:07.000Z</time>
      </trkpt>
      <trkpt lat="43.76148" lon="6.95691">
        <ele>936.79998779297</ele>
        <time>2010-12-12T10:25:15.000Z</time>
      </trkpt>
      <trkpt lat="43.76145" lon="6.95698">
        <ele>937</ele>
        <time>2010-12-12T10:25:22.000Z</time>
      </trkpt>
      <trkpt lat="43.7614" lon="6.95704">
        <ele>937.59997558594</ele>
        <time>2010-12-12T10:25:28.000Z</time>
      </trkpt>
      <trkpt lat="43.76137" lon="6.95709">
        <ele>938</ele>
        <time>2010-12-12T10:25:34.000Z</time>
      </trkpt>
      <trkpt lat="43.76136" lon="6.95711">
        <ele>938</ele>
        <time>2010-12-12T10:25:40.000Z</time>
      </trkpt>
      <trkpt lat="43.76131" lon="6.95716">
        <ele>939.20001220703</ele>
        <time>2010-12-12T10:25:45.000Z</time>
      </trkpt>
      <trkpt lat="43.76122" lon="6.95724">
        <ele>941</ele>
        <time>2010-12-12T10:25:52.000Z</time>
      </trkpt>
      <trkpt lat="43.76116" lon="6.95729">
        <ele>942.20001220703</ele>
        <time>2010-12-12T10:25:59.000Z</time>
      </trkpt>
      <trkpt lat="43.76108" lon="6.9574">
        <ele>943.20001220703</ele>
        <time>2010-12-12T10:26:06.000Z</time>
      </trkpt>
      <trkpt lat="43.76101" lon="6.95747">
        <ele>943.79998779297</ele>
        <time>2010-12-12T10:26:11.000Z</time>
      </trkpt>
      <trkpt lat="43.76099" lon="6.95749">
        <ele>944.40002441406</ele>
        <time>2010-12-12T10:26:15.000Z</time>
      </trkpt>
      <trkpt lat="43.76089" lon="6.95763">
        <ele>946</ele>
        <time>2010-12-12T10:26:23.000Z</time>
      </trkpt>
      <trkpt lat="43.7608" lon="6.95776">
        <ele>947.20001220703</ele>
        <time>2010-12-12T10:26:29.000Z</time>
      </trkpt>
      <trkpt lat="43.76069" lon="6.95789">
        <ele>949.20001220703</ele>
        <time>2010-12-12T10:26:37.000Z</time>
      </trkpt>
      <trkpt lat="43.76064" lon="6.95799">
        <ele>949.59997558594</ele>
        <time>2010-12-12T10:26:42.000Z</time>
      </trkpt>
      <trkpt lat="43.76062" lon="6.95801">
        <ele>950.20001220703</ele>
        <time>2010-12-12T10:26:48.000Z</time>
      </trkpt>
      <trkpt lat="43.7606" lon="6.95802">
        <ele>950.40002441406</ele>
        <time>2010-12-12T10:26:55.000Z</time>
      </trkpt>
      <trkpt lat="43.76057" lon="6.95807">
        <ele>950.79998779297</ele>
        <time>2010-12-12T10:27:01.000Z</time>
      </trkpt>
      <trkpt lat="43.76049" lon="6.95814">
        <ele>952.59997558594</ele>
        <time>2010-12-12T10:27:08.000Z</time>
      </trkpt>
      <trkpt lat="43.76039" lon="6.95814">
        <ele>956</ele>
        <time>2010-12-12T10:27:14.000Z</time>
      </trkpt>
      <trkpt lat="43.76033" lon="6.95812">
        <ele>958.40002441406</ele>
        <time>2010-12-12T10:27:19.000Z</time>
      </trkpt>
      <trkpt lat="43.7603" lon="6.95812">
        <ele>959.20001220703</ele>
        <time>2010-12-12T10:27:24.000Z</time>
      </trkpt>
      <trkpt lat="43.76026" lon="6.95815">
        <ele>960.40002441406</ele>
        <time>2010-12-12T10:27:30.000Z</time>
      </trkpt>
      <trkpt lat="43.76019" lon="6.95819">
        <ele>962</ele>
        <time>2010-12-12T10:27:37.000Z</time>
      </trkpt>
      <trkpt lat="43.76012" lon="6.95822">
        <ele>963.79998779297</ele>
        <time>2010-12-12T10:27:45.000Z</time>
      </trkpt>
      <trkpt lat="43.76006" lon="6.95825">
        <ele>965.40002441406</ele>
        <time>2010-12-12T10:27:54.000Z</time>
      </trkpt>
      <trkpt lat="43.76" lon="6.95828">
        <ele>966.79998779297</ele>
        <time>2010-12-12T10:28:02.000Z</time>
      </trkpt>
      <trkpt lat="43.75997" lon="6.95829">
        <ele>967.59997558594</ele>
        <time>2010-12-12T10:28:09.000Z</time>
      </trkpt>
      <trkpt lat="43.75991" lon="6.9583">
        <ele>968.40002441406</ele>
        <time>2010-12-12T10:28:17.000Z</time>
      </trkpt>
      <trkpt lat="43.75985" lon="6.95832">
        <ele>969.79998779297</ele>
        <time>2010-12-12T10:28:24.000Z</time>
      </trkpt>
      <trkpt lat="43.75981" lon="6.95833">
        <ele>970.59997558594</ele>
        <time>2010-12-12T10:28:30.000Z</time>
      </trkpt>
      <trkpt lat="43.75974" lon="6.95833">
        <ele>972.20001220703</ele>
        <time>2010-12-12T10:28:38.000Z</time>
      </trkpt>
      <trkpt lat="43.75969" lon="6.95835">
        <ele>973.40002441406</ele>
        <time>2010-12-12T10:28:44.000Z</time>
      </trkpt>
      <trkpt lat="43.75961" lon="6.95837">
        <ele>975.40002441406</ele>
        <time>2010-12-12T10:28:52.000Z</time>
      </trkpt>
      <trkpt lat="43.7595" lon="6.95839">
        <ele>978</ele>
        <time>2010-12-12T10:29:01.000Z</time>
      </trkpt>
      <trkpt lat="43.7594" lon="6.95839">
        <ele>980.40002441406</ele>
        <time>2010-12-12T10:29:10.000Z</time>
      </trkpt>
      <trkpt lat="43.75934" lon="6.95838">
        <ele>981.79998779297</ele>
        <time>2010-12-12T10:29:17.000Z</time>
      </trkpt>
      <trkpt lat="43.75932" lon="6.95837">
        <ele>982.20001220703</ele>
        <time>2010-12-12T10:29:22.000Z</time>
      </trkpt>
      <trkpt lat="43.75923" lon="6.95836">
        <ele>984.40002441406</ele>
        <time>2010-12-12T10:29:27.000Z</time>
      </trkpt>
      <trkpt lat="43.75922" lon="6.95843">
        <ele>984.79998779297</ele>
        <time>2010-12-12T10:29:31.000Z</time>
      </trkpt>
      <trkpt lat="43.75923" lon="6.95845">
        <ele>984.59997558594</ele>
        <time>2010-12-12T10:29:32.000Z</time>
      </trkpt>
      <trkpt lat="43.75925" lon="6.95852">
        <ele>984.40002441406</ele>
        <time>2010-12-12T10:29:38.000Z</time>
      </trkpt>
      <trkpt lat="43.75922" lon="6.95852">
        <ele>985</ele>
        <time>2010-12-12T10:29:46.000Z</time>
      </trkpt>
      <trkpt lat="43.75921" lon="6.9585">
        <ele>985.20001220703</ele>
        <time>2010-12-12T10:29:47.000Z</time>
      </trkpt>
      <trkpt lat="43.75915" lon="6.95844">
        <ele>986.59997558594</ele>
        <time>2010-12-12T10:29:53.000Z</time>
      </trkpt>
      <trkpt lat="43.75906" lon="6.9584">
        <ele>988.20001220703</ele>
        <time>2010-12-12T10:30:00.000Z</time>
      </trkpt>
      <trkpt lat="43.75905" lon="6.95839">
        <ele>988.59997558594</ele>
        <time>2010-12-12T10:30:04.000Z</time>
      </trkpt>
      <trkpt lat="43.759" lon="6.95837">
        <ele>989.40002441406</ele>
        <time>2010-12-12T10:30:11.000Z</time>
      </trkpt>
      <trkpt lat="43.75904" lon="6.95845">
        <ele>988.79998779297</ele>
        <time>2010-12-12T10:30:17.000Z</time>
      </trkpt>
      <trkpt lat="43.75905" lon="6.95847">
        <ele>988.59997558594</ele>
        <time>2010-12-12T10:30:18.000Z</time>
      </trkpt>
      <trkpt lat="43.75906" lon="6.95858">
        <ele>988.59997558594</ele>
        <time>2010-12-12T10:30:26.000Z</time>
      </trkpt>
      <trkpt lat="43.75907" lon="6.95867">
        <ele>988.40002441406</ele>
        <time>2010-12-12T10:30:33.000Z</time>
      </trkpt>
      <trkpt lat="43.75909" lon="6.95875">
        <ele>988.20001220703</ele>
        <time>2010-12-12T10:30:39.000Z</time>
      </trkpt>
      <trkpt lat="43.75909" lon="6.95877">
        <ele>988.20001220703</ele>
        <time>2010-12-12T10:30:40.000Z</time>
      </trkpt>
      <trkpt lat="43.75908" lon="6.95885">
        <ele>988.59997558594</ele>
        <time>2010-12-12T10:30:45.000Z</time>
      </trkpt>
      <trkpt lat="43.7591" lon="6.95888">
        <ele>988.20001220703</ele>
        <time>2010-12-12T10:30:51.000Z</time>
      </trkpt>
      <trkpt lat="43.75919" lon="6.95905">
        <ele>987.20001220703</ele>
        <time>2010-12-12T10:30:59.000Z</time>
      </trkpt>
      <trkpt lat="43.75925" lon="6.95918">
        <ele>986.20001220703</ele>
        <time>2010-12-12T10:31:05.000Z</time>
      </trkpt>
      <trkpt lat="43.75933" lon="6.95929">
        <ele>984.59997558594</ele>
        <time>2010-12-12T10:31:11.000Z</time>
      </trkpt>
      <trkpt lat="43.75935" lon="6.95931">
        <ele>984.40002441406</ele>
        <time>2010-12-12T10:31:12.000Z</time>
      </trkpt>
      <trkpt lat="43.75934" lon="6.9594">
        <ele>985.20001220703</ele>
        <time>2010-12-12T10:31:16.000Z</time>
      </trkpt>
      <trkpt lat="43.75933" lon="6.95944">
        <ele>985.40002441406</ele>
        <time>2010-12-12T10:31:22.000Z</time>
      </trkpt>
      <trkpt lat="43.75932" lon="6.95953">
        <ele>986.20001220703</ele>
        <time>2010-12-12T10:31:26.000Z</time>
      </trkpt>
      <trkpt lat="43.75929" lon="6.9597">
        <ele>987.20001220703</ele>
        <time>2010-12-12T10:31:32.000Z</time>
      </trkpt>
      <trkpt lat="43.75929" lon="6.95974">
        <ele>987.59997558594</ele>
        <time>2010-12-12T10:31:34.000Z</time>
      </trkpt>
      <trkpt lat="43.75927" lon="6.95981">
        <ele>988.20001220703</ele>
        <time>2010-12-12T10:31:41.000Z</time>
      </trkpt>
      <trkpt lat="43.75924" lon="6.95991">
        <ele>989.20001220703</ele>
        <time>2010-12-12T10:31:48.000Z</time>
      </trkpt>
      <trkpt lat="43.75925" lon="6.95995">
        <ele>989.20001220703</ele>
        <time>2010-12-12T10:31:51.000Z</time>
      </trkpt>
      <trkpt lat="43.7592" lon="6.96005">
        <ele>990</ele>
        <time>2010-12-12T10:31:58.000Z</time>
      </trkpt>
      <trkpt lat="43.75919" lon="6.96008">
        <ele>990</ele>
        <time>2010-12-12T10:32:00.000Z</time>
      </trkpt>
      <trkpt lat="43.75917" lon="6.96017">
        <ele>990</ele>
        <time>2010-12-12T10:32:07.000Z</time>
      </trkpt>
      <trkpt lat="43.75917" lon="6.96018">
        <ele>990</ele>
        <time>2010-12-12T10:32:14.000Z</time>
      </trkpt>
      <trkpt lat="43.75917" lon="6.9602">
        <ele>989.79998779297</ele>
        <time>2010-12-12T10:32:23.000Z</time>
      </trkpt>
      <trkpt lat="43.75916" lon="6.96019">
        <ele>990</ele>
        <time>2010-12-12T10:32:39.000Z</time>
      </trkpt>
      <trkpt lat="43.75916" lon="6.9602">
        <ele>990</ele>
        <time>2010-12-12T10:32:54.000Z</time>
      </trkpt>
      <trkpt lat="43.75915" lon="6.96021">
        <ele>990</ele>
        <time>2010-12-12T10:32:59.000Z</time>
      </trkpt>
      <trkpt lat="43.75913" lon="6.9602">
        <ele>990</ele>
        <time>2010-12-12T10:33:04.000Z</time>
      </trkpt>
      <trkpt lat="43.75915" lon="6.96021">
        <ele>990</ele>
        <time>2010-12-12T10:33:25.000Z</time>
      </trkpt>
      <trkpt lat="43.75914" lon="6.96024">
        <ele>989.79998779297</ele>
        <time>2010-12-12T10:33:31.000Z</time>
      </trkpt>
      <trkpt lat="43.75913" lon="6.96025">
        <ele>989.79998779297</ele>
        <time>2010-12-12T10:33:32.000Z</time>
      </trkpt>
      <trkpt lat="43.75901" lon="6.96045">
        <ele>988.79998779297</ele>
        <time>2010-12-12T10:33:39.000Z</time>
      </trkpt>
      <trkpt lat="43.7588" lon="6.96069">
        <ele>987.40002441406</ele>
        <time>2010-12-12T10:33:45.000Z</time>
      </trkpt>
      <trkpt lat="43.75858" lon="6.96088">
        <ele>986</ele>
        <time>2010-12-12T10:33:50.000Z</time>
      </trkpt>
      <trkpt lat="43.75846" lon="6.96102">
        <ele>984.79998779297</ele>
        <time>2010-12-12T10:33:53.000Z</time>
      </trkpt>
      <trkpt lat="43.75829" lon="6.96119">
        <ele>983.79998779297</ele>
        <time>2010-12-12T10:33:57.000Z</time>
      </trkpt>
      <trkpt lat="43.75816" lon="6.96136">
        <ele>982.79998779297</ele>
        <time>2010-12-12T10:34:01.000Z</time>
      </trkpt>
      <trkpt lat="43.7581" lon="6.96146">
        <ele>982.20001220703</ele>
        <time>2010-12-12T10:34:06.000Z</time>
      </trkpt>
      <trkpt lat="43.7581" lon="6.96145">
        <ele>982.20001220703</ele>
        <time>2010-12-12T10:34:13.000Z</time>
      </trkpt>
      <trkpt lat="43.7581" lon="6.96148">
        <ele>982</ele>
        <time>2010-12-12T10:34:18.000Z</time>
      </trkpt>
      <trkpt lat="43.75809" lon="6.9615">
        <ele>981.79998779297</ele>
        <time>2010-12-12T10:34:23.000Z</time>
      </trkpt>
      <trkpt lat="43.7581" lon="6.96151">
        <ele>981.79998779297</ele>
        <time>2010-12-12T10:34:31.000Z</time>
      </trkpt>
      <trkpt lat="43.75809" lon="6.96153">
        <ele>981.79998779297</ele>
        <time>2010-12-12T10:34:54.000Z</time>
      </trkpt>
      <trkpt lat="43.75809" lon="6.96156">
        <ele>981.59997558594</ele>
        <time>2010-12-12T10:35:02.000Z</time>
      </trkpt>
      <trkpt lat="43.75788" lon="6.96167">
        <ele>980.79998779297</ele>
        <time>2010-12-12T10:35:09.000Z</time>
      </trkpt>
      <trkpt lat="43.75767" lon="6.9618">
        <ele>980.20001220703</ele>
        <time>2010-12-12T10:35:14.000Z</time>
      </trkpt>
      <trkpt lat="43.75752" lon="6.962">
        <ele>978.79998779297</ele>
        <time>2010-12-12T10:35:18.000Z</time>
      </trkpt>
      <trkpt lat="43.75736" lon="6.96222">
        <ele>977.79998779297</ele>
        <time>2010-12-12T10:35:23.000Z</time>
      </trkpt>
      <trkpt lat="43.75731" lon="6.9623">
        <ele>977.40002441406</ele>
        <time>2010-12-12T10:35:25.000Z</time>
      </trkpt>
      <trkpt lat="43.75713" lon="6.96254">
        <ele>976</ele>
        <time>2010-12-12T10:35:31.000Z</time>
      </trkpt>
      <trkpt lat="43.75707" lon="6.96264">
        <ele>975.40002441406</ele>
        <time>2010-12-12T10:35:33.000Z</time>
      </trkpt>
      <trkpt lat="43.75701" lon="6.96276">
        <ele>974.59997558594</ele>
        <time>2010-12-12T10:35:35.000Z</time>
      </trkpt>
      <trkpt lat="43.75672" lon="6.96319">
        <ele>971.20001220703</ele>
        <time>2010-12-12T10:35:43.000Z</time>
      </trkpt>
      <trkpt lat="43.75658" lon="6.96345">
        <ele>970</ele>
        <time>2010-12-12T10:35:47.000Z</time>
      </trkpt>
      <trkpt lat="43.7564" lon="6.96368">
        <ele>969.79998779297</ele>
        <time>2010-12-12T10:35:51.000Z</time>
      </trkpt>
      <trkpt lat="43.75614" lon="6.96407">
        <ele>968.40002441406</ele>
        <time>2010-12-12T10:35:57.000Z</time>
      </trkpt>
      <trkpt lat="43.75603" lon="6.96432">
        <ele>967.59997558594</ele>
        <time>2010-12-12T10:36:01.000Z</time>
      </trkpt>
      <trkpt lat="43.75602" lon="6.96453">
        <ele>966.59997558594</ele>
        <time>2010-12-12T10:36:04.000Z</time>
      </trkpt>
      <trkpt lat="43.75602" lon="6.96482">
        <ele>965.40002441406</ele>
        <time>2010-12-12T10:36:08.000Z</time>
      </trkpt>
      <trkpt lat="43.75612" lon="6.96498">
        <ele>964.59997558594</ele>
        <time>2010-12-12T10:36:11.000Z</time>
      </trkpt>
      <trkpt lat="43.75631" lon="6.96524">
        <ele>963.20001220703</ele>
        <time>2010-12-12T10:36:17.000Z</time>
      </trkpt>
      <trkpt lat="43.75636" lon="6.96529">
        <ele>962.79998779297</ele>
        <time>2010-12-12T10:36:20.000Z</time>
      </trkpt>
      <trkpt lat="43.75636" lon="6.96529">
        <ele>962.79998779297</ele>
        <time>2010-12-12T10:36:21.000Z</time>
      </trkpt>
      <trkpt lat="43.75647" lon="6.96524">
        <ele>963</ele>
        <time>2010-12-12T10:36:27.000Z</time>
      </trkpt>
      <trkpt lat="43.75663" lon="6.96502">
        <ele>963.79998779297</ele>
        <time>2010-12-12T10:36:34.000Z</time>
      </trkpt>
      <trkpt lat="43.75672" lon="6.96494">
        <ele>964</ele>
        <time>2010-12-12T10:36:37.000Z</time>
      </trkpt>
      <trkpt lat="43.75684" lon="6.965">
        <ele>964</ele>
        <time>2010-12-12T10:36:41.000Z</time>
      </trkpt>
      <trkpt lat="43.757" lon="6.96529">
        <ele>962.79998779297</ele>
        <time>2010-12-12T10:36:49.000Z</time>
      </trkpt>
      <trkpt lat="43.75695" lon="6.96549">
        <ele>962</ele>
        <time>2010-12-12T10:36:53.000Z</time>
      </trkpt>
      <trkpt lat="43.75684" lon="6.96583">
        <ele>960.40002441406</ele>
        <time>2010-12-12T10:36:59.000Z</time>
      </trkpt>
      <trkpt lat="43.75685" lon="6.96601">
        <ele>960.40002441406</ele>
        <time>2010-12-12T10:37:04.000Z</time>
      </trkpt>
      <trkpt lat="43.75695" lon="6.96614">
        <ele>960.59997558594</ele>
        <time>2010-12-12T10:37:09.000Z</time>
      </trkpt>
      <trkpt lat="43.75714" lon="6.96642">
        <ele>961</ele>
        <time>2010-12-12T10:37:16.000Z</time>
      </trkpt>
      <trkpt lat="43.75714" lon="6.96663">
        <ele>961</ele>
        <time>2010-12-12T10:37:19.000Z</time>
      </trkpt>
      <trkpt lat="43.75709" lon="6.96695">
        <ele>961</ele>
        <time>2010-12-12T10:37:23.000Z</time>
      </trkpt>
      <trkpt lat="43.75694" lon="6.96727">
        <ele>960.79998779297</ele>
        <time>2010-12-12T10:37:28.000Z</time>
      </trkpt>
      <trkpt lat="43.7569" lon="6.96752">
        <ele>960.79998779297</ele>
        <time>2010-12-12T10:37:32.000Z</time>
      </trkpt>
      <trkpt lat="43.757" lon="6.9677">
        <ele>960.59997558594</ele>
        <time>2010-12-12T10:37:36.000Z</time>
      </trkpt>
      <trkpt lat="43.75715" lon="6.9679">
        <ele>960.59997558594</ele>
        <time>2010-12-12T10:37:41.000Z</time>
      </trkpt>
      <trkpt lat="43.75723" lon="6.96814">
        <ele>960.40002441406</ele>
        <time>2010-12-12T10:37:46.000Z</time>
      </trkpt>
      <trkpt lat="43.75722" lon="6.96831">
        <ele>960.20001220703</ele>
        <time>2010-12-12T10:37:49.000Z</time>
      </trkpt>
      <trkpt lat="43.75709" lon="6.96862">
        <ele>959.79998779297</ele>
        <time>2010-12-12T10:37:55.000Z</time>
      </trkpt>
      <trkpt lat="43.75706" lon="6.96866">
        <ele>959.59997558594</ele>
        <time>2010-12-12T10:37:56.000Z</time>
      </trkpt>
      <trkpt lat="43.75687" lon="6.96904">
        <ele>959.20001220703</ele>
        <time>2010-12-12T10:38:03.000Z</time>
      </trkpt>
      <trkpt lat="43.7568" lon="6.96918">
        <ele>959</ele>
        <time>2010-12-12T10:38:06.000Z</time>
      </trkpt>
      <trkpt lat="43.7567" lon="6.9693">
        <ele>958.59997558594</ele>
        <time>2010-12-12T10:38:10.000Z</time>
      </trkpt>
      <trkpt lat="43.7565" lon="6.96937">
        <ele>958</ele>
        <time>2010-12-12T10:38:16.000Z</time>
      </trkpt>
      <trkpt lat="43.75628" lon="6.9695">
        <ele>957</ele>
        <time>2010-12-12T10:38:22.000Z</time>
      </trkpt>
      <trkpt lat="43.75608" lon="6.96972">
        <ele>955.79998779297</ele>
        <time>2010-12-12T10:38:29.000Z</time>
      </trkpt>
      <trkpt lat="43.75604" lon="6.96979">
        <ele>955.40002441406</ele>
        <time>2010-12-12T10:38:31.000Z</time>
      </trkpt>
      <trkpt lat="43.75608" lon="6.96998">
        <ele>954.79998779297</ele>
        <time>2010-12-12T10:38:35.000Z</time>
      </trkpt>
      <trkpt lat="43.75625" lon="6.97031">
        <ele>954.59997558594</ele>
        <time>2010-12-12T10:38:42.000Z</time>
      </trkpt>
      <trkpt lat="43.75622" lon="6.97063">
        <ele>953.79998779297</ele>
        <time>2010-12-12T10:38:47.000Z</time>
      </trkpt>
      <trkpt lat="43.75616" lon="6.97067">
        <ele>953.40002441406</ele>
        <time>2010-12-12T10:38:48.000Z</time>
      </trkpt>
      <trkpt lat="43.75596" lon="6.97085">
        <ele>952.40002441406</ele>
        <time>2010-12-12T10:38:52.000Z</time>
      </trkpt>
      <trkpt lat="43.75587" lon="6.97105">
        <ele>951.79998779297</ele>
        <time>2010-12-12T10:38:56.000Z</time>
      </trkpt>
      <trkpt lat="43.75582" lon="6.97113">
        <ele>951.59997558594</ele>
        <time>2010-12-12T10:38:58.000Z</time>
      </trkpt>
      <trkpt lat="43.75562" lon="6.97129">
        <ele>951.79998779297</ele>
        <time>2010-12-12T10:39:05.000Z</time>
      </trkpt>
      <trkpt lat="43.75544" lon="6.97157">
        <ele>951.59997558594</ele>
        <time>2010-12-12T10:39:12.000Z</time>
      </trkpt>
      <trkpt lat="43.75522" lon="6.97183">
        <ele>951.59997558594</ele>
        <time>2010-12-12T10:39:19.000Z</time>
      </trkpt>
      <trkpt lat="43.75496" lon="6.97197">
        <ele>952</ele>
        <time>2010-12-12T10:39:26.000Z</time>
      </trkpt>
      <trkpt lat="43.7547" lon="6.97202">
        <ele>952.20001220703</ele>
        <time>2010-12-12T10:39:34.000Z</time>
      </trkpt>
      <trkpt lat="43.75449" lon="6.97207">
        <ele>952.59997558594</ele>
        <time>2010-12-12T10:39:40.000Z</time>
      </trkpt>
      <trkpt lat="43.75423" lon="6.97213">
        <ele>952.79998779297</ele>
        <time>2010-12-12T10:39:47.000Z</time>
      </trkpt>
      <trkpt lat="43.75411" lon="6.97211">
        <ele>952.79998779297</ele>
        <time>2010-12-12T10:39:52.000Z</time>
      </trkpt>
      <trkpt lat="43.75411" lon="6.9721">
        <ele>952.79998779297</ele>
        <time>2010-12-12T10:40:00.000Z</time>
      </trkpt>
      <trkpt lat="43.75411" lon="6.97209">
        <ele>952.79998779297</ele>
        <time>2010-12-12T10:40:22.000Z</time>
      </trkpt>
      <trkpt lat="43.75412" lon="6.9721">
        <ele>952.79998779297</ele>
        <time>2010-12-12T10:40:31.000Z</time>
      </trkpt>
      <trkpt lat="43.75414" lon="6.97211">
        <ele>952.79998779297</ele>
        <time>2010-12-12T10:40:43.000Z</time>
      </trkpt>
      <trkpt lat="43.75414" lon="6.97211">
        <ele>952.79998779297</ele>
        <time>2010-12-12T10:40:57.000Z</time>
      </trkpt>
      <trkpt lat="43.75414" lon="6.97208">
        <ele>953</ele>
        <time>2010-12-12T10:41:09.000Z</time>
      </trkpt>
      <trkpt lat="43.75415" lon="6.97206">
        <ele>953</ele>
        <time>2010-12-12T10:41:23.000Z</time>
      </trkpt>
      <trkpt lat="43.75415" lon="6.97206">
        <ele>953</ele>
        <time>2010-12-12T10:41:41.000Z</time>
      </trkpt>
      <trkpt lat="43.75416" lon="6.97207">
        <ele>953</ele>
        <time>2010-12-12T10:41:52.000Z</time>
      </trkpt>
      <trkpt lat="43.75417" lon="6.97207">
        <ele>952.79998779297</ele>
        <time>2010-12-12T10:41:53.000Z</time>
      </trkpt>
      <trkpt lat="43.75433" lon="6.97205">
        <ele>952.79998779297</ele>
        <time>2010-12-12T10:41:59.000Z</time>
      </trkpt>
      <trkpt lat="43.75454" lon="6.972">
        <ele>952.40002441406</ele>
        <time>2010-12-12T10:42:06.000Z</time>
      </trkpt>
      <trkpt lat="43.75466" lon="6.97198">
        <ele>952.40002441406</ele>
        <time>2010-12-12T10:42:11.000Z</time>
      </trkpt>
      <trkpt lat="43.75482" lon="6.97197">
        <ele>952.20001220703</ele>
        <time>2010-12-12T10:42:18.000Z</time>
      </trkpt>
      <trkpt lat="43.755" lon="6.97191">
        <ele>951.79998779297</ele>
        <time>2010-12-12T10:42:25.000Z</time>
      </trkpt>
      <trkpt lat="43.7552" lon="6.97186">
        <ele>951.59997558594</ele>
        <time>2010-12-12T10:42:33.000Z</time>
      </trkpt>
      <trkpt lat="43.7553" lon="6.97181">
        <ele>951.40002441406</ele>
        <time>2010-12-12T10:42:39.000Z</time>
      </trkpt>
      <trkpt lat="43.75532" lon="6.97179">
        <ele>951.40002441406</ele>
        <time>2010-12-12T10:42:41.000Z</time>
      </trkpt>
      <trkpt lat="43.75535" lon="6.97176">
        <ele>951.40002441406</ele>
        <time>2010-12-12T10:42:44.000Z</time>
      </trkpt>
      <trkpt lat="43.75534" lon="6.97173">
        <ele>951.40002441406</ele>
        <time>2010-12-12T10:42:50.000Z</time>
      </trkpt>
      <trkpt lat="43.75533" lon="6.97173">
        <ele>951.40002441406</ele>
        <time>2010-12-12T10:42:56.000Z</time>
      </trkpt>
      <trkpt lat="43.75532" lon="6.97173">
        <ele>951.40002441406</ele>
        <time>2010-12-12T10:43:03.000Z</time>
      </trkpt>
      <trkpt lat="43.75532" lon="6.97174">
        <ele>951.40002441406</ele>
        <time>2010-12-12T10:43:13.000Z</time>
      </trkpt>
      <trkpt lat="43.75531" lon="6.97175">
        <ele>951.40002441406</ele>
        <time>2010-12-12T10:43:20.000Z</time>
      </trkpt>
      <trkpt lat="43.75531" lon="6.97176">
        <ele>951.40002441406</ele>
        <time>2010-12-12T10:43:25.000Z</time>
      </trkpt>
      <trkpt lat="43.75529" lon="6.97175">
        <ele>951.59997558594</ele>
        <time>2010-12-12T10:43:41.000Z</time>
      </trkpt>
      <trkpt lat="43.75529" lon="6.97173">
        <ele>951.59997558594</ele>
        <time>2010-12-12T10:43:47.000Z</time>
      </trkpt>
      <trkpt lat="43.75529" lon="6.97173">
        <ele>951.59997558594</ele>
        <time>2010-12-12T10:43:53.000Z</time>
      </trkpt>
      <trkpt lat="43.75524" lon="6.97177">
        <ele>951.59997558594</ele>
        <time>2010-12-12T10:51:45.000Z</time>
      </trkpt>
      <trkpt lat="43.75507" lon="6.97186">
        <ele>951.79998779297</ele>
        <time>2010-12-12T10:51:50.000Z</time>
      </trkpt>
      <trkpt lat="43.75485" lon="6.97195">
        <ele>952</ele>
        <time>2010-12-12T10:51:57.000Z</time>
      </trkpt>
      <trkpt lat="43.75463" lon="6.97199">
        <ele>952.40002441406</ele>
        <time>2010-12-12T10:52:04.000Z</time>
      </trkpt>
      <trkpt lat="43.75439" lon="6.97204">
        <ele>952.59997558594</ele>
        <time>2010-12-12T10:52:11.000Z</time>
      </trkpt>
      <trkpt lat="43.75413" lon="6.97213">
        <ele>952.79998779297</ele>
        <time>2010-12-12T10:52:18.000Z</time>
      </trkpt>
      <trkpt lat="43.75394" lon="6.97219">
        <ele>952.79998779297</ele>
        <time>2010-12-12T10:52:22.000Z</time>
      </trkpt>
      <trkpt lat="43.7536" lon="6.97238">
        <ele>952.40002441406</ele>
        <time>2010-12-12T10:52:29.000Z</time>
      </trkpt>
      <trkpt lat="43.75351" lon="6.97244">
        <ele>952.20001220703</ele>
        <time>2010-12-12T10:52:31.000Z</time>
      </trkpt>
      <trkpt lat="43.75329" lon="6.97254">
        <ele>951.79998779297</ele>
        <time>2010-12-12T10:52:35.000Z</time>
      </trkpt>
      <trkpt lat="43.75319" lon="6.97259">
        <ele>951.59997558594</ele>
        <time>2010-12-12T10:52:37.000Z</time>
      </trkpt>
      <trkpt lat="43.75292" lon="6.97261">
        <ele>951</ele>
        <time>2010-12-12T10:52:42.000Z</time>
      </trkpt>
      <trkpt lat="43.75275" lon="6.97259">
        <ele>950.59997558594</ele>
        <time>2010-12-12T10:52:45.000Z</time>
      </trkpt>
      <trkpt lat="43.75241" lon="6.97265">
        <ele>950.40002441406</ele>
        <time>2010-12-12T10:52:52.000Z</time>
      </trkpt>
      <trkpt lat="43.75222" lon="6.97263">
        <ele>951</ele>
        <time>2010-12-12T10:52:56.000Z</time>
      </trkpt>
      <trkpt lat="43.75212" lon="6.97264">
        <ele>951.40002441406</ele>
        <time>2010-12-12T10:52:58.000Z</time>
      </trkpt>
      <trkpt lat="43.75165" lon="6.97268">
        <ele>953</ele>
        <time>2010-12-12T10:53:08.000Z</time>
      </trkpt>
      <trkpt lat="43.75156" lon="6.97271">
        <ele>953.20001220703</ele>
        <time>2010-12-12T10:53:10.000Z</time>
      </trkpt>
      <trkpt lat="43.7513" lon="6.97274">
        <ele>953.79998779297</ele>
        <time>2010-12-12T10:53:16.000Z</time>
      </trkpt>
      <trkpt lat="43.75109" lon="6.97277">
        <ele>954.20001220703</ele>
        <time>2010-12-12T10:53:21.000Z</time>
      </trkpt>
      <trkpt lat="43.75083" lon="6.97271">
        <ele>955</ele>
        <time>2010-12-12T10:53:28.000Z</time>
      </trkpt>
      <trkpt lat="43.75055" lon="6.97272">
        <ele>955.59997558594</ele>
        <time>2010-12-12T10:53:36.000Z</time>
      </trkpt>
      <trkpt lat="43.75032" lon="6.97274">
        <ele>956.40002441406</ele>
        <time>2010-12-12T10:53:44.000Z</time>
      </trkpt>
      <trkpt lat="43.75013" lon="6.97274">
        <ele>956.79998779297</ele>
        <time>2010-12-12T10:53:50.000Z</time>
      </trkpt>
      <trkpt lat="43.75001" lon="6.97276">
        <ele>957.20001220703</ele>
        <time>2010-12-12T10:53:55.000Z</time>
      </trkpt>
      <trkpt lat="43.74979" lon="6.97275">
        <ele>958.79998779297</ele>
        <time>2010-12-12T10:54:03.000Z</time>
      </trkpt>
      <trkpt lat="43.74953" lon="6.97277">
        <ele>960.79998779297</ele>
        <time>2010-12-12T10:54:11.000Z</time>
      </trkpt>
      <trkpt lat="43.74933" lon="6.97277">
        <ele>962.40002441406</ele>
        <time>2010-12-12T10:54:18.000Z</time>
      </trkpt>
      <trkpt lat="43.7492" lon="6.97276">
        <ele>963.40002441406</ele>
        <time>2010-12-12T10:54:23.000Z</time>
      </trkpt>
      <trkpt lat="43.74899" lon="6.97278">
        <ele>964.79998779297</ele>
        <time>2010-12-12T10:54:30.000Z</time>
      </trkpt>
      <trkpt lat="43.74883" lon="6.97276">
        <ele>966.20001220703</ele>
        <time>2010-12-12T10:54:36.000Z</time>
      </trkpt>
      <trkpt lat="43.7487" lon="6.97277">
        <ele>967.20001220703</ele>
        <time>2010-12-12T10:54:42.000Z</time>
      </trkpt>
      <trkpt lat="43.74856" lon="6.97282">
        <ele>967.79998779297</ele>
        <time>2010-12-12T10:54:48.000Z</time>
      </trkpt>
      <trkpt lat="43.74844" lon="6.9729">
        <ele>968.20001220703</ele>
        <time>2010-12-12T10:54:53.000Z</time>
      </trkpt>
      <trkpt lat="43.74828" lon="6.973">
        <ele>969.20001220703</ele>
        <time>2010-12-12T10:55:00.000Z</time>
      </trkpt>
      <trkpt lat="43.74809" lon="6.97317">
        <ele>970.40002441406</ele>
        <time>2010-12-12T10:55:09.000Z</time>
      </trkpt>
      <trkpt lat="43.74798" lon="6.97333">
        <ele>970.20001220703</ele>
        <time>2010-12-12T10:55:16.000Z</time>
      </trkpt>
      <trkpt lat="43.74788" lon="6.97347">
        <ele>970.79998779297</ele>
        <time>2010-12-12T10:55:23.000Z</time>
      </trkpt>
      <trkpt lat="43.74777" lon="6.97362">
        <ele>971.40002441406</ele>
        <time>2010-12-12T10:55:30.000Z</time>
      </trkpt>
      <trkpt lat="43.74767" lon="6.9737">
        <ele>972.20001220703</ele>
        <time>2010-12-12T10:55:36.000Z</time>
      </trkpt>
      <trkpt lat="43.74759" lon="6.97381">
        <ele>972.59997558594</ele>
        <time>2010-12-12T10:55:42.000Z</time>
      </trkpt>
      <trkpt lat="43.74752" lon="6.97388">
        <ele>973</ele>
        <time>2010-12-12T10:55:47.000Z</time>
      </trkpt>
      <trkpt lat="43.74744" lon="6.97396">
        <ele>974.20001220703</ele>
        <time>2010-12-12T10:55:53.000Z</time>
      </trkpt>
      <trkpt lat="43.74736" lon="6.97403">
        <ele>975.20001220703</ele>
        <time>2010-12-12T10:55:58.000Z</time>
      </trkpt>
      <trkpt lat="43.74724" lon="6.97413">
        <ele>977.20001220703</ele>
        <time>2010-12-12T10:56:06.000Z</time>
      </trkpt>
      <trkpt lat="43.74716" lon="6.97421">
        <ele>978.20001220703</ele>
        <time>2010-12-12T10:56:12.000Z</time>
      </trkpt>
      <trkpt lat="43.74711" lon="6.97424">
        <ele>979</ele>
        <time>2010-12-12T10:56:17.000Z</time>
      </trkpt>
      <trkpt lat="43.74707" lon="6.97424">
        <ele>979.59997558594</ele>
        <time>2010-12-12T10:56:24.000Z</time>
      </trkpt>
      <trkpt lat="43.747" lon="6.97427">
        <ele>980.79998779297</ele>
        <time>2010-12-12T10:56:30.000Z</time>
      </trkpt>
      <trkpt lat="43.74688" lon="6.97431">
        <ele>982.59997558594</ele>
        <time>2010-12-12T10:56:39.000Z</time>
      </trkpt>
      <trkpt lat="43.74679" lon="6.97435">
        <ele>984</ele>
        <time>2010-12-12T10:56:46.000Z</time>
      </trkpt>
      <trkpt lat="43.74669" lon="6.97441">
        <ele>985.20001220703</ele>
        <time>2010-12-12T10:56:54.000Z</time>
      </trkpt>
      <trkpt lat="43.74662" lon="6.97453">
        <ele>986</ele>
        <time>2010-12-12T10:57:03.000Z</time>
      </trkpt>
      <trkpt lat="43.74656" lon="6.97458">
        <ele>987.20001220703</ele>
        <time>2010-12-12T10:57:09.000Z</time>
      </trkpt>
      <trkpt lat="43.74651" lon="6.97465">
        <ele>988</ele>
        <time>2010-12-12T10:57:15.000Z</time>
      </trkpt>
      <trkpt lat="43.74647" lon="6.97472">
        <ele>988.59997558594</ele>
        <time>2010-12-12T10:57:22.000Z</time>
      </trkpt>
      <trkpt lat="43.74641" lon="6.97479">
        <ele>989.59997558594</ele>
        <time>2010-12-12T10:57:27.000Z</time>
      </trkpt>
      <trkpt lat="43.74629" lon="6.97492">
        <ele>992</ele>
        <time>2010-12-12T10:57:35.000Z</time>
      </trkpt>
      <trkpt lat="43.74618" lon="6.9751">
        <ele>993.59997558594</ele>
        <time>2010-12-12T10:57:43.000Z</time>
      </trkpt>
      <trkpt lat="43.74612" lon="6.97521">
        <ele>994.40002441406</ele>
        <time>2010-12-12T10:57:48.000Z</time>
      </trkpt>
      <trkpt lat="43.74606" lon="6.97537">
        <ele>994.40002441406</ele>
        <time>2010-12-12T10:57:55.000Z</time>
      </trkpt>
      <trkpt lat="43.74601" lon="6.97552">
        <ele>994.20001220703</ele>
        <time>2010-12-12T10:58:01.000Z</time>
      </trkpt>
      <trkpt lat="43.74593" lon="6.97568">
        <ele>994.40002441406</ele>
        <time>2010-12-12T10:58:08.000Z</time>
      </trkpt>
      <trkpt lat="43.74586" lon="6.97578">
        <ele>995</ele>
        <time>2010-12-12T10:58:14.000Z</time>
      </trkpt>
      <trkpt lat="43.74579" lon="6.97589">
        <ele>996.20001220703</ele>
        <time>2010-12-12T10:58:20.000Z</time>
      </trkpt>
      <trkpt lat="43.7457" lon="6.97599">
        <ele>999</ele>
        <time>2010-12-12T10:58:27.000Z</time>
      </trkpt>
      <trkpt lat="43.74561" lon="6.97607">
        <ele>1001.5999755859</ele>
        <time>2010-12-12T10:58:33.000Z</time>
      </trkpt>
      <trkpt lat="43.74555" lon="6.97615">
        <ele>1003.5999755859</ele>
        <time>2010-12-12T10:58:39.000Z</time>
      </trkpt>
      <trkpt lat="43.74546" lon="6.97623">
        <ele>1006</ele>
        <time>2010-12-12T10:58:47.000Z</time>
      </trkpt>
      <trkpt lat="43.74545" lon="6.97623">
        <ele>1006.4000244141</ele>
        <time>2010-12-12T10:58:51.000Z</time>
      </trkpt>
      <trkpt lat="43.74544" lon="6.97623">
        <ele>1006.799987793</ele>
        <time>2010-12-12T10:59:01.000Z</time>
      </trkpt>
      <trkpt lat="43.74539" lon="6.97629">
        <ele>1008</ele>
        <time>2010-12-12T10:59:06.000Z</time>
      </trkpt>
      <trkpt lat="43.74532" lon="6.9764">
        <ele>1009.5999755859</ele>
        <time>2010-12-12T10:59:13.000Z</time>
      </trkpt>
      <trkpt lat="43.74528" lon="6.9765">
        <ele>1010.200012207</ele>
        <time>2010-12-12T10:59:18.000Z</time>
      </trkpt>
      <trkpt lat="43.74528" lon="6.97662">
        <ele>1009.4000244141</ele>
        <time>2010-12-12T10:59:23.000Z</time>
      </trkpt>
      <trkpt lat="43.74528" lon="6.97678">
        <ele>1008.799987793</ele>
        <time>2010-12-12T10:59:30.000Z</time>
      </trkpt>
      <trkpt lat="43.74527" lon="6.97693">
        <ele>1008.5999755859</ele>
        <time>2010-12-12T10:59:37.000Z</time>
      </trkpt>
      <trkpt lat="43.74526" lon="6.97708">
        <ele>1008.5999755859</ele>
        <time>2010-12-12T10:59:44.000Z</time>
      </trkpt>
      <trkpt lat="43.74526" lon="6.97724">
        <ele>1008.200012207</ele>
        <time>2010-12-12T10:59:52.000Z</time>
      </trkpt>
      <trkpt lat="43.74522" lon="6.97739">
        <ele>1008.5999755859</ele>
        <time>2010-12-12T11:00:00.000Z</time>
      </trkpt>
      <trkpt lat="43.7452" lon="6.97751">
        <ele>1009</ele>
        <time>2010-12-12T11:00:06.000Z</time>
      </trkpt>
      <trkpt lat="43.74516" lon="6.97765">
        <ele>1010.799987793</ele>
        <time>2010-12-12T11:00:14.000Z</time>
      </trkpt>
      <trkpt lat="43.7451" lon="6.97775">
        <ele>1013.200012207</ele>
        <time>2010-12-12T11:00:21.000Z</time>
      </trkpt>
      <trkpt lat="43.74503" lon="6.97786">
        <ele>1015.5999755859</ele>
        <time>2010-12-12T11:00:28.000Z</time>
      </trkpt>
      <trkpt lat="43.74496" lon="6.97797">
        <ele>1018.4000244141</ele>
        <time>2010-12-12T11:00:36.000Z</time>
      </trkpt>
      <trkpt lat="43.7449" lon="6.97806">
        <ele>1020.799987793</ele>
        <time>2010-12-12T11:00:42.000Z</time>
      </trkpt>
      <trkpt lat="43.74488" lon="6.97807">
        <ele>1021.4000244141</ele>
        <time>2010-12-12T11:00:48.000Z</time>
      </trkpt>
      <trkpt lat="43.74485" lon="6.97812">
        <ele>1022.799987793</ele>
        <time>2010-12-12T11:00:53.000Z</time>
      </trkpt>
      <trkpt lat="43.74476" lon="6.97814">
        <ele>1025.4000244141</ele>
        <time>2010-12-12T11:01:02.000Z</time>
      </trkpt>
      <trkpt lat="43.74474" lon="6.97809">
        <ele>1025.8000488281</ele>
        <time>2010-12-12T11:01:08.000Z</time>
      </trkpt>
      <trkpt lat="43.74475" lon="6.97801">
        <ele>1024.8000488281</ele>
        <time>2010-12-12T11:01:15.000Z</time>
      </trkpt>
      <trkpt lat="43.74476" lon="6.97792">
        <ele>1024.1999511719</ele>
        <time>2010-12-12T11:01:24.000Z</time>
      </trkpt>
      <trkpt lat="43.74474" lon="6.97784">
        <ele>1024.1999511719</ele>
        <time>2010-12-12T11:01:31.000Z</time>
      </trkpt>
      <trkpt lat="43.74473" lon="6.97774">
        <ele>1024</ele>
        <time>2010-12-12T11:01:40.000Z</time>
      </trkpt>
      <trkpt lat="43.74473" lon="6.97767">
        <ele>1023.5999755859</ele>
        <time>2010-12-12T11:01:46.000Z</time>
      </trkpt>
      <trkpt lat="43.74471" lon="6.97756">
        <ele>1023.5999755859</ele>
        <time>2010-12-12T11:01:54.000Z</time>
      </trkpt>
      <trkpt lat="43.74469" lon="6.97747">
        <ele>1024.4000244141</ele>
        <time>2010-12-12T11:02:01.000Z</time>
      </trkpt>
      <trkpt lat="43.74466" lon="6.97736">
        <ele>1026</ele>
        <time>2010-12-12T11:02:08.000Z</time>
      </trkpt>
      <trkpt lat="43.74463" lon="6.97724">
        <ele>1027.5999755859</ele>
        <time>2010-12-12T11:02:17.000Z</time>
      </trkpt>
      <trkpt lat="43.74457" lon="6.97721">
        <ele>1029.8000488281</ele>
        <time>2010-12-12T11:02:24.000Z</time>
      </trkpt>
      <trkpt lat="43.74452" lon="6.97727">
        <ele>1031</ele>
        <time>2010-12-12T11:02:31.000Z</time>
      </trkpt>
      <trkpt lat="43.74448" lon="6.97733">
        <ele>1032.1999511719</ele>
        <time>2010-12-12T11:02:37.000Z</time>
      </trkpt>
      <trkpt lat="43.74446" lon="6.97741">
        <ele>1032.1999511719</ele>
        <time>2010-12-12T11:02:44.000Z</time>
      </trkpt>
      <trkpt lat="43.74441" lon="6.97749">
        <ele>1033.1999511719</ele>
        <time>2010-12-12T11:02:49.000Z</time>
      </trkpt>
      <trkpt lat="43.74429" lon="6.97768">
        <ele>1037.4000244141</ele>
        <time>2010-12-12T11:02:58.000Z</time>
      </trkpt>
      <trkpt lat="43.74419" lon="6.97784">
        <ele>1041</ele>
        <time>2010-12-12T11:03:06.000Z</time>
      </trkpt>
      <trkpt lat="43.74414" lon="6.97799">
        <ele>1042.8000488281</ele>
        <time>2010-12-12T11:03:13.000Z</time>
      </trkpt>
      <trkpt lat="43.74409" lon="6.97813">
        <ele>1044.5999755859</ele>
        <time>2010-12-12T11:03:20.000Z</time>
      </trkpt>
      <trkpt lat="43.74405" lon="6.97825">
        <ele>1045.5999755859</ele>
        <time>2010-12-12T11:03:26.000Z</time>
      </trkpt>
      <trkpt lat="43.74399" lon="6.97838">
        <ele>1047.1999511719</ele>
        <time>2010-12-12T11:03:34.000Z</time>
      </trkpt>
      <trkpt lat="43.74395" lon="6.9785">
        <ele>1048.4000244141</ele>
        <time>2010-12-12T11:03:40.000Z</time>
      </trkpt>
      <trkpt lat="43.74391" lon="6.97864">
        <ele>1049.5999755859</ele>
        <time>2010-12-12T11:03:47.000Z</time>
      </trkpt>
      <trkpt lat="43.74385" lon="6.97876">
        <ele>1051.1999511719</ele>
        <time>2010-12-12T11:03:55.000Z</time>
      </trkpt>
      <trkpt lat="43.74377" lon="6.97886">
        <ele>1052.8000488281</ele>
        <time>2010-12-12T11:04:02.000Z</time>
      </trkpt>
      <trkpt lat="43.74375" lon="6.97889">
        <ele>1053.1999511719</ele>
        <time>2010-12-12T11:04:04.000Z</time>
      </trkpt>
      <trkpt lat="43.74368" lon="6.97904">
        <ele>1054.4000244141</ele>
        <time>2010-12-12T11:04:11.000Z</time>
      </trkpt>
      <trkpt lat="43.74363" lon="6.97915">
        <ele>1055.4000244141</ele>
        <time>2010-12-12T11:04:18.000Z</time>
      </trkpt>
      <trkpt lat="43.74356" lon="6.97922">
        <ele>1056.4000244141</ele>
        <time>2010-12-12T11:04:24.000Z</time>
      </trkpt>
      <trkpt lat="43.74349" lon="6.97917">
        <ele>1057.4000244141</ele>
        <time>2010-12-12T11:04:30.000Z</time>
      </trkpt>
      <trkpt lat="43.74342" lon="6.97912">
        <ele>1058.8000488281</ele>
        <time>2010-12-12T11:04:38.000Z</time>
      </trkpt>
      <trkpt lat="43.74332" lon="6.9791">
        <ele>1060.1999511719</ele>
        <time>2010-12-12T11:04:45.000Z</time>
      </trkpt>
      <trkpt lat="43.7433" lon="6.9791">
        <ele>1060.1999511719</ele>
        <time>2010-12-12T11:04:46.000Z</time>
      </trkpt>
      <trkpt lat="43.74321" lon="6.97913">
        <ele>1060</ele>
        <time>2010-12-12T11:04:53.000Z</time>
      </trkpt>
      <trkpt lat="43.7432" lon="6.97912">
        <ele>1060</ele>
        <time>2010-12-12T11:05:00.000Z</time>
      </trkpt>
      <trkpt lat="43.74318" lon="6.97912">
        <ele>1060</ele>
        <time>2010-12-12T11:05:22.000Z</time>
      </trkpt>
      <trkpt lat="43.74318" lon="6.97912">
        <ele>1060</ele>
        <time>2010-12-12T11:05:33.000Z</time>
      </trkpt>
      <trkpt lat="43.74314" lon="6.97908">
        <ele>1060.1999511719</ele>
        <time>2010-12-12T11:05:38.000Z</time>
      </trkpt>
      <trkpt lat="43.74308" lon="6.97897">
        <ele>1060.5999755859</ele>
        <time>2010-12-12T11:05:44.000Z</time>
      </trkpt>
      <trkpt lat="43.74306" lon="6.97879">
        <ele>1061.5999755859</ele>
        <time>2010-12-12T11:05:51.000Z</time>
      </trkpt>
      <trkpt lat="43.74297" lon="6.97862">
        <ele>1062.5999755859</ele>
        <time>2010-12-12T11:06:00.000Z</time>
      </trkpt>
      <trkpt lat="43.74289" lon="6.97844">
        <ele>1063.8000488281</ele>
        <time>2010-12-12T11:06:09.000Z</time>
      </trkpt>
      <trkpt lat="43.7428" lon="6.97837">
        <ele>1064.5999755859</ele>
        <time>2010-12-12T11:06:15.000Z</time>
      </trkpt>
      <trkpt lat="43.74269" lon="6.97836">
        <ele>1065</ele>
        <time>2010-12-12T11:06:21.000Z</time>
      </trkpt>
      <trkpt lat="43.74257" lon="6.97834">
        <ele>1065.5999755859</ele>
        <time>2010-12-12T11:06:27.000Z</time>
      </trkpt>
      <trkpt lat="43.74246" lon="6.97825">
        <ele>1067</ele>
        <time>2010-12-12T11:06:33.000Z</time>
      </trkpt>
      <trkpt lat="43.74233" lon="6.97804">
        <ele>1069.5999755859</ele>
        <time>2010-12-12T11:06:41.000Z</time>
      </trkpt>
      <trkpt lat="43.74221" lon="6.97791">
        <ele>1071.1999511719</ele>
        <time>2010-12-12T11:06:48.000Z</time>
      </trkpt>
      <trkpt lat="43.74205" lon="6.97773">
        <ele>1072.8000488281</ele>
        <time>2010-12-12T11:06:56.000Z</time>
      </trkpt>
      <trkpt lat="43.74198" lon="6.97772">
        <ele>1072.8000488281</ele>
        <time>2010-12-12T11:07:00.000Z</time>
      </trkpt>
      <trkpt lat="43.74189" lon="6.97782">
        <ele>1071.5999755859</ele>
        <time>2010-12-12T11:07:06.000Z</time>
      </trkpt>
      <trkpt lat="43.7418" lon="6.97796">
        <ele>1070.1999511719</ele>
        <time>2010-12-12T11:07:13.000Z</time>
      </trkpt>
      <trkpt lat="43.74171" lon="6.97798">
        <ele>1070</ele>
        <time>2010-12-12T11:07:19.000Z</time>
      </trkpt>
      <trkpt lat="43.7416" lon="6.97794">
        <ele>1069.1999511719</ele>
        <time>2010-12-12T11:07:26.000Z</time>
      </trkpt>
      <trkpt lat="43.74147" lon="6.97783">
        <ele>1068</ele>
        <time>2010-12-12T11:07:34.000Z</time>
      </trkpt>
      <trkpt lat="43.74145" lon="6.97781">
        <ele>1068</ele>
        <time>2010-12-12T11:07:39.000Z</time>
      </trkpt>
      <trkpt lat="43.74142" lon="6.97781">
        <ele>1067.5999755859</ele>
        <time>2010-12-12T11:07:52.000Z</time>
      </trkpt>
      <trkpt lat="43.74135" lon="6.97772">
        <ele>1067.4000244141</ele>
        <time>2010-12-12T11:07:57.000Z</time>
      </trkpt>
      <trkpt lat="43.7413" lon="6.97755">
        <ele>1068</ele>
        <time>2010-12-12T11:08:03.000Z</time>
      </trkpt>
      <trkpt lat="43.74123" lon="6.97734">
        <ele>1068.8000488281</ele>
        <time>2010-12-12T11:08:09.000Z</time>
      </trkpt>
      <trkpt lat="43.74112" lon="6.97708">
        <ele>1069.1999511719</ele>
        <time>2010-12-12T11:08:16.000Z</time>
      </trkpt>
      <trkpt lat="43.74096" lon="6.97695">
        <ele>1067.8000488281</ele>
        <time>2010-12-12T11:08:22.000Z</time>
      </trkpt>
      <trkpt lat="43.74089" lon="6.97693">
        <ele>1066.8000488281</ele>
        <time>2010-12-12T11:08:25.000Z</time>
      </trkpt>
      <trkpt lat="43.74088" lon="6.97693">
        <ele>1066.8000488281</ele>
        <time>2010-12-12T11:08:32.000Z</time>
      </trkpt>
      <trkpt lat="43.74088" lon="6.97692">
        <ele>1066.8000488281</ele>
        <time>2010-12-12T11:08:33.000Z</time>
      </trkpt>
      <trkpt lat="43.74078" lon="6.97682">
        <ele>1065.8000488281</ele>
        <time>2010-12-12T11:08:40.000Z</time>
      </trkpt>
      <trkpt lat="43.74078" lon="6.97682">
        <ele>1065.8000488281</ele>
        <time>2010-12-12T11:08:45.000Z</time>
      </trkpt>
      <trkpt lat="43.74079" lon="6.97682">
        <ele>1066</ele>
        <time>2010-12-12T11:08:52.000Z</time>
      </trkpt>
      <trkpt lat="43.74079" lon="6.97682">
        <ele>1066</ele>
        <time>2010-12-12T11:09:01.000Z</time>
      </trkpt>
      <trkpt lat="43.74079" lon="6.97682">
        <ele>1066.1999511719</ele>
        <time>2010-12-12T11:09:11.000Z</time>
      </trkpt>
      <trkpt lat="43.7408" lon="6.97682">
        <ele>1066.1999511719</ele>
        <time>2010-12-12T11:09:22.000Z</time>
      </trkpt>
      <trkpt lat="43.74079" lon="6.97682">
        <ele>1066</ele>
        <time>2010-12-12T11:09:35.000Z</time>
      </trkpt>
      <trkpt lat="43.74079" lon="6.97682">
        <ele>1066</ele>
        <time>2010-12-12T11:09:46.000Z</time>
      </trkpt>
      <trkpt lat="43.74079" lon="6.97683">
        <ele>1066</ele>
        <time>2010-12-12T11:10:17.000Z</time>
      </trkpt>
      <trkpt lat="43.74079" lon="6.97683">
        <ele>1066</ele>
        <time>2010-12-12T11:10:43.000Z</time>
      </trkpt>
      <trkpt lat="43.74078" lon="6.97684">
        <ele>1065.8000488281</ele>
        <time>2010-12-12T11:10:59.000Z</time>
      </trkpt>
      <trkpt lat="43.74078" lon="6.97683">
        <ele>1065.8000488281</ele>
        <time>2010-12-12T11:11:00.000Z</time>
      </trkpt>
      <trkpt lat="43.74071" lon="6.9767">
        <ele>1065.5999755859</ele>
        <time>2010-12-12T11:11:05.000Z</time>
      </trkpt>
      <trkpt lat="43.74058" lon="6.97649">
        <ele>1064.8000488281</ele>
        <time>2010-12-12T11:11:10.000Z</time>
      </trkpt>
      <trkpt lat="43.74039" lon="6.97623">
        <ele>1063</ele>
        <time>2010-12-12T11:11:16.000Z</time>
      </trkpt>
      <trkpt lat="43.7403" lon="6.9761">
        <ele>1062.1999511719</ele>
        <time>2010-12-12T11:11:19.000Z</time>
      </trkpt>
      <trkpt lat="43.74021" lon="6.97596">
        <ele>1061.1999511719</ele>
        <time>2010-12-12T11:11:22.000Z</time>
      </trkpt>
      <trkpt lat="43.74014" lon="6.97582">
        <ele>1060.5999755859</ele>
        <time>2010-12-12T11:11:25.000Z</time>
      </trkpt>
      <trkpt lat="43.74008" lon="6.97567">
        <ele>1059.8000488281</ele>
        <time>2010-12-12T11:11:28.000Z</time>
      </trkpt>
      <trkpt lat="43.74001" lon="6.97547">
        <ele>1058.8000488281</ele>
        <time>2010-12-12T11:11:32.000Z</time>
      </trkpt>
      <trkpt lat="43.73995" lon="6.97531">
        <ele>1057.8000488281</ele>
        <time>2010-12-12T11:11:35.000Z</time>
      </trkpt>
      <trkpt lat="43.73989" lon="6.9751">
        <ele>1056.5999755859</ele>
        <time>2010-12-12T11:11:39.000Z</time>
      </trkpt>
      <trkpt lat="43.73987" lon="6.97499">
        <ele>1056</ele>
        <time>2010-12-12T11:11:41.000Z</time>
      </trkpt>
      <trkpt lat="43.73981" lon="6.97474">
        <ele>1055.1999511719</ele>
        <time>2010-12-12T11:11:45.000Z</time>
      </trkpt>
      <trkpt lat="43.73976" lon="6.97448">
        <ele>1054</ele>
        <time>2010-12-12T11:11:50.000Z</time>
      </trkpt>
      <trkpt lat="43.73967" lon="6.97435">
        <ele>1052</ele>
        <time>2010-12-12T11:11:53.000Z</time>
      </trkpt>
      <trkpt lat="43.73946" lon="6.97389">
        <ele>1048.4000244141</ele>
        <time>2010-12-12T11:12:01.000Z</time>
      </trkpt>
      <trkpt lat="43.73943" lon="6.97382">
        <ele>1048</ele>
        <time>2010-12-12T11:12:02.000Z</time>
      </trkpt>
      <trkpt lat="43.73938" lon="6.97368">
        <ele>1047.8000488281</ele>
        <time>2010-12-12T11:12:04.000Z</time>
      </trkpt>
      <trkpt lat="43.73919" lon="6.97355">
        <ele>1045.1999511719</ele>
        <time>2010-12-12T11:12:09.000Z</time>
      </trkpt>
      <trkpt lat="43.73915" lon="6.97355">
        <ele>1044.4000244141</ele>
        <time>2010-12-12T11:12:10.000Z</time>
      </trkpt>
      <trkpt lat="43.73902" lon="6.97377">
        <ele>1041.4000244141</ele>
        <time>2010-12-12T11:12:15.000Z</time>
      </trkpt>
      <trkpt lat="43.739" lon="6.97382">
        <ele>1040.5999755859</ele>
        <time>2010-12-12T11:12:16.000Z</time>
      </trkpt>
      <trkpt lat="43.73895" lon="6.97394">
        <ele>1038.8000488281</ele>
        <time>2010-12-12T11:12:18.000Z</time>
      </trkpt>
      <trkpt lat="43.73884" lon="6.974">
        <ele>1037.4000244141</ele>
        <time>2010-12-12T11:12:22.000Z</time>
      </trkpt>
      <trkpt lat="43.73877" lon="6.97393">
        <ele>1037.8000488281</ele>
        <time>2010-12-12T11:12:25.000Z</time>
      </trkpt>
      <trkpt lat="43.73856" lon="6.97383">
        <ele>1038</ele>
        <time>2010-12-12T11:12:30.000Z</time>
      </trkpt>
      <trkpt lat="43.7384" lon="6.97386">
        <ele>1036.4000244141</ele>
        <time>2010-12-12T11:12:34.000Z</time>
      </trkpt>
      <trkpt lat="43.73826" lon="6.97401">
        <ele>1034</ele>
        <time>2010-12-12T11:12:38.000Z</time>
      </trkpt>
      <trkpt lat="43.73823" lon="6.97406">
        <ele>1033.4000244141</ele>
        <time>2010-12-12T11:12:39.000Z</time>
      </trkpt>
      <trkpt lat="43.73811" lon="6.97414">
        <ele>1033.1999511719</ele>
        <time>2010-12-12T11:12:44.000Z</time>
      </trkpt>
      <trkpt lat="43.73792" lon="6.97428">
        <ele>1033.4000244141</ele>
        <time>2010-12-12T11:12:51.000Z</time>
      </trkpt>
      <trkpt lat="43.73775" lon="6.97434">
        <ele>1034</ele>
        <time>2010-12-12T11:12:57.000Z</time>
      </trkpt>
      <trkpt lat="43.73755" lon="6.9744">
        <ele>1034.8000488281</ele>
        <time>2010-12-12T11:13:04.000Z</time>
      </trkpt>
      <trkpt lat="43.73729" lon="6.97447">
        <ele>1034.4000244141</ele>
        <time>2010-12-12T11:13:11.000Z</time>
      </trkpt>
      <trkpt lat="43.73705" lon="6.97449">
        <ele>1034.1999511719</ele>
        <time>2010-12-12T11:13:17.000Z</time>
      </trkpt>
      <trkpt lat="43.73681" lon="6.97455">
        <ele>1033.4000244141</ele>
        <time>2010-12-12T11:13:23.000Z</time>
      </trkpt>
      <trkpt lat="43.73658" lon="6.97463">
        <ele>1031.8000488281</ele>
        <time>2010-12-12T11:13:29.000Z</time>
      </trkpt>
      <trkpt lat="43.73633" lon="6.9747">
        <ele>1029.8000488281</ele>
        <time>2010-12-12T11:13:36.000Z</time>
      </trkpt>
      <trkpt lat="43.7362" lon="6.97469">
        <ele>1029.4000244141</ele>
        <time>2010-12-12T11:13:41.000Z</time>
      </trkpt>
      <trkpt lat="43.73608" lon="6.97465">
        <ele>1029.4000244141</ele>
        <time>2010-12-12T11:13:46.000Z</time>
      </trkpt>
      <trkpt lat="43.73591" lon="6.9746">
        <ele>1029.1999511719</ele>
        <time>2010-12-12T11:13:53.000Z</time>
      </trkpt>
      <trkpt lat="43.7358" lon="6.97457">
        <ele>1028.8000488281</ele>
        <time>2010-12-12T11:13:59.000Z</time>
      </trkpt>
      <trkpt lat="43.73579" lon="6.97457">
        <ele>1028.8000488281</ele>
        <time>2010-12-12T11:14:04.000Z</time>
      </trkpt>
      <trkpt lat="43.73579" lon="6.97456">
        <ele>1028.8000488281</ele>
        <time>2010-12-12T11:14:12.000Z</time>
      </trkpt>
      <trkpt lat="43.73575" lon="6.97456">
        <ele>1028.4000244141</ele>
        <time>2010-12-12T11:14:35.000Z</time>
      </trkpt>
      <trkpt lat="43.73562" lon="6.97446">
        <ele>1028.4000244141</ele>
        <time>2010-12-12T11:14:40.000Z</time>
      </trkpt>
      <trkpt lat="43.73547" lon="6.9743">
        <ele>1028.1999511719</ele>
        <time>2010-12-12T11:14:45.000Z</time>
      </trkpt>
      <trkpt lat="43.7354" lon="6.97413">
        <ele>1028.1999511719</ele>
        <time>2010-12-12T11:14:49.000Z</time>
      </trkpt>
      <trkpt lat="43.73529" lon="6.97389">
        <ele>1027</ele>
        <time>2010-12-12T11:14:53.000Z</time>
      </trkpt>
      <trkpt lat="43.73516" lon="6.97357">
        <ele>1026</ele>
        <time>2010-12-12T11:14:58.000Z</time>
      </trkpt>
      <trkpt lat="43.73508" lon="6.97351">
        <ele>1025.4000244141</ele>
        <time>2010-12-12T11:15:00.000Z</time>
      </trkpt>
      <trkpt lat="43.7349" lon="6.97342">
        <ele>1024.8000488281</ele>
        <time>2010-12-12T11:15:04.000Z</time>
      </trkpt>
      <trkpt lat="43.73469" lon="6.97332">
        <ele>1025</ele>
        <time>2010-12-12T11:15:09.000Z</time>
      </trkpt>
      <trkpt lat="43.73435" lon="6.97319">
        <ele>1025.8000488281</ele>
        <time>2010-12-12T11:15:17.000Z</time>
      </trkpt>
      <trkpt lat="43.7342" lon="6.97313">
        <ele>1026</ele>
        <time>2010-12-12T11:15:22.000Z</time>
      </trkpt>
      <trkpt lat="43.73406" lon="6.97307">
        <ele>1026</ele>
        <time>2010-12-12T11:15:28.000Z</time>
      </trkpt>
      <trkpt lat="43.73392" lon="6.973">
        <ele>1026.1999511719</ele>
        <time>2010-12-12T11:15:33.000Z</time>
      </trkpt>
      <trkpt lat="43.73377" lon="6.97294">
        <ele>1026.4000244141</ele>
        <time>2010-12-12T11:15:38.000Z</time>
      </trkpt>
      <trkpt lat="43.73354" lon="6.97283">
        <ele>1026.5999755859</ele>
        <time>2010-12-12T11:15:45.000Z</time>
      </trkpt>
      <trkpt lat="43.73332" lon="6.97274">
        <ele>1026.8000488281</ele>
        <time>2010-12-12T11:15:51.000Z</time>
      </trkpt>
      <trkpt lat="43.73313" lon="6.97265">
        <ele>1028</ele>
        <time>2010-12-12T11:15:57.000Z</time>
      </trkpt>
      <trkpt lat="43.733" lon="6.9726">
        <ele>1028.8000488281</ele>
        <time>2010-12-12T11:16:03.000Z</time>
      </trkpt>
      <trkpt lat="43.73282" lon="6.97252">
        <ele>1029.5999755859</ele>
        <time>2010-12-12T11:16:11.000Z</time>
      </trkpt>
      <trkpt lat="43.7327" lon="6.97246">
        <ele>1030.1999511719</ele>
        <time>2010-12-12T11:16:17.000Z</time>
      </trkpt>
      <trkpt lat="43.73255" lon="6.9724">
        <ele>1031</ele>
        <time>2010-12-12T11:16:24.000Z</time>
      </trkpt>
      <trkpt lat="43.73241" lon="6.97232">
        <ele>1031.4000244141</ele>
        <time>2010-12-12T11:16:31.000Z</time>
      </trkpt>
      <trkpt lat="43.73226" lon="6.97228">
        <ele>1031.8000488281</ele>
        <time>2010-12-12T11:16:37.000Z</time>
      </trkpt>
      <trkpt lat="43.73203" lon="6.97218">
        <ele>1032.4000244141</ele>
        <time>2010-12-12T11:16:46.000Z</time>
      </trkpt>
      <trkpt lat="43.73182" lon="6.97208">
        <ele>1033.1999511719</ele>
        <time>2010-12-12T11:16:53.000Z</time>
      </trkpt>
      <trkpt lat="43.73166" lon="6.97202">
        <ele>1033.5999755859</ele>
        <time>2010-12-12T11:16:59.000Z</time>
      </trkpt>
      <trkpt lat="43.73164" lon="6.97202">
        <ele>1033.4000244141</ele>
        <time>2010-12-12T11:17:00.000Z</time>
      </trkpt>
      <trkpt lat="43.73164" lon="6.97203">
        <ele>1033.4000244141</ele>
        <time>2010-12-12T11:17:07.000Z</time>
      </trkpt>
      <trkpt lat="43.73164" lon="6.97203">
        <ele>1033.4000244141</ele>
        <time>2010-12-12T11:17:13.000Z</time>
      </trkpt>
      <trkpt lat="43.73164" lon="6.97202">
        <ele>1033.4000244141</ele>
        <time>2010-12-12T11:17:20.000Z</time>
      </trkpt>
      <trkpt lat="43.73163" lon="6.97202">
        <ele>1033.4000244141</ele>
        <time>2010-12-12T11:17:42.000Z</time>
      </trkpt>
      <trkpt lat="43.73152" lon="6.97195">
        <ele>1033</ele>
        <time>2010-12-12T11:17:48.000Z</time>
      </trkpt>
      <trkpt lat="43.73143" lon="6.97192">
        <ele>1032.5999755859</ele>
        <time>2010-12-12T11:17:51.000Z</time>
      </trkpt>
      <trkpt lat="43.73117" lon="6.9718">
        <ele>1031.4000244141</ele>
        <time>2010-12-12T11:17:58.000Z</time>
      </trkpt>
      <trkpt lat="43.73104" lon="6.97175">
        <ele>1030.8000488281</ele>
        <time>2010-12-12T11:18:01.000Z</time>
      </trkpt>
      <trkpt lat="43.73071" lon="6.97162">
        <ele>1027.5999755859</ele>
        <time>2010-12-12T11:18:09.000Z</time>
      </trkpt>
      <trkpt lat="43.73063" lon="6.97158">
        <ele>1026.1999511719</ele>
        <time>2010-12-12T11:18:11.000Z</time>
      </trkpt>
      <trkpt lat="43.73047" lon="6.97151">
        <ele>1023.4000244141</ele>
        <time>2010-12-12T11:18:15.000Z</time>
      </trkpt>
      <trkpt lat="43.73022" lon="6.9714">
        <ele>1019.200012207</ele>
        <time>2010-12-12T11:18:22.000Z</time>
      </trkpt>
      <trkpt lat="43.73017" lon="6.97137">
        <ele>1018.5999755859</ele>
        <time>2010-12-12T11:18:24.000Z</time>
      </trkpt>
      <trkpt lat="43.73016" lon="6.97138">
        <ele>1018.200012207</ele>
        <time>2010-12-12T11:18:31.000Z</time>
      </trkpt>
      <trkpt lat="43.73016" lon="6.97139">
        <ele>1018.200012207</ele>
        <time>2010-12-12T11:18:39.000Z</time>
      </trkpt>
      <trkpt lat="43.73016" lon="6.9714">
        <ele>1018.200012207</ele>
        <time>2010-12-12T11:18:54.000Z</time>
      </trkpt>
      <trkpt lat="43.73017" lon="6.97141">
        <ele>1018.200012207</ele>
        <time>2010-12-12T11:19:07.000Z</time>
      </trkpt>
      <trkpt lat="43.73017" lon="6.97141">
        <ele>1018.200012207</ele>
        <time>2010-12-12T11:19:20.000Z</time>
      </trkpt>
      <trkpt lat="43.73017" lon="6.9714">
        <ele>1018.4000244141</ele>
        <time>2010-12-12T11:19:29.000Z</time>
      </trkpt>
      <trkpt lat="43.73017" lon="6.97139">
        <ele>1018.4000244141</ele>
        <time>2010-12-12T11:19:36.000Z</time>
      </trkpt>
      <trkpt lat="43.73017" lon="6.97138">
        <ele>1018.5999755859</ele>
        <time>2010-12-12T11:19:47.000Z</time>
      </trkpt>
      <trkpt lat="43.73017" lon="6.97137">
        <ele>1018.5999755859</ele>
        <time>2010-12-12T11:20:01.000Z</time>
      </trkpt>
      <trkpt lat="43.73005" lon="6.97122">
        <ele>1017.5999755859</ele>
        <time>2010-12-12T11:20:07.000Z</time>
      </trkpt>
      <trkpt lat="43.72993" lon="6.97107">
        <ele>1013</ele>
        <time>2010-12-12T11:20:12.000Z</time>
      </trkpt>
      <trkpt lat="43.72989" lon="6.97106">
        <ele>1010.200012207</ele>
        <time>2010-12-12T11:20:14.000Z</time>
      </trkpt>
      <trkpt lat="43.72987" lon="6.97113">
        <ele>1008.200012207</ele>
        <time>2010-12-12T11:20:18.000Z</time>
      </trkpt>
      <trkpt lat="43.72995" lon="6.97124">
        <ele>1012.5999755859</ele>
        <time>2010-12-12T11:20:22.000Z</time>
      </trkpt>
      <trkpt lat="43.72994" lon="6.97136">
        <ele>1010.799987793</ele>
        <time>2010-12-12T11:20:26.000Z</time>
      </trkpt>
      <trkpt lat="43.72987" lon="6.97129">
        <ele>1007</ele>
        <time>2010-12-12T11:20:29.000Z</time>
      </trkpt>
      <trkpt lat="43.72983" lon="6.97125">
        <ele>1004.200012207</ele>
        <time>2010-12-12T11:20:32.000Z</time>
      </trkpt>
      <trkpt lat="43.72985" lon="6.97135">
        <ele>1004.799987793</ele>
        <time>2010-12-12T11:20:35.000Z</time>
      </trkpt>
      <trkpt lat="43.7299" lon="6.97163">
        <ele>1005.799987793</ele>
        <time>2010-12-12T11:20:41.000Z</time>
      </trkpt>
      <trkpt lat="43.7299" lon="6.97181">
        <ele>1005.200012207</ele>
        <time>2010-12-12T11:20:46.000Z</time>
      </trkpt>
      <trkpt lat="43.7299" lon="6.97197">
        <ele>1004.200012207</ele>
        <time>2010-12-12T11:20:50.000Z</time>
      </trkpt>
      <trkpt lat="43.72986" lon="6.97224">
        <ele>1001.5999755859</ele>
        <time>2010-12-12T11:20:55.000Z</time>
      </trkpt>
      <trkpt lat="43.72978" lon="6.97244">
        <ele>996.59997558594</ele>
        <time>2010-12-12T11:20:59.000Z</time>
      </trkpt>
      <trkpt lat="43.72974" lon="6.97254">
        <ele>995</ele>
        <time>2010-12-12T11:21:01.000Z</time>
      </trkpt>
      <trkpt lat="43.72964" lon="6.97277">
        <ele>993.40002441406</ele>
        <time>2010-12-12T11:21:06.000Z</time>
      </trkpt>
      <trkpt lat="43.72958" lon="6.97288">
        <ele>992.40002441406</ele>
        <time>2010-12-12T11:21:09.000Z</time>
      </trkpt>
      <trkpt lat="43.72956" lon="6.97281">
        <ele>990.20001220703</ele>
        <time>2010-12-12T11:21:13.000Z</time>
      </trkpt>
      <trkpt lat="43.72959" lon="6.97261">
        <ele>988.40002441406</ele>
        <time>2010-12-12T11:21:17.000Z</time>
      </trkpt>
      <trkpt lat="43.72959" lon="6.97257">
        <ele>987.79998779297</ele>
        <time>2010-12-12T11:21:18.000Z</time>
      </trkpt>
      <trkpt lat="43.72954" lon="6.97262">
        <ele>986</ele>
        <time>2010-12-12T11:21:22.000Z</time>
      </trkpt>
      <trkpt lat="43.72948" lon="6.97277">
        <ele>985.59997558594</ele>
        <time>2010-12-12T11:21:25.000Z</time>
      </trkpt>
      <trkpt lat="43.72938" lon="6.973">
        <ele>984.79998779297</ele>
        <time>2010-12-12T11:21:30.000Z</time>
      </trkpt>
      <trkpt lat="43.72934" lon="6.97308">
        <ele>985</ele>
        <time>2010-12-12T11:21:32.000Z</time>
      </trkpt>
      <trkpt lat="43.72931" lon="6.97302">
        <ele>982.20001220703</ele>
        <time>2010-12-12T11:21:36.000Z</time>
      </trkpt>
      <trkpt lat="43.72933" lon="6.9729">
        <ele>981</ele>
        <time>2010-12-12T11:21:38.000Z</time>
      </trkpt>
      <trkpt lat="43.72937" lon="6.97253">
        <ele>976</ele>
        <time>2010-12-12T11:21:43.000Z</time>
      </trkpt>
      <trkpt lat="43.72936" lon="6.97243">
        <ele>974.40002441406</ele>
        <time>2010-12-12T11:21:47.000Z</time>
      </trkpt>
      <trkpt lat="43.72932" lon="6.97255">
        <ele>973.79998779297</ele>
        <time>2010-12-12T11:21:50.000Z</time>
      </trkpt>
      <trkpt lat="43.72929" lon="6.97268">
        <ele>974.40002441406</ele>
        <time>2010-12-12T11:21:52.000Z</time>
      </trkpt>
      <trkpt lat="43.72915" lon="6.97298">
        <ele>973.79998779297</ele>
        <time>2010-12-12T11:21:57.000Z</time>
      </trkpt>
      <trkpt lat="43.72906" lon="6.97315">
        <ele>971.59997558594</ele>
        <time>2010-12-12T11:22:00.000Z</time>
      </trkpt>
      <trkpt lat="43.72887" lon="6.97346">
        <ele>965.79998779297</ele>
        <time>2010-12-12T11:22:05.000Z</time>
      </trkpt>
      <trkpt lat="43.7288" lon="6.97356">
        <ele>964.20001220703</ele>
        <time>2010-12-12T11:22:07.000Z</time>
      </trkpt>
      <trkpt lat="43.72877" lon="6.97349">
        <ele>960.59997558594</ele>
        <time>2010-12-12T11:22:11.000Z</time>
      </trkpt>
      <trkpt lat="43.72879" lon="6.97344">
        <ele>960.20001220703</ele>
        <time>2010-12-12T11:22:12.000Z</time>
      </trkpt>
      <trkpt lat="43.72891" lon="6.97298">
        <ele>958.40002441406</ele>
        <time>2010-12-12T11:22:18.000Z</time>
      </trkpt>
      <trkpt lat="43.72891" lon="6.97284">
        <ele>956</ele>
        <time>2010-12-12T11:22:20.000Z</time>
      </trkpt>
      <trkpt lat="43.72896" lon="6.97258">
        <ele>954</ele>
        <time>2010-12-12T11:22:25.000Z</time>
      </trkpt>
      <trkpt lat="43.72893" lon="6.97259">
        <ele>952.40002441406</ele>
        <time>2010-12-12T11:22:27.000Z</time>
      </trkpt>
      <trkpt lat="43.72892" lon="6.97262">
        <ele>952.40002441406</ele>
        <time>2010-12-12T11:22:28.000Z</time>
      </trkpt>
      <trkpt lat="43.72877" lon="6.97289">
        <ele>948.40002441406</ele>
        <time>2010-12-12T11:22:33.000Z</time>
      </trkpt>
      <trkpt lat="43.72864" lon="6.97305">
        <ele>942.59997558594</ele>
        <time>2010-12-12T11:22:37.000Z</time>
      </trkpt>
      <trkpt lat="43.72861" lon="6.97305">
        <ele>940.79998779297</ele>
        <time>2010-12-12T11:22:42.000Z</time>
      </trkpt>
      <trkpt lat="43.72865" lon="6.97283">
        <ele>939.79998779297</ele>
        <time>2010-12-12T11:22:47.000Z</time>
      </trkpt>
      <trkpt lat="43.7287" lon="6.97255">
        <ele>937.79998779297</ele>
        <time>2010-12-12T11:22:52.000Z</time>
      </trkpt>
      <trkpt lat="43.72868" lon="6.97255">
        <ele>936.40002441406</ele>
        <time>2010-12-12T11:22:56.000Z</time>
      </trkpt>
      <trkpt lat="43.72858" lon="6.9728">
        <ele>934.59997558594</ele>
        <time>2010-12-12T11:23:01.000Z</time>
      </trkpt>
      <trkpt lat="43.72849" lon="6.97293">
        <ele>931.20001220703</ele>
        <time>2010-12-12T11:23:04.000Z</time>
      </trkpt>
      <trkpt lat="43.7284" lon="6.97307">
        <ele>928.20001220703</ele>
        <time>2010-12-12T11:23:07.000Z</time>
      </trkpt>
      <trkpt lat="43.72833" lon="6.97321">
        <ele>925.79998779297</ele>
        <time>2010-12-12T11:23:09.000Z</time>
      </trkpt>
      <trkpt lat="43.72822" lon="6.97348">
        <ele>925.79998779297</ele>
        <time>2010-12-12T11:23:13.000Z</time>
      </trkpt>
      <trkpt lat="43.72814" lon="6.9736">
        <ele>924.79998779297</ele>
        <time>2010-12-12T11:23:16.000Z</time>
      </trkpt>
      <trkpt lat="43.72803" lon="6.97376">
        <ele>922.79998779297</ele>
        <time>2010-12-12T11:23:22.000Z</time>
      </trkpt>
      <trkpt lat="43.7279" lon="6.97393">
        <ele>919.40002441406</ele>
        <time>2010-12-12T11:23:27.000Z</time>
      </trkpt>
      <trkpt lat="43.72784" lon="6.97413">
        <ele>919.59997558594</ele>
        <time>2010-12-12T11:23:30.000Z</time>
      </trkpt>
      <trkpt lat="43.7278" lon="6.97419">
        <ele>918.59997558594</ele>
        <time>2010-12-12T11:23:31.000Z</time>
      </trkpt>
      <trkpt lat="43.7277" lon="6.97425">
        <ele>913.79998779297</ele>
        <time>2010-12-12T11:23:33.000Z</time>
      </trkpt>
      <trkpt lat="43.72756" lon="6.97432">
        <ele>907</ele>
        <time>2010-12-12T11:23:37.000Z</time>
      </trkpt>
      <trkpt lat="43.72758" lon="6.97421">
        <ele>906.20001220703</ele>
        <time>2010-12-12T11:23:39.000Z</time>
      </trkpt>
      <trkpt lat="43.72768" lon="6.97401">
        <ele>908.40002441406</ele>
        <time>2010-12-12T11:23:42.000Z</time>
      </trkpt>
      <trkpt lat="43.72772" lon="6.97368">
        <ele>905.20001220703</ele>
        <time>2010-12-12T11:23:46.000Z</time>
      </trkpt>
      <trkpt lat="43.72774" lon="6.97339">
        <ele>901</ele>
        <time>2010-12-12T11:23:49.000Z</time>
      </trkpt>
      <trkpt lat="43.72776" lon="6.97309">
        <ele>898.20001220703</ele>
        <time>2010-12-12T11:23:52.000Z</time>
      </trkpt>
      <trkpt lat="43.72784" lon="6.97263">
        <ele>895.79998779297</ele>
        <time>2010-12-12T11:23:57.000Z</time>
      </trkpt>
      <trkpt lat="43.72786" lon="6.97253">
        <ele>895.20001220703</ele>
        <time>2010-12-12T11:23:58.000Z</time>
      </trkpt>
      <trkpt lat="43.72789" lon="6.97219">
        <ele>892.59997558594</ele>
        <time>2010-12-12T11:24:01.000Z</time>
      </trkpt>
      <trkpt lat="43.72788" lon="6.97169">
        <ele>886.40002441406</ele>
        <time>2010-12-12T11:24:06.000Z</time>
      </trkpt>
      <trkpt lat="43.72787" lon="6.9716">
        <ele>885.40002441406</ele>
        <time>2010-12-12T11:24:07.000Z</time>
      </trkpt>
      <trkpt lat="43.72787" lon="6.97144">
        <ele>883.79998779297</ele>
        <time>2010-12-12T11:24:09.000Z</time>
      </trkpt>
      <trkpt lat="43.72783" lon="6.97119">
        <ele>880.20001220703</ele>
        <time>2010-12-12T11:24:13.000Z</time>
      </trkpt>
      <trkpt lat="43.72783" lon="6.97112">
        <ele>879.40002441406</ele>
        <time>2010-12-12T11:24:14.000Z</time>
      </trkpt>
      <trkpt lat="43.72784" lon="6.97065">
        <ele>876.40002441406</ele>
        <time>2010-12-12T11:24:20.000Z</time>
      </trkpt>
      <trkpt lat="43.72782" lon="6.97043">
        <ele>874.79998779297</ele>
        <time>2010-12-12T11:24:23.000Z</time>
      </trkpt>
      <trkpt lat="43.72781" lon="6.97025">
        <ele>873.40002441406</ele>
        <time>2010-12-12T11:24:26.000Z</time>
      </trkpt>
      <trkpt lat="43.72781" lon="6.97015">
        <ele>873</ele>
        <time>2010-12-12T11:24:28.000Z</time>
      </trkpt>
      <trkpt lat="43.72776" lon="6.9699">
        <ele>870.20001220703</ele>
        <time>2010-12-12T11:24:32.000Z</time>
      </trkpt>
      <trkpt lat="43.72768" lon="6.96966">
        <ele>866.20001220703</ele>
        <time>2010-12-12T11:24:38.000Z</time>
      </trkpt>
      <trkpt lat="43.7276" lon="6.96942">
        <ele>862.40002441406</ele>
        <time>2010-12-12T11:24:42.000Z</time>
      </trkpt>
      <trkpt lat="43.72747" lon="6.96899">
        <ele>856.40002441406</ele>
        <time>2010-12-12T11:24:46.000Z</time>
      </trkpt>
      <trkpt lat="43.72738" lon="6.96866">
        <ele>854.40002441406</ele>
        <time>2010-12-12T11:24:49.000Z</time>
      </trkpt>
      <trkpt lat="43.72732" lon="6.96849">
        <ele>853</ele>
        <time>2010-12-12T11:24:51.000Z</time>
      </trkpt>
      <trkpt lat="43.72717" lon="6.96842">
        <ele>849.59997558594</ele>
        <time>2010-12-12T11:24:55.000Z</time>
      </trkpt>
      <trkpt lat="43.72705" lon="6.96845">
        <ele>847</ele>
        <time>2010-12-12T11:24:58.000Z</time>
      </trkpt>
      <trkpt lat="43.72706" lon="6.96843">
        <ele>847</ele>
        <time>2010-12-12T11:24:59.000Z</time>
      </trkpt>
      <trkpt lat="43.72705" lon="6.96826">
        <ele>846.59997558594</ele>
        <time>2010-12-12T11:25:03.000Z</time>
      </trkpt>
      <trkpt lat="43.72695" lon="6.96818">
        <ele>844.40002441406</ele>
        <time>2010-12-12T11:25:07.000Z</time>
      </trkpt>
      <trkpt lat="43.72685" lon="6.96826">
        <ele>842</ele>
        <time>2010-12-12T11:25:11.000Z</time>
      </trkpt>
      <trkpt lat="43.72684" lon="6.96829">
        <ele>841.79998779297</ele>
        <time>2010-12-12T11:25:12.000Z</time>
      </trkpt>
      <trkpt lat="43.72684" lon="6.9683">
        <ele>841.79998779297</ele>
        <time>2010-12-12T11:25:25.000Z</time>
      </trkpt>
      <trkpt lat="43.72684" lon="6.9683">
        <ele>841.79998779297</ele>
        <time>2010-12-12T11:25:39.000Z</time>
      </trkpt>
      <trkpt lat="43.72683" lon="6.96831">
        <ele>841.59997558594</ele>
        <time>2010-12-12T11:25:47.000Z</time>
      </trkpt>
      <trkpt lat="43.72684" lon="6.96832">
        <ele>841.79998779297</ele>
        <time>2010-12-12T11:25:55.000Z</time>
      </trkpt>
      <trkpt lat="43.72682" lon="6.96835">
        <ele>841.40002441406</ele>
        <time>2010-12-12T11:26:18.000Z</time>
      </trkpt>
      <trkpt lat="43.72681" lon="6.96836">
        <ele>841.40002441406</ele>
        <time>2010-12-12T11:26:26.000Z</time>
      </trkpt>
      <trkpt lat="43.72665" lon="6.96842">
        <ele>838.20001220703</ele>
        <time>2010-12-12T11:26:32.000Z</time>
      </trkpt>
      <trkpt lat="43.7265" lon="6.96852">
        <ele>836.40002441406</ele>
        <time>2010-12-12T11:26:37.000Z</time>
      </trkpt>
      <trkpt lat="43.72637" lon="6.96862">
        <ele>834.59997558594</ele>
        <time>2010-12-12T11:26:41.000Z</time>
      </trkpt>
      <trkpt lat="43.72633" lon="6.96865">
        <ele>834</ele>
        <time>2010-12-12T11:26:42.000Z</time>
      </trkpt>
      <trkpt lat="43.72615" lon="6.96854">
        <ele>830.79998779297</ele>
        <time>2010-12-12T11:26:46.000Z</time>
      </trkpt>
      <trkpt lat="43.72609" lon="6.96849">
        <ele>829.79998779297</ele>
        <time>2010-12-12T11:26:47.000Z</time>
      </trkpt>
      <trkpt lat="43.72598" lon="6.96841">
        <ele>828</ele>
        <time>2010-12-12T11:26:49.000Z</time>
      </trkpt>
      <trkpt lat="43.72572" lon="6.9681">
        <ele>824</ele>
        <time>2010-12-12T11:26:55.000Z</time>
      </trkpt>
      <trkpt lat="43.72539" lon="6.96783">
        <ele>817.59997558594</ele>
        <time>2010-12-12T11:27:00.000Z</time>
      </trkpt>
      <trkpt lat="43.72532" lon="6.96778">
        <ele>816.20001220703</ele>
        <time>2010-12-12T11:27:01.000Z</time>
      </trkpt>
      <trkpt lat="43.72504" lon="6.96753">
        <ele>811.59997558594</ele>
        <time>2010-12-12T11:27:06.000Z</time>
      </trkpt>
      <trkpt lat="43.72496" lon="6.96756">
        <ele>809.59997558594</ele>
        <time>2010-12-12T11:27:09.000Z</time>
      </trkpt>
      <trkpt lat="43.72498" lon="6.96767">
        <ele>809.20001220703</ele>
        <time>2010-12-12T11:27:12.000Z</time>
      </trkpt>
      <trkpt lat="43.72494" lon="6.9677">
        <ele>808.20001220703</ele>
        <time>2010-12-12T11:27:15.000Z</time>
      </trkpt>
      <trkpt lat="43.72486" lon="6.96753">
        <ele>807.40002441406</ele>
        <time>2010-12-12T11:27:18.000Z</time>
      </trkpt>
      <trkpt lat="43.72484" lon="6.96744">
        <ele>807.59997558594</ele>
        <time>2010-12-12T11:27:19.000Z</time>
      </trkpt>
      <trkpt lat="43.72481" lon="6.96728">
        <ele>808</ele>
        <time>2010-12-12T11:27:21.000Z</time>
      </trkpt>
      <trkpt lat="43.72465" lon="6.96705">
        <ele>805.20001220703</ele>
        <time>2010-12-12T11:27:26.000Z</time>
      </trkpt>
      <trkpt lat="43.72449" lon="6.96687">
        <ele>801.40002441406</ele>
        <time>2010-12-12T11:27:29.000Z</time>
      </trkpt>
      <trkpt lat="43.72432" lon="6.96665">
        <ele>797.20001220703</ele>
        <time>2010-12-12T11:27:32.000Z</time>
      </trkpt>
      <trkpt lat="43.72425" lon="6.96636">
        <ele>794.20001220703</ele>
        <time>2010-12-12T11:27:35.000Z</time>
      </trkpt>
      <trkpt lat="43.72415" lon="6.96609">
        <ele>790.40002441406</ele>
        <time>2010-12-12T11:27:38.000Z</time>
      </trkpt>
      <trkpt lat="43.724" lon="6.96599">
        <ele>787.40002441406</ele>
        <time>2010-12-12T11:27:41.000Z</time>
      </trkpt>
      <trkpt lat="43.72389" lon="6.96605">
        <ele>785.40002441406</ele>
        <time>2010-12-12T11:27:43.000Z</time>
      </trkpt>
      <trkpt lat="43.72377" lon="6.96633">
        <ele>784</ele>
        <time>2010-12-12T11:27:48.000Z</time>
      </trkpt>
      <trkpt lat="43.72376" lon="6.96652">
        <ele>784.59997558594</ele>
        <time>2010-12-12T11:27:50.000Z</time>
      </trkpt>
      <trkpt lat="43.72363" lon="6.96687">
        <ele>784.20001220703</ele>
        <time>2010-12-12T11:27:55.000Z</time>
      </trkpt>
      <trkpt lat="43.7236" lon="6.96705">
        <ele>785</ele>
        <time>2010-12-12T11:27:58.000Z</time>
      </trkpt>
      <trkpt lat="43.72348" lon="6.96716">
        <ele>784.40002441406</ele>
        <time>2010-12-12T11:28:02.000Z</time>
      </trkpt>
      <trkpt lat="43.72344" lon="6.96716">
        <ele>784</ele>
        <time>2010-12-12T11:28:03.000Z</time>
      </trkpt>
      <trkpt lat="43.72319" lon="6.96712">
        <ele>779.79998779297</ele>
        <time>2010-12-12T11:28:10.000Z</time>
      </trkpt>
      <trkpt lat="43.72303" lon="6.96714">
        <ele>776.79998779297</ele>
        <time>2010-12-12T11:28:14.000Z</time>
      </trkpt>
      <trkpt lat="43.72284" lon="6.9672">
        <ele>773.79998779297</ele>
        <time>2010-12-12T11:28:19.000Z</time>
      </trkpt>
      <trkpt lat="43.72272" lon="6.96724">
        <ele>771.59997558594</ele>
        <time>2010-12-12T11:28:22.000Z</time>
      </trkpt>
      <trkpt lat="43.72251" lon="6.96733">
        <ele>767.79998779297</ele>
        <time>2010-12-12T11:28:27.000Z</time>
      </trkpt>
      <trkpt lat="43.72249" lon="6.96758">
        <ele>767.79998779297</ele>
        <time>2010-12-12T11:28:31.000Z</time>
      </trkpt>
      <trkpt lat="43.7225" lon="6.96773">
        <ele>768.40002441406</ele>
        <time>2010-12-12T11:28:33.000Z</time>
      </trkpt>
      <trkpt lat="43.72254" lon="6.96819">
        <ele>770.79998779297</ele>
        <time>2010-12-12T11:28:39.000Z</time>
      </trkpt>
      <trkpt lat="43.72255" lon="6.96835">
        <ele>771.40002441406</ele>
        <time>2010-12-12T11:28:42.000Z</time>
      </trkpt>
      <trkpt lat="43.7226" lon="6.96885">
        <ele>770.79998779297</ele>
        <time>2010-12-12T11:28:50.000Z</time>
      </trkpt>
      <trkpt lat="43.7226" lon="6.96925">
        <ele>769</ele>
        <time>2010-12-12T11:28:55.000Z</time>
      </trkpt>
      <trkpt lat="43.72262" lon="6.96984">
        <ele>768.40002441406</ele>
        <time>2010-12-12T11:29:01.000Z</time>
      </trkpt>
      <trkpt lat="43.7227" lon="6.97024">
        <ele>771.59997558594</ele>
        <time>2010-12-12T11:29:05.000Z</time>
      </trkpt>
      <trkpt lat="43.72272" lon="6.97072">
        <ele>772.20001220703</ele>
        <time>2010-12-12T11:29:10.000Z</time>
      </trkpt>
      <trkpt lat="43.7227" lon="6.97134">
        <ele>770.20001220703</ele>
        <time>2010-12-12T11:29:16.000Z</time>
      </trkpt>
      <trkpt lat="43.72261" lon="6.97198">
        <ele>765.20001220703</ele>
        <time>2010-12-12T11:29:22.000Z</time>
      </trkpt>
      <trkpt lat="43.72254" lon="6.9723">
        <ele>762.20001220703</ele>
        <time>2010-12-12T11:29:25.000Z</time>
      </trkpt>
      <trkpt lat="43.72256" lon="6.97273">
        <ele>762.79998779297</ele>
        <time>2010-12-12T11:29:29.000Z</time>
      </trkpt>
      <trkpt lat="43.7226" lon="6.97293">
        <ele>764.20001220703</ele>
        <time>2010-12-12T11:29:31.000Z</time>
      </trkpt>
      <trkpt lat="43.72258" lon="6.97342">
        <ele>763.40002441406</ele>
        <time>2010-12-12T11:29:36.000Z</time>
      </trkpt>
      <trkpt lat="43.72243" lon="6.97369">
        <ele>761.59997558594</ele>
        <time>2010-12-12T11:29:40.000Z</time>
      </trkpt>
      <trkpt lat="43.72234" lon="6.97377">
        <ele>760.59997558594</ele>
        <time>2010-12-12T11:29:44.000Z</time>
      </trkpt>
    </trkseg>
  </trk>
</gpx>